[[{"header":{"parameterUnit":"m.s-1","parameterCategory":1,"la1":31.0,"la2":29.5877,"lo1":-88.7671,"lo2":-86.6584,"dy":0.0162,"dx":0.0185,"nx":115,"ny":88,"refTime":"2024-06-27T06:00:00:Z","depth":0,"parameterNumber":2,"parameterNumberName":"U-component_of_WINDS"},"data":[0.0,0.0,0.0,0.0,0.0,0.0,0.0,0.0,0.0,0.0,0.0,0.0,0.0,0.0,0.0,0.0,0.0,0.0,0.0,0.0,0.0,0.0,0.0,0.0,0.0,0.0,0.0,0.0,0.0,0.0,0.0,0.0,0.0,0.0,0.0,0.0,0.0,0.0,0.0,0.0,0.0,0.0,0.0,0.0,0.0,0.0,0.0,0.0,0.0,0.0,0.0,0.0,0.0,0.0,0.0,0.0,0.0,0.0,0.0,0.0,0.0,0.0,0.0,0.0,0.0,0.0,0.0,0.0,0.0,0.0,0.0,0.0,0.0,0.0,0.0,0.0,0.0,0.0,0.0,0.0,0.0,0.0,0.0,0.0,0.0,0.0,0.0,0.0,0.0,0.0,0.0,0.0,0.0,0.0,0.0,0.0,0.0,0.0,0.0,0.0,0.0,0.0,0.0,0.0,0.0,0.0,0.0,0.0,0.0,0.0,0.0,0.0,0.0,0.0,0.0,0.0,0.0,0.0,0.0,0.0,0.0,0.0,0.0,0.0,0.0,0.0,0.0,0.0,0.0,0.0,0.0,0.0,0.0,0.0,0.0,0.0,0.0,0.0,0.0,0.0,0.0,0.0,0.0,0.0,0.0,0.0,0.0,0.0,0.0,0.0,0.0,0.0,0.0,0.0,0.0,0.0,0.0,0.0,0.0,0.0,0.0,0.0,0.0,0.0,0.0,0.0,0.0,0.0,0.0,0.0,0.0,0.0,0.0,0.0,0.0,0.0,0.0,0.0,0.0,0.0,0.0,0.0,0.0,0.0,0.0,0.0,0.0,0.0,0.0,0.0,0.0,0.0,0.0,0.0,0.0,0.0,0.0,0.0,0.0,0.0,0.0,0.0,0.0,0.0,0.0,0.0,0.0,0.0,0.0,0.0,0.0,0.0,0.0,0.0,0.0,0.0,0.0,0.0,0.0,0.0,0.0,0.0,0.0,0.0,0.0,0.0,0.0,0.0,0.0,0.0,0.0,0.0,0.0,0.0,0.0,0.0,0.0,0.0,0.0,0.0,0.0,0.0,0.0,0.0,0.0,0.0,0.0,0.0,0.0,0.0,0.0,0.0,0.0,0.0,0.0,0.0,0.0,0.0,0.0,0.0,0.0,0.0,0.0,0.0,0.0,0.0,0.0,0.0,0.0,0.0,0.0,0.0,0.0,0.0,0.0,0.0,0.0,0.0,0.0,0.0,0.0,0.0,0.0,0.0,0.0,0.0,0.0,0.0,0.0,0.0,0.0,0.0,0.0,0.0,0.0,0.0,0.0,0.0,0.0,0.0,0.0,0.0,0.0,0.0,0.0,0.0,0.0,0.0,0.0,0.0,0.0,0.0,0.0,0.0,0.0,0.0,0.0,0.0,0.0,0.0,0.0,0.0,0.0,0.0,0.0,0.0,0.0,0.0,0.0,0.0,0.0,0.0,0.0,0.0,0.0,0.0,0.0,0.0,0.0,0.0,0.0,0.0,0.0,0.0,0.0,0.0,0.0,0.0,0.0,0.0,0.0,0.0,0.0,0.0,0.0,0.0,0.0,0.0,0.0,0.0,0.0,0.0,0.0,0.0,0.0,0.0,0.0,0.0,0.0,0.0,0.0,0.0,0.0,0.0,0.0,0.0,0.0,0.0,0.0,0.0,0.0,0.0,0.0,0.0,0.0,0.0,0.0,0.0,0.0,0.0,0.0,0.0,0.0,0.0,0.0,0.0,0.0,0.0,0.0,0.0,0.0,0.0,0.0,0.0,0.0,0.0,0.0,0.0,0.0,0.0,0.0,0.0,0.0,0.0,0.0,0.0,0.0,0.0,0.0,0.0,0.0,0.0,0.0,0.0,0.0,0.0,0.0,0.0,0.0,0.0,0.0,0.0,0.0,0.0,0.0,0.0,0.0,0.0,0.0,0.0,0.0,0.0,0.0,0.0,0.0,0.0,0.0,0.0,0.0,0.0,0.0,0.0,0.0,0.0,0.0,0.0,0.0,0.0,0.0,0.0,0.0,0.0,0.0,0.0,0.0,0.0,0.0,0.0,0.0,0.0,0.0,0.0,0.0,0.0,0.0,0.0,0.0,0.0,0.0,0.0,0.0,0.0,0.0,0.0,0.0,0.0,0.0,0.0,0.0,0.0,0.0,0.0,0.0,0.0,0.0,0.0,0.0,0.0,0.0,0.0,0.0,0.0,0.0,0.0,0.0,0.0,0.0,0.0,0.0,0.0,0.0,0.0,0.0,0.0,0.0,0.0,0.0,0.0,0.0,0.0,0.0,0.0,0.0,0.0,0.0,0.0,0.0,0.0,0.0,0.0,0.0,0.0,0.0,0.0,0.0,0.0,0.0,0.0,0.0,0.0,0.0,0.0,0.0,0.0,0.0,0.0,0.0,0.0,0.0,0.0,0.0,0.0,0.0,0.0,0.0,0.0,0.0,0.0,0.0,0.0,0.0,0.0,0.0,0.0,0.0,0.0,0.0,0.0,0.0,0.0,0.0,0.0,0.0,0.0,0.0,0.0,0.0,0.0,0.0,0.0,0.0,0.0,0.0,0.0,0.0,0.0,0.0,0.0,0.0,0.0,0.0,0.0,0.0,0.0,0.0,0.0,0.0,0.0,0.0,0.0,0.0,0.0,0.0,0.0,0.0,0.0,0.0,0.0,0.0,0.0,0.0,0.0,0.0,0.0,0.0,0.0,0.0,0.0,0.0,0.0,0.0,0.0,0.0,0.0,0.0,0.0,0.0,0.0,0.0,0.0,0.0,0.0,0.0,0.0,0.0,0.0,0.0,0.0,0.0,0.0,0.0,0.0,0.0,0.0,0.0,0.0,0.0,0.0,0.0,0.0,0.0,0.0,0.0,0.0,0.0,0.0,0.0,0.0,0.0,0.0,0.0,0.0,0.0,0.0,0.0,0.0,0.0,0.0,0.0,0.0,0.0,0.0,0.0,0.0,0.0,0.0,0.0,0.0,0.0,0.0,0.0,0.0,0.0,0.0,0.0,0.0,0.0,0.0,0.0,0.0,0.0,0.0,0.0,0.0,0.0,0.0,0.0,0.0,0.0,0.0,0.0,0.0,0.0,0.0,0.0,0.0,0.0,0.0,0.0,0.0,0.0,0.0,0.0,0.0,0.0,0.0,0.0,0.0,0.0,0.0,0.0,0.0,0.0,0.0,0.0,0.0,0.0,0.0,0.0,0.0,0.0,0.0,0.0,0.0,0.0,0.0,0.0,0.0,0.0,0.0,0.0,0.0,0.0,0.0,0.0,0.0,0.0,0.0,0.0,0.0,0.0,0.0,0.0,0.0,0.0,0.0,0.0,0.0,0.0,0.0,0.0,0.0,0.0,0.0,0.0,0.0,0.0,0.0,0.0,0.0,0.0,0.0,0.0,0.0,0.0,0.0,0.0,0.0,0.0,0.0,0.0,0.0,0.0,0.0,0.0,0.0,0.0,0.0,0.0,0.0,0.0,0.0,0.0,0.0,0.0,0.0,0.0,0.0,0.0,0.0,0.0,0.0,0.0,0.0,0.0,0.0,0.0,0.0,0.0,0.0,0.0,0.0,0.0,0.0,0.0,0.0,0.0,0.0,0.0,0.0,0.0,0.0,0.0,0.0,0.0,0.0,0.0,0.0,0.0,0.0,0.0,0.0,0.0,0.0,0.0,0.0,0.0,0.0,0.0,0.0,0.0,0.0,0.0,0.0,0.0,0.0,0.0,0.0,0.0,0.0,0.0,0.0,0.0,0.0,0.0,0.0,0.0,0.0,0.0,0.0,0.0,0.0,0.0,0.0,0.0,0.0,0.0,0.0,0.0,0.0,0.0,0.0,0.0,0.0,0.0,0.0,0.0,0.0,0.0,0.0,0.0,0.0,0.0,0.0,0.0,0.0,0.0,0.0,0.0,0.0,0.0,0.0,0.0,0.0,0.0,0.0,0.0,0.0,0.0,0.0,0.0,0.0,0.0,0.0,0.0,0.0,0.0,0.0,0.0,0.0,0.0,0.0,0.0,0.0,0.0,0.0,0.0,0.0,0.0,0.0,0.0,0.0,0.0,0.0,0.0,0.0,0.0,0.0,0.0,0.0,0.0,0.0,0.0,0.0,0.0,0.0,0.0,0.0,0.0,0.0,0.0,0.0,0.0,0.0,0.0,0.0,0.0,0.0,0.0,0.0,0.0,0.0,0.0,0.0,0.0,0.0,0.0,0.0,0.0,0.0,0.0,0.0,0.0,0.0,0.0,0.0,1.103,0.0,0.0,0.0,0.0,0.0,0.0,0.0,0.0,0.0,0.0,0.0,0.0,0.0,0.0,0.0,0.0,0.0,0.0,0.0,0.0,0.0,0.0,0.0,0.0,0.0,0.0,0.0,0.0,0.0,0.0,0.0,0.0,0.0,0.0,0.0,0.0,0.0,0.0,0.0,0.0,0.0,0.0,0.0,0.0,0.0,0.0,0.0,0.0,0.0,0.0,0.0,0.0,0.0,0.0,0.0,0.0,0.0,0.0,0.0,0.0,0.0,0.0,0.0,0.0,0.0,0.0,0.0,0.0,0.0,0.0,0.0,0.0,0.0,0.0,0.0,0.0,0.0,0.0,0.0,0.0,0.0,0.0,0.0,0.0,0.0,0.0,0.0,0.0,0.0,0.0,0.0,0.0,0.0,0.0,0.0,0.0,0.0,0.0,0.0,0.0,0.0,0.0,0.0,0.0,0.0,0.0,0.0,0.0,0.0,0.0,1.2109,1.1875,1.1865,1.1465,1.0605,0.0,0.0,0.0,0.0,0.0,0.0,0.0,0.0,0.0,0.0,0.0,0.0,0.0,0.0,0.0,0.0,0.0,0.0,0.0,0.0,0.0,0.0,0.0,0.0,0.0,0.0,0.0,0.0,0.0,0.0,0.0,0.0,0.0,0.0,0.0,0.0,0.0,0.0,0.0,0.0,0.0,0.0,0.0,0.0,0.0,0.0,0.0,0.0,0.0,0.0,0.0,0.0,0.0,0.0,0.0,0.0,0.0,0.0,0.0,0.0,0.0,0.0,0.0,0.0,0.0,0.0,0.0,0.0,0.0,0.0,0.0,0.0,0.0,0.0,0.0,0.0,0.0,0.0,0.0,0.0,0.0,0.0,0.0,0.0,0.0,0.0,0.0,0.0,0.0,0.0,0.0,0.0,0.0,0.0,0.0,0.0,0.0,0.0,0.0,0.0,0.0,0.0,0.0,0.0,0.0,0.0,0.0,0.0,0.0,0.0,0.0,0.0,1.1709,1.1299,1.0508,0.0,0.0,0.0,0.0,0.0,0.0,0.0,0.0,0.0,0.0,0.0,0.0,0.0,0.0,0.0,0.0,0.0,0.0,0.0,0.0,0.0,0.0,0.0,0.0,0.0,0.0,0.0,0.0,0.0,0.0,0.0,0.0,0.0,0.0,0.0,0.0,0.0,0.0,0.0,0.0,0.0,0.0,0.0,0.0,0.0,0.0,0.0,0.0,0.0,0.0,0.0,0.0,0.0,0.0,0.0,0.0,0.0,0.0,0.0,0.0,0.0,0.0,0.0,0.0,0.0,0.0,0.0,0.0,0.0,0.0,0.0,0.0,0.0,0.0,0.0,0.0,0.0,0.0,0.0,0.0,0.0,0.0,0.0,0.0,0.0,0.0,0.0,0.0,0.0,0.0,0.0,0.0,0.0,0.0,0.0,0.0,0.0,0.0,0.0,0.0,0.0,0.0,0.0,0.0,0.0,0.0,0.0,0.0,0.0,0.0,1.1787,1.2158,1.2158,0.0,1.0928,0.0,0.0,0.0,0.0,0.0,0.0,0.0,0.0,0.0,0.0,0.0,0.0,0.0,0.0,0.0,0.0,0.0,0.0,0.0,0.0,0.0,0.0,0.0,0.0,0.0,0.0,0.0,0.0,0.0,0.0,0.0,0.0,0.0,0.0,0.0,0.0,0.0,0.0,0.0,0.0,0.0,0.0,0.0,0.0,0.0,0.0,0.0,0.0,0.0,0.0,0.0,0.0,0.0,0.0,0.0,0.0,0.0,0.0,0.0,0.0,0.0,0.0,0.0,0.0,0.0,0.0,0.0,0.0,0.0,0.0,0.0,0.0,0.0,0.0,0.0,0.0,0.0,0.0,0.0,0.0,0.0,0.0,0.0,0.0,0.0,0.0,0.0,0.0,0.0,0.0,0.0,0.0,0.0,0.0,0.0,0.0,0.0,0.0,0.0,0.0,0.0,0.0,0.0,0.0,0.0,0.0,0.0,0.0,0.0,0.0,1.166,1.1711,1.146,1.1151,0.0,0.0,0.0,0.0,0.0,0.0,0.0,0.0,0.0,0.0,0.0,0.0,0.0,0.0,0.0,0.0,0.0,0.0,0.0,0.0,0.0,0.0,0.0,0.0,0.0,0.0,0.0,0.0,0.0,0.0,0.0,0.0,0.0,0.0,0.0,0.0,0.0,0.0,0.0,0.0,0.0,0.0,0.0,0.0,0.0,0.0,0.0,0.0,0.0,0.0,0.0,0.0,0.0,0.0,0.0,0.0,0.0,0.0,0.0,0.0,0.0,0.0,0.0,0.0,0.0,0.0,0.0,0.0,0.0,0.0,0.0,0.0,0.0,0.0,0.0,0.0,0.0,0.0,0.0,0.0,0.0,0.0,0.0,0.0,0.0,0.0,0.0,0.0,0.0,0.0,0.0,0.0,0.0,0.0,0.0,0.0,0.0,0.0,0.0,0.0,0.0,0.0,0.0,0.0,0.0,0.0,0.0,0.0,0.0,0.0,1.1737,0.0,1.1861,1.1446,1.1109,1.0908,0.0,0.0,0.0,0.0,0.0,0.0,0.0,0.0,0.0,0.0,0.0,0.0,0.0,0.0,0.0,0.0,0.0,0.0,0.0,0.0,0.0,0.0,0.0,0.0,0.0,0.0,0.0,0.0,0.0,0.0,0.0,0.0,0.0,0.0,0.0,0.0,0.0,0.0,0.0,0.0,0.0,0.0,0.0,0.0,0.0,0.0,0.0,0.0,0.0,0.0,0.0,0.0,0.0,0.0,0.0,0.0,0.0,0.0,0.0,0.0,0.0,0.0,0.0,0.0,0.0,0.0,0.0,0.0,0.0,0.0,0.0,0.0,0.0,0.0,0.0,0.0,0.0,0.0,0.0,0.0,0.0,0.0,0.0,0.0,0.0,0.0,0.0,0.0,0.0,0.0,0.0,0.0,0.0,0.0,0.0,0.0,0.0,0.0,0.0,0.0,0.0,0.0,0.0,0.0,0.0,0.0,0.0,0.0,0.0,1.2073,1.2408,1.3078,1.2711,1.2142,0.0,0.0,0.0,0.0,0.0,0.0,0.0,0.0,0.0,0.0,0.0,0.0,0.0,0.0,0.0,0.0,0.0,0.0,0.0,0.0,0.0,0.0,0.0,0.0,0.0,0.0,0.0,0.0,0.0,0.0,0.0,0.0,0.0,0.0,0.0,0.0,0.0,0.0,0.0,0.0,0.0,0.0,0.0,0.0,0.0,0.0,0.0,0.0,0.0,0.0,0.0,0.0,0.0,0.0,0.0,0.0,0.0,0.0,0.0,0.0,0.0,0.0,0.0,0.0,0.0,0.0,0.0,0.0,0.0,0.0,0.0,0.0,0.0,0.0,0.0,0.0,0.0,0.0,0.0,0.0,0.0,0.0,0.0,0.0,0.0,0.0,0.0,0.0,0.0,0.0,0.0,0.0,0.0,0.0,0.0,0.0,0.0,0.0,0.0,0.0,0.0,0.0,0.0,0.0,0.0,0.0,0.0,0.0,0.0,1.1205,1.1573,1.2214,1.3034,1.2373,1.1819,0.0,0.0,0.0,0.0,0.0,0.0,0.0,0.0,0.0,0.0,0.0,0.0,0.0,0.0,0.0,0.0,0.0,0.0,0.0,0.0,0.0,0.0,0.0,0.0,0.0,0.0,0.0,0.0,0.0,0.0,0.0,0.0,0.0,0.0,0.0,0.0,0.0,0.0,0.0,0.0,0.0,0.0,0.0,0.0,0.0,0.0,0.0,0.0,0.0,0.0,0.0,0.0,0.0,0.0,0.0,0.0,0.0,0.0,0.0,0.0,0.0,0.0,0.0,0.0,0.0,0.0,0.0,0.0,0.0,0.0,0.0,0.0,0.0,0.0,0.0,0.0,0.0,0.0,0.0,0.0,0.0,0.0,0.0,0.0,0.0,0.0,0.0,0.0,0.0,0.0,0.0,0.0,0.0,0.0,0.0,0.0,0.0,0.0,0.0,0.0,0.0,0.0,0.0,0.0,0.0,0.0,0.0,0.0,0.0,1.1085,0.0,1.2319,0.0,1.232,1.1887,0.0,0.0,0.0,0.0,0.0,0.0,0.0,0.0,0.0,0.0,0.0,0.0,0.0,0.0,0.0,0.0,0.0,0.0,0.0,0.0,0.0,0.0,0.0,0.0,0.0,0.0,0.0,0.0,0.0,0.0,0.0,0.0,0.0,0.0,0.0,0.0,0.0,0.0,0.0,0.0,0.0,0.0,0.0,0.0,0.0,0.0,0.0,0.0,0.0,0.0,0.0,0.0,0.0,0.0,0.0,0.0,0.0,0.0,0.0,0.0,0.0,0.0,0.0,0.0,0.0,0.0,0.0,0.0,0.0,0.0,0.0,0.0,0.0,0.0,0.0,0.0,0.0,0.0,0.0,0.0,0.0,0.0,0.0,0.0,0.0,0.0,0.0,0.0,0.0,0.0,0.0,0.0,0.0,0.0,0.0,0.0,0.0,0.0,0.0,0.0,0.0,0.0,0.0,0.0,0.0,0.0,0.0,0.0,1.0663,1.1774,1.2692,1.2834,1.2265,1.2773,1.2462,0.0,0.0,0.0,0.0,0.0,0.0,0.0,0.0,0.0,0.0,0.0,0.0,0.0,0.0,0.0,0.0,0.0,0.0,0.0,0.0,0.0,0.0,0.0,0.0,0.0,0.0,0.0,0.0,0.0,0.0,0.0,0.0,0.0,0.0,0.0,0.0,0.0,0.0,0.0,0.0,0.0,0.0,0.0,0.0,0.0,0.0,0.0,0.0,0.0,0.0,0.0,0.0,0.0,0.0,0.0,0.0,0.0,0.0,0.0,0.0,0.0,0.0,0.0,0.0,0.0,0.0,0.0,0.0,0.0,0.0,0.0,0.0,0.0,0.0,0.0,0.0,0.0,0.0,0.0,0.0,0.0,0.0,0.0,0.0,0.0,0.0,0.0,0.0,0.0,0.0,0.0,0.0,0.0,0.0,0.0,0.0,0.0,0.0,0.0,0.0,0.0,0.0,0.0,0.0,0.0,0.0,0.0,0.0,0.0,1.2167,1.2446,1.2708,1.301,1.256,1.2087,0.0,0.0,0.0,0.0,0.0,0.0,0.0,0.0,0.0,0.0,0.0,0.0,0.0,0.0,0.0,0.0,0.0,0.0,0.0,0.0,0.0,0.0,0.0,0.0,0.0,0.0,0.0,0.0,0.0,0.0,0.0,0.0,0.0,0.0,0.0,0.0,0.0,0.0,0.0,0.0,0.0,0.0,0.0,0.0,0.0,0.0,0.0,0.0,0.0,0.0,0.0,0.0,0.0,0.0,0.0,0.0,0.0,0.0,0.0,0.0,0.0,0.0,0.0,0.0,0.0,0.0,0.0,0.0,0.0,0.0,0.0,0.0,0.0,0.0,0.0,0.0,0.0,0.0,0.0,0.0,0.0,0.0,0.0,0.0,0.0,0.0,0.0,0.0,0.0,0.0,0.0,0.0,0.0,0.0,0.0,0.0,0.0,0.0,0.0,0.0,0.0,0.0,0.0,0.0,0.0,0.0,0.0,0.0,0.0,1.2352,1.2446,1.2624,1.2931,1.2669,1.2337,1.1943,0.0,0.0,0.0,0.0,0.0,0.0,0.0,0.0,0.0,0.0,0.0,0.0,0.0,0.0,0.0,0.0,0.0,0.0,0.0,0.0,0.0,0.0,0.0,0.0,0.0,0.0,0.0,0.0,0.0,0.0,0.0,0.0,0.0,0.0,0.0,0.0,0.0,0.0,0.0,0.0,0.0,0.0,0.0,0.0,0.0,0.0,0.0,0.0,0.0,0.0,0.0,0.0,0.0,0.0,0.0,0.0,0.0,0.0,0.0,0.0,0.0,0.0,0.0,0.0,0.0,0.0,0.0,0.0,0.0,0.0,0.0,0.0,0.0,0.0,0.0,0.0,0.0,0.0,0.0,0.0,0.0,0.0,0.0,0.0,0.0,0.0,0.0,0.0,0.0,0.0,0.0,0.0,0.0,0.0,0.0,0.0,0.0,0.0,0.0,0.0,0.0,0.0,0.0,0.0,0.0,0.0,0.0,0.0,1.2457,1.2599,1.257,1.2283,1.3118,1.3065,0.0,0.0,0.0,0.0,0.0,0.0,0.0,0.0,0.0,0.0,0.0,0.0,0.0,0.0,0.0,0.0,0.0,0.0,0.0,0.0,0.0,0.0,0.0,0.0,0.0,0.0,0.0,0.0,0.0,0.0,0.0,0.0,0.0,0.0,0.0,0.0,0.0,0.0,0.0,0.0,0.0,0.0,0.0,0.0,0.0,0.0,0.0,0.0,0.0,0.0,0.0,0.0,0.0,0.0,0.0,0.0,0.0,0.0,0.0,0.0,0.0,0.0,0.0,0.0,0.0,0.0,0.0,0.0,0.0,0.0,0.0,0.0,0.0,0.0,0.0,0.0,0.0,0.0,0.0,0.0,0.0,0.0,0.0,0.0,0.0,0.0,0.0,0.0,0.0,0.0,0.0,0.0,0.0,0.0,0.0,0.0,0.0,0.0,0.0,0.0,0.0,0.0,0.0,0.0,0.0,0.0,0.0,0.0,0.0,1.2932,1.2841,1.2899,1.3094,1.3001,1.2813,0.0,0.0,0.0,0.0,0.0,0.0,0.0,0.0,0.0,0.0,0.0,0.0,0.0,0.0,0.0,0.0,0.0,0.0,0.0,0.0,0.0,0.0,0.0,0.0,0.0,0.0,0.0,0.0,0.0,0.0,0.0,0.0,0.0,0.0,0.0,0.0,0.0,0.0,0.0,0.0,0.0,0.0,0.0,0.0,0.0,0.0,0.0,0.0,0.0,0.0,0.0,0.0,0.0,0.0,0.0,0.0,0.0,0.0,0.0,0.0,0.0,0.0,0.0,0.0,0.0,0.0,0.0,0.0,0.0,0.0,0.0,0.0,0.0,0.0,0.0,0.0,0.0,0.0,0.0,0.0,0.0,0.0,0.0,0.0,0.0,0.0,0.0,0.0,0.0,0.0,0.0,0.0,0.0,0.0,0.0,0.0,0.0,0.0,0.0,0.0,0.0,0.0,0.0,0.0,0.0,0.0,0.0,0.0,1.2416,1.2987,1.2997,1.3084,1.3314,1.3211,1.3022,0.0,0.0,0.0,0.0,0.0,0.0,0.0,0.0,0.0,0.0,0.0,0.0,0.0,0.0,0.0,0.0,0.0,0.0,0.0,0.0,0.0,0.0,0.0,0.0,0.0,0.0,0.0,0.0,0.0,0.0,0.0,0.0,0.0,0.0,0.0,0.0,0.0,0.0,0.0,0.0,0.0,0.0,0.0,0.0,0.0,0.0,0.0,0.0,0.0,0.0,0.0,0.0,0.0,0.0,0.0,0.0,0.0,0.0,0.0,0.0,0.0,0.0,0.0,0.0,0.0,0.0,0.0,0.0,0.0,0.0,0.0,0.0,0.0,0.0,0.0,0.0,0.0,0.0,0.0,0.0,0.0,0.0,0.0,0.0,0.0,0.0,0.0,0.0,0.0,0.0,0.0,0.0,0.0,0.0,0.0,0.0,0.0,0.0,0.0,0.0,0.0,0.0,0.0,0.0,0.0,0.0,0.0,0.0,1.292,1.2764,1.3035,1.317,1.3218,1.3573,1.3424,0.0,0.0,0.0,0.0,0.0,0.0,0.0,0.0,0.0,0.0,0.0,0.0,0.0,0.0,0.0,0.0,0.0,0.0,0.0,0.0,0.0,0.0,0.0,0.0,0.0,0.0,0.0,0.0,0.0,0.0,0.0,0.0,0.0,0.0,0.0,0.0,0.0,0.0,0.0,0.0,0.0,0.0,0.0,0.0,0.0,0.0,0.0,0.0,0.0,0.0,0.0,0.0,0.0,0.0,0.0,0.0,0.0,0.0,0.0,0.0,0.0,0.0,0.0,0.0,0.0,0.0,0.0,0.0,0.0,0.0,0.0,0.0,0.0,0.0,0.0,0.0,0.0,0.0,0.0,0.0,0.0,0.0,0.0,0.0,0.0,0.0,0.0,0.0,0.0,0.0,0.0,0.0,0.0,0.0,0.0,0.0,0.0,0.0,0.0,0.0,0.0,0.0,0.0,0.0,0.0,0.0,0.0,0.0,1.2852,1.3084,1.3104,1.3152,1.3218,1.3266,1.3321,0.0,0.0,0.0,0.0,0.0,0.0,0.0,0.0,0.0,0.0,0.0,0.0,0.0,0.0,0.0,0.0,0.0,0.0,0.0,0.0,0.0,0.0,0.0,0.0,0.0,0.0,0.0,0.0,0.0,0.0,0.0,0.0,0.0,0.0,0.0,0.0,0.0,0.0,0.0,0.0,0.0,0.0,0.0,0.0,0.0,0.0,0.0,0.0,1.2552,0.0,0.0,0.0,0.0,0.0,0.0,0.0,0.0,0.0,0.0,0.0,0.0,0.0,0.0,0.0,0.0,0.0,0.0,0.0,0.0,0.0,0.0,0.0,0.0,0.0,0.0,0.0,0.0,0.0,0.0,0.0,0.0,0.0,0.0,0.0,0.0,0.0,0.0,0.0,0.0,0.0,0.0,0.0,0.0,0.0,0.0,0.0,0.0,0.0,0.0,0.0,0.0,0.0,0.0,0.0,0.0,0.0,0.0,0.0,1.292,1.3045,1.3027,1.3017,1.3045,1.3045,1.3045,0.0,0.0,0.0,0.0,0.0,0.0,0.0,0.0,0.0,0.0,0.0,0.0,0.0,0.0,0.0,0.0,0.0,0.0,0.0,0.0,0.0,0.0,0.0,0.0,0.0,0.0,0.0,0.0,0.0,0.0,0.0,0.0,0.0,0.0,0.0,0.0,0.0,0.0,0.0,0.0,0.0,0.0,0.0,0.0,0.0,0.0,0.0,0.0,0.0,0.0,0.0,0.0,0.0,0.0,0.0,0.0,0.0,0.0,0.0,0.0,0.0,0.0,0.0,0.0,0.0,0.0,0.0,0.0,0.0,0.0,0.0,0.0,0.0,0.0,0.0,0.0,0.0,0.0,0.0,0.0,0.0,0.0,0.0,0.0,0.0,0.0,0.0,0.0,0.0,0.0,0.0,0.0,0.0,0.0,0.0,0.0,0.0,0.0,0.0,0.0,0.0,0.0,0.0,0.0,0.0,0.0,0.0,1.2387,1.3036,1.2891,1.2891,1.2891,1.2891,1.2891,1.2832,1.2725,0.0,0.0,0.0,0.0,0.0,0.0,0.0,0.0,0.0,0.0,0.0,0.0,0.0,0.0,0.0,0.0,0.0,0.0,0.0,0.0,0.0,0.0,0.0,0.0,0.0,0.0,0.0,0.0,0.0,0.0,0.0,0.0,0.0,0.0,0.0,0.0,0.0,0.0,1.1966,1.2909,0.0,0.0,0.0,0.0,0.0,0.0,0.0,0.0,1.1152,0.0,0.0,0.0,0.0,0.0,0.0,0.0,0.0,0.0,0.0,0.0,0.0,0.0,0.0,0.0,0.0,0.0,0.0,0.0,0.0,0.0,0.0,0.0,0.0,0.0,0.0,0.0,0.0,0.0,0.0,0.0,0.0,0.0,0.0,0.0,0.0,0.0,0.0,0.0,0.0,0.0,0.0,0.0,0.0,0.0,0.0,0.0,0.0,0.0,0.0,0.0,0.0,0.0,0.0,0.0,0.0,1.1206,1.2335,1.2929,1.2891,1.2891,1.2891,1.2891,1.2891,1.2881,1.2852,0.0,0.0,0.0,0.0,0.0,0.0,0.0,0.0,0.0,0.0,0.0,0.0,0.0,0.0,0.0,0.0,0.0,0.0,0.0,0.0,0.0,0.0,0.0,0.0,0.0,0.0,0.0,0.0,0.0,0.0,0.0,0.0,0.0,0.0,0.0,0.0,0.0,0.0,0.0,1.2022,1.2308,0.0,0.0,0.0,0.0,0.0,0.0,0.0,0.0,1.137,0.0,0.0,0.0,0.0,0.0,0.0,0.0,0.0,0.0,0.0,0.0,0.0,0.0,0.0,0.0,0.0,0.0,0.0,0.0,0.0,0.0,0.0,0.0,0.0,0.0,0.0,0.0,0.0,0.0,0.0,0.0,0.0,0.0,0.0,0.0,0.0,0.0,0.0,0.0,0.0,0.0,0.0,0.0,0.0,0.0,0.0,0.0,0.0,0.0,0.0,0.0,0.0,0.0,0.0,0.0,1.1208,1.2067,1.2578,1.2783,1.2774,1.2774,1.2832,1.2783,1.2832,0.0,0.0,0.0,0.0,0.0,0.0,0.0,0.0,0.0,0.0,0.0,0.0,0.0,0.0,0.0,0.0,0.0,0.0,0.0,0.0,0.0,0.0,0.0,0.0,0.0,0.0,0.0,0.0,0.0,0.0,0.0,0.0,0.0,0.0,0.0,0.0,0.0,0.0,0.0,0.0,1.1645,1.1731,1.1724,0.0,0.0,0.0,0.0,0.0,0.0,1.0336,1.035,0.0,0.0,0.0,0.0,0.0,0.0,0.0,0.0,0.0,0.0,0.0,0.0,0.0,0.0,0.0,0.0,0.0,0.0,0.0,0.0,0.0,0.0,0.0,0.0,0.0,0.0,0.0,0.0,0.0,0.0,0.0,0.0,0.0,0.0,0.0,0.0,0.0,0.0,0.0,0.0,0.0,0.0,0.0,0.0,0.0,0.0,0.0,0.0,0.0,0.0,0.0,0.0,0.0,0.0,0.0,1.1174,1.1719,1.2175,1.2471,1.2471,1.2471,1.2471,1.2627,1.2696,0.0,0.0,0.0,0.0,0.0,0.0,0.0,0.0,0.0,0.0,0.0,0.0,0.0,0.0,0.0,0.0,0.0,0.0,0.0,0.0,0.0,0.0,0.0,0.0,0.0,0.0,0.0,0.0,0.0,0.0,0.0,0.0,0.0,0.0,0.0,0.0,0.0,0.0,0.0,0.0,0.0,1.1418,1.1217,1.1006,0.0,0.0,0.0,0.0,0.971,0.9562,0.0,0.0,0.0,0.0,0.0,0.0,0.0,0.0,0.0,0.0,0.0,0.0,0.0,0.0,0.0,0.0,0.0,0.0,0.0,0.0,0.0,0.0,0.0,0.0,0.0,0.0,0.0,0.0,0.0,0.0,0.0,0.0,0.0,0.0,0.0,0.0,0.0,0.0,0.0,0.0,0.0,0.0,0.0,0.0,0.0,0.0,0.0,0.0,0.0,0.0,0.0,0.0,0.0,0.0,0.0,0.0,1.1082,1.146,1.171,1.171,1.1701,1.1701,1.1751,1.2372,1.2503,0.0,0.0,0.0,0.0,0.0,0.0,0.0,0.0,0.0,0.0,0.0,0.0,0.0,0.0,0.0,0.0,0.0,0.0,0.0,0.0,0.0,0.0,0.0,0.0,0.0,0.0,0.0,0.0,0.0,0.0,0.0,0.0,0.0,0.0,0.0,0.0,0.0,0.0,0.0,0.0,0.0,1.1175,1.0308,1.0336,1.0218,0.0,0.0,0.9814,0.9361,0.9614,0.0,0.0,0.0,0.0,0.0,0.0,0.0,0.0,0.0,0.0,0.0,0.0,0.0,0.0,0.0,0.0,0.0,0.0,0.0,0.0,0.0,0.0,0.0,0.0,0.0,0.0,0.0,0.0,0.0,0.0,0.0,0.0,0.0,0.0,0.0,0.0,0.0,0.0,0.0,0.0,0.0,0.0,0.0,0.0,0.0,0.0,0.0,0.0,0.0,0.0,0.0,0.0,0.0,0.0,0.0,0.9882,1.088,1.1057,1.1259,1.1569,1.1868,1.2017,1.2026,1.2283,1.2329,0.0,0.0,0.0,0.0,0.0,0.0,0.0,0.0,0.0,0.0,0.0,0.0,0.0,0.0,0.0,0.0,0.0,0.0,0.0,0.0,0.0,0.0,0.0,0.0,0.0,0.0,0.0,0.0,0.0,0.0,0.0,0.0,0.0,0.0,0.0,0.0,0.0,0.0,0.0,0.0,0.0,0.0,0.9976,0.9873,0.0,0.0,0.0,0.9413,0.9106,0.0,0.0,0.0,0.0,0.0,0.0,0.0,0.0,0.0,0.0,0.0,0.0,0.0,0.0,0.0,0.0,0.0,0.0,0.0,0.0,0.0,0.0,0.0,0.0,0.0,0.0,0.0,0.0,0.0,0.0,0.0,0.0,0.0,0.0,0.0,0.0,0.0,0.0,0.0,0.0,0.0,0.0,0.0,0.0,0.0,0.0,0.0,0.0,0.0,0.0,0.0,0.0,0.0,0.0,0.0,0.0,0.0,1.0736,1.0694,1.0956,1.1427,1.1828,1.2085,1.2076,1.2234,0.0,0.0,0.0,0.0,0.0,0.0,0.0,0.0,0.0,0.0,0.0,0.0,0.0,0.0,0.0,0.0,0.0,0.0,0.0,0.0,0.0,0.0,0.0,0.0,0.0,0.0,0.0,0.8768,0.0,0.0,0.0,0.0,0.0,0.0,0.0,0.0,0.0,0.0,0.0,0.0,0.0,0.0,0.988,0.9718,0.9465,0.9256,0.0,0.0,0.9061,0.8956,0.8956,0.8984,0.0,0.0,0.0,0.0,0.0,0.0,0.0,0.0,0.0,0.0,0.0,0.0,0.0,0.0,0.0,0.0,0.0,0.0,0.0,0.0,0.0,0.0,0.0,0.0,0.0,0.0,0.0,0.0,0.0,0.0,0.0,0.0,0.0,0.0,0.0,0.0,0.0,0.0,0.0,0.0,0.0,0.0,0.0,0.0,0.0,0.0,0.0,0.0,0.0,0.0,0.0,0.0,0.0,0.0,0.0,1.0568,1.0482,1.0736,1.1276,1.1326,1.1377,1.1377,1.1977,1.1748,0.0,0.0,0.0,0.0,0.0,0.0,0.0,0.0,0.0,0.0,0.0,0.0,0.0,0.0,0.0,0.0,0.0,0.0,0.0,0.0,0.0,0.0,0.0,0.0,0.0,0.0,0.0,0.0,0.0,0.0,0.0,0.0,0.0,0.0,0.0,0.0,0.0,0.0,0.0,0.0,0.0,0.9718,0.9458,0.9211,0.9015,0.0,0.0,0.8804,0.8811,0.8811,0.8811,0.8838,0.0,0.0,0.0,0.0,0.0,0.0,0.0,0.0,0.0,0.0,0.0,0.0,0.0,0.0,0.0,0.0,0.0,0.0,0.0,0.0,0.0,0.0,0.0,0.0,0.0,0.0,0.0,0.0,0.0,0.0,0.0,0.0,0.0,0.0,0.0,0.0,0.0,0.0,0.0,0.0,0.0,0.0,0.0,0.0,0.0,0.0,0.0,0.0,0.0,0.0,0.0,0.0,0.0,0.9212,1.0312,1.0364,1.0677,1.1276,1.1619,1.1778,1.1828,1.2026,1.1739,0.0,0.0,0.0,0.0,0.0,0.0,0.0,0.0,0.0,0.0,0.0,0.0,0.0,0.0,0.0,0.0,0.0,0.0,0.0,0.0,0.0,0.0,0.0,0.0,0.0,0.0,0.0,0.0,0.9582,0.9459,0.9367,0.0,0.0,0.0,0.0,0.0,0.0,0.0,0.0,0.0,0.0,0.9465,0.9211,0.9061,0.0,0.0,0.9072,0.9017,0.8915,0.8915,0.8908,0.8793,0.8883,0.0,0.0,0.0,0.0,0.0,0.0,0.0,0.0,0.0,0.0,0.0,0.0,0.0,0.0,0.0,0.0,0.0,0.0,0.0,0.0,0.0,0.0,0.0,0.0,0.0,0.0,0.0,0.0,0.0,0.0,0.0,0.0,0.0,0.0,0.0,0.0,0.0,0.0,0.0,0.0,0.0,0.0,0.0,0.0,0.0,0.0,0.0,0.0,0.0,0.0,0.0,0.0,0.8977,1.0108,1.0431,1.0846,1.1418,1.1628,1.1819,1.2026,1.171,1.135,0.0,0.0,0.0,0.0,0.0,0.0,0.0,0.0,0.0,0.0,0.0,0.0,0.0,0.0,0.0,0.0,0.0,0.0,0.0,0.0,0.0,0.0,0.0,0.0,0.0,0.0,0.0,0.0,1.0058,0.9812,0.9512,0.0,0.0,0.0,0.0,0.0,0.0,0.0,0.0,0.0,0.0,0.9369,0.9022,0.8956,0.9011,0.9143,0.9128,0.9112,0.9084,0.9112,0.9131,0.8928,0.0,0.0,0.0,0.0,0.0,0.0,0.0,0.0,0.0,0.0,0.0,0.0,0.0,0.0,0.0,0.0,0.0,0.0,0.0,0.0,0.0,0.0,0.0,0.0,0.0,0.0,0.0,0.0,0.0,0.0,0.8095,0.0,0.0,0.0,0.0,0.0,0.0,0.0,0.0,0.0,0.0,0.0,0.0,0.0,0.0,0.0,0.0,0.0,0.0,0.0,0.0,0.0,0.0,0.9267,0.9997,1.0549,1.1124,1.1628,1.1108,1.1158,1.1828,1.0838,1.0406,1.0789,0.0,0.0,0.0,0.0,0.0,0.0,0.0,0.0,0.0,0.0,0.0,0.0,0.0,0.0,0.0,0.0,0.0,0.0,0.0,0.0,0.0,0.0,0.0,0.0,0.0,0.0,0.971,0.9615,0.9529,0.0,0.0,0.0,0.0,0.0,0.0,0.0,0.0,0.0,0.0,0.9585,0.9507,0.9063,0.8917,0.8891,0.9004,0.9036,0.9078,0.9182,0.9436,0.9525,0.0,0.0,0.0,0.0,0.0,0.0,0.0,0.0,0.0,0.0,0.0,0.0,0.0,0.0,0.0,0.0,0.0,0.0,0.0,0.0,0.0,0.0,0.0,0.0,0.0,0.0,0.0,0.7602,0.7473,0.0,0.0,0.0,0.0,0.0,0.0,0.0,0.0,0.0,0.0,0.0,0.8553,0.8612,0.0,0.0,0.0,0.0,0.0,0.0,0.0,0.0,0.0,0.0,0.0,0.0,0.8734,0.9318,0.9614,1.0035,1.0533,1.0379,1.0576,1.1292,1.0922,1.0905,1.1253,0.0,0.0,0.0,0.0,0.0,0.0,0.0,0.0,0.0,0.0,0.0,0.0,0.0,0.0,0.0,0.0,0.0,0.0,0.0,0.0,0.0,0.0,0.0,0.0,0.0,1.0433,0.0,0.0,0.0,0.0,0.0,0.0,0.0,0.0,0.0,0.0,0.0,1.0038,0.9862,0.9855,0.972,0.9511,0.9442,0.9435,0.0,0.0,0.0,0.0,0.0,0.0,0.0,0.0,0.0,0.0,0.0,0.0,0.0,0.0,1.1015,1.0635,1.0481,1.0347,1.0147,0.0,0.0,0.0,0.0,0.0,0.0,0.0,0.0,0.0,0.0,0.0,0.0,0.0,0.0,0.7861,0.0,0.7774,0.0,0.0,0.0,0.0,0.0,0.0,0.0,0.0,0.8636,0.8758,0.8728,0.8864,0.885,0.0,0.8517,0.8417,0.0,0.0,0.0,0.0,0.0,0.0,0.0,0.0,0.8484,0.8974,0.9204,0.9517,0.9814,0.971,1.0012,1.088,1.1233,1.1367,1.1244,1.1085,1.0804,0.0,0.0,0.0,0.0,0.0,0.0,0.0,0.0,0.0,0.0,0.0,0.0,0.0,0.0,0.0,0.0,0.0,0.0,0.0,0.0,0.0,0.0,0.0,1.0672,0.0,0.0,0.0,0.0,0.0,0.0,0.0,0.0,0.0,1.029,1.0246,1.0194,1.0064,1.0051,0.9976,0.9758,0.0,0.0,0.0,0.0,0.0,0.0,0.0,0.9566,0.953,0.9548,0.9701,0.9987,1.0488,1.0842,1.0877,0.0,0.0,1.0935,1.0775,1.0648,1.0461,1.0494,1.051,1.0067,1.014,1.0214,0.0,0.0,0.0,0.0,0.0,0.0,0.0,0.0,0.8145,0.8239,0.0,0.8041,0.0,0.0,0.0,0.0,0.0,0.8475,0.0,0.0,0.8985,0.905,0.8864,0.9118,0.9112,0.8844,0.8725,0.8718,0.8804,0.8108,0.0,0.0,0.0,0.0,0.0,0.0,0.8606,0.8969,0.9316,0.9562,0.951,0.904,0.9399,1.0694,1.1569,1.159,1.0776,1.1386,1.1204,0.9914,1.0153,0.0,0.0,0.0,0.0,0.0,0.0,0.0,0.0,0.0,0.0,0.0,0.0,0.0,0.0,0.0,0.0,0.0,0.0,0.0,0.0,1.068,0.0,0.0,0.0,0.0,0.0,0.0,0.0,0.0,0.0,0.0,1.0034,1.0444,1.0604,1.0038,0.0,0.0,0.0,0.0,0.9459,0.9614,0.953,0.9451,0.9524,0.97,0.9766,0.9538,0.0,0.0,1.0438,1.0757,1.0989,1.0797,1.1094,1.141,1.1396,1.1169,1.1002,1.0969,1.0762,1.0645,1.0611,1.0508,1.0598,0.823,0.0,0.0,0.0,0.0,0.8567,0.8638,0.8733,0.8727,0.8622,0.8469,0.8333,0.0,0.0,0.0,0.0,0.0,0.0,0.9361,0.9368,0.9479,0.9512,0.9439,0.9519,0.9512,0.9439,0.9426,0.9312,0.9199,0.8912,0.8519,0.7989,0.0,0.0,0.0,0.0,0.8493,0.8703,0.8738,0.8732,0.8738,0.858,0.889,0.9769,1.0533,1.073,1.0531,1.1236,1.1363,1.0681,1.0661,0.0,0.0,0.0,0.0,0.0,0.0,0.0,0.0,0.0,0.0,0.0,0.0,0.0,0.0,0.0,0.0,0.0,0.0,0.0,1.066,1.0511,1.0565,0.0,0.0,0.0,0.0,0.0,0.0,0.0,0.0,0.0,1.0463,1.0538,1.0639,0.0,0.0,1.047,1.0383,1.0184,1.0024,0.992,0.975,0.0,0.0,0.9664,0.9699,0.9939,1.0286,1.0556,1.0612,1.0898,1.1204,1.1174,1.1129,1.1116,1.1122,1.1223,1.1216,1.1042,1.0922,1.0795,1.0608,1.0618,1.0618,0.8877,0.8865,0.8771,0.8675,0.8675,0.8675,0.8792,0.9026,0.9026,0.9023,0.9039,0.8929,0.8808,0.8745,0.8864,0.0,0.0,0.0,0.9686,0.9693,0.98,0.98,0.9699,0.98,0.9793,0.9693,0.9628,0.957,0.9512,0.9318,0.8997,0.8564,0.0,0.0,0.8478,0.8478,0.8614,0.8821,0.8625,0.8479,0.8587,0.8692,0.9001,0.9413,1.0064,1.0423,1.0482,1.099,1.1098,1.0721,1.0538,1.0101,0.0,0.0,0.0,0.0,0.0,0.0,0.0,0.0,0.0,0.0,0.0,0.9631,0.9273,0.0,0.0,0.0,0.9815,1.0258,1.0704,1.0738,0.0,0.0,0.0,0.0,0.0,0.0,0.0,1.1399,1.1567,1.1585,1.1333,1.1206,1.1107,1.0914,1.0893,1.0902,1.0902,0.0,1.0601,1.0296,1.0154,1.0043,0.9968,0.978,0.9891,1.0356,1.0466,1.0711,1.0955,1.118,1.1286,1.1341,1.1283,1.1162,1.1169,1.1309,1.1289,1.0909,1.0822,1.0755,1.0651,1.0618,1.0618,0.9496,0.9472,0.8993,0.8788,0.8741,0.8741,0.8865,0.9036,0.9036,0.9351,0.9858,0.9544,0.9676,1.006,0.9826,0.0,0.9719,0.9798,0.976,0.9766,1.0027,1.0013,0.9773,1.0027,1.0013,0.976,0.9642,0.9636,0.9701,0.9447,0.9265,0.9265,0.8971,0.8853,0.8999,0.8863,0.8921,0.9227,0.8846,0.8701,0.8837,0.9152,0.9368,0.9361,0.9961,1.0328,1.0446,1.0651,1.06,1.0233,1.0103,0.9674,0.8877,0.0,0.0,0.0,0.0,0.0,0.0,0.0,0.0,0.0,0.0,0.0,0.0,0.0,0.0,0.0,1.0548,0.0,1.0845,1.1136,0.0,0.0,0.0,1.1068,1.1181,1.1414,1.1721,1.2036,0.0,0.0,1.233,1.214,1.1838,1.1162,1.1269,1.143,1.143,1.1273,1.1057,1.079,1.0605,1.0371,1.0116,1.0053,1.0187,1.0613,1.0764,1.0981,1.1341,1.1516,1.1503,1.153,1.1483,1.1456,1.1463,1.145,1.1256,1.0762,1.0705,1.0678,1.0678,1.0588,1.0624,0.9598,0.9796,0.9401,0.9291,0.9292,0.9292,0.9355,0.9418,0.9543,0.9649,0.9695,0.9752,0.9754,0.9793,0.9947,1.0013,1.002,1.0247,1.0416,1.0416,1.0483,1.0421,1.0354,1.0421,1.0483,1.0416,1.0354,1.0292,1.0161,1.0099,0.9974,0.9781,0.9725,0.9488,0.9096,0.9067,0.9191,0.9525,0.9434,0.9352,0.9128,0.9005,0.8962,0.8956,0.9211,0.9368,0.9368,1.002,1.032,1.0218,1.0265,1.0126,0.969,0.9018,0.0,0.0,0.0,0.0,0.0,0.0,0.0,0.0,0.0,1.0306,0.9649,0.0,1.0441,0.0,1.0698,1.0919,1.1145,1.0841,0.0,0.0,1.1196,1.1247,1.1743,1.1875,1.205,1.2372,1.2475,1.2458,1.2323,1.2317,1.2235,1.1949,1.1592,1.143,1.143,1.1292,1.1142,1.1057,1.0741,1.0454,1.0384,1.0502,1.0581,1.0646,1.122,1.1683,1.175,1.1951,1.2091,1.2078,1.1904,1.1784,1.1764,1.1583,1.1403,1.1236,1.1042,1.0889,1.0889,1.0722,1.0624,0.9808,1.0043,0.9814,0.9779,0.9728,0.9611,0.9623,0.9734,0.9862,0.9901,0.9955,1.0266,1.0431,1.0474,1.0621,1.0701,1.0701,1.0735,1.0755,1.0742,1.0621,1.0618,1.0618,1.0618,1.0618,1.0618,1.0618,1.0561,1.0434,1.0364,1.0238,1.011,1.0047,0.9844,0.95,0.953,0.9659,0.9942,0.9906,0.9666,0.9203,0.903,0.8938,0.8811,0.891,0.9061,0.9106,0.9562,0.9865,0.9917,1.0028,0.9941,0.9627,0.9193,0.8758,0.0,0.0,0.0,0.0,0.0,0.0,0.0,0.0,0.0,0.0,0.0,1.1036,0.0,1.1275,1.139,1.1591,1.1241,1.113,1.169,1.1564,1.175,1.2401,1.2467,1.2592,1.2914,1.2958,1.2958,1.2825,1.2756,1.2713,1.2504,1.2203,1.1888,1.181,1.1746,1.1636,1.1504,1.1171,1.0868,1.0757,1.0797,1.0956,1.1213,1.1587,1.1904,1.2031,1.2191,1.2305,1.2291,1.2171,1.2064,1.2051,1.1937,1.1817,1.1777,1.1583,1.1356,1.1209,1.0955,1.0755,1.0141,1.0367,1.0261,1.0202,1.0174,0.9799,0.9818,1.004,1.0142,1.0283,1.0425,1.087,1.1182,1.1423,1.143,1.143,1.1403,1.1122,1.0995,1.0975,1.0759,1.0618,1.0618,1.0618,1.0618,1.0618,1.0618,1.0618,1.0618,1.0428,1.0371,1.0301,1.0174,1.011,1.0047,1.0047,1.0174,1.0301,1.0206,0.9807,0.9309,0.9279,0.9118,0.8878,0.8976,0.9113,0.9211,0.9361,0.9465,0.9614,0.9614,0.9497,0.9248,0.9247,0.9148,0.0,0.9198,0.0,0.0,0.0,0.0,0.0,0.0,0.0,0.0,1.1225,1.161,1.1893,1.2028,1.2091,1.2083,1.1859,1.1814,1.2058,1.2073,1.2387,1.2936,1.3045,1.3177,1.3462,1.3492,1.3492,1.347,1.3346,1.3119,1.2952,1.2712,1.2471,1.2358,1.2265,1.2171,1.1957,1.1677,1.1328,1.1149,1.1102,1.1296,1.175,1.1904,1.2011,1.2245,1.2298,1.2305,1.2305,1.2291,1.2291,1.2298,1.2298,1.2285,1.2331,1.213,1.1868,1.1483,1.1296,1.1108,1.0729,1.1071,1.0475,1.0685,1.1259,1.0358,1.0171,1.0409,1.0834,1.106,1.1195,1.1248,1.1376,1.143,1.143,1.143,1.141,1.1122,1.0995,1.0982,1.0695,1.0618,1.0618,1.0618,1.0618,1.0618,1.0618,1.0618,1.0618,1.0561,1.0561,1.0561,1.0498,1.0491,1.0491,0.0,0.0,0.0,1.0274,1.0067,0.994,0.9536,0.9315,0.9309,0.9284,0.0,0.9361,0.9517,0.9555,0.9614,0.9614,0.0,0.0,0.0,0.0,0.0,0.0,0.0,0.0,0.0,0.0,0.0,1.1527,1.1542,1.1259,1.2081,1.2552,1.2329,1.2564,1.2692,1.2448,1.239,1.2333,1.2394,1.2658,1.2877,1.3009,1.3236,1.3433,1.3477,1.3492,1.3492,1.3492,1.3346,1.32,1.3127,1.282,1.2599,1.2526,1.2378,1.2278,1.2204,1.1937,1.1677,1.139,1.1536,1.1683,1.1884,1.2084,1.2225,1.2291,1.2305,1.2305,1.2305,1.2305,1.2305,1.2305,1.2305,1.2378,1.2526,1.2471,1.2281,1.1543,1.1519,1.1485,1.1083,0.0,1.0834,1.0883,0.0,1.0677,1.0651,1.0744,1.1022,1.1315,1.1643,1.1643,1.1717,1.1864,1.1857,1.1857,1.1844,1.1557,1.1423,1.141,1.1122,1.0909,1.0775,1.0775,1.0759,1.0631,1.0708,1.0775,1.0782,1.0922,1.0989,1.0989,1.0982,1.1055,1.1114,1.1101,1.0958,1.0681,1.0601,1.0506,1.0356,1.0113,0.9868,0.9577,0.0,0.0,0.0,0.0,0.0,0.0,0.0,0.0,0.0,0.0,0.0,1.005,1.0132,1.0336,1.0677,1.0976,1.1328,1.1873,1.2243,1.2414,1.2141,1.2655,1.3057,1.322,1.3283,1.3317,1.3316,1.3032,1.2869,1.299,1.3038,1.3067,1.3228,1.3397,1.3492,1.3492,1.3492,1.3492,1.3492,1.3419,1.3273,1.32,1.3046,1.2826,1.2746,1.2526,1.2265,1.2118,1.1984,1.1824,1.1697,1.1757,1.1931,1.2064,1.2204,1.2291,1.2305,1.2305,1.2305,1.2305,1.2305,1.2305,1.2445,1.2445,1.2526,1.2673,1.2746,1.2539,1.1854,1.1895,1.1978,1.1224,1.1142,1.1103,1.0969,1.0792,1.0862,1.0949,1.1068,0.0,0.0,0.0,1.2016,1.215,1.2372,1.2378,1.2372,1.2358,1.2148,1.2013,1.1999,1.1632,1.1337,1.1134,1.112,1.0972,1.0708,1.0978,1.1061,1.1068,1.1357,1.1491,1.1498,1.1491,1.1533,1.1675,1.1574,1.1367,1.094,1.1059,1.094,1.0681,1.0685,1.0418,0.9904,0.9945,0.9897,0.9645,0.979,0.9842,0.9888,0.994,1.0053,1.0279,1.0331,1.0488,1.0757,1.1009,1.1297,1.1544,1.1842,1.2201,1.2569,1.2886,1.3048,1.2988,1.3031,1.3357,1.4033,1.384,1.3824,1.4181,1.3747,1.3468,1.3739,1.3434,1.3349,1.3593,1.3564,1.3492,1.3492,1.3492,1.3492,1.3492,1.3492,1.3426,1.3273,1.3193,1.3119,1.29,1.2673,1.2384,1.2188,1.2213,1.2101,1.2087,1.2101,1.2188,1.2384,1.2432,1.2378,1.2378,1.2378,1.2378,1.2452,1.2378,1.2452,1.2606,1.2673,1.2746,1.29,1.2973,1.2811,1.2388,1.2452,1.2537,1.125,1.1341,1.1089,1.1149,1.1269,1.0815,1.0819,1.1227,1.1592,1.1931,1.2238,1.2391,1.2558,1.2599,1.2753,1.2826,1.2799,1.2506,1.2445,0.0,1.2054,1.1748,1.1455,1.1448,1.1288,1.1038,1.1309,1.1448,1.1483,1.1769,1.1915,1.1922,1.1915,1.1789,1.1532,1.1673,1.1561,1.1247,1.1122,1.1108,1.0996,1.0852,1.0735,1.0635,1.0545,1.0507,1.0455,1.0722,1.0905,1.0898,1.1185,1.1352,1.1352,1.1566,1.1748,1.1795,1.2071,1.2206,1.2257,1.2629,1.2971,1.3305,1.3399,1.3305,1.3014,1.3262,1.3622,1.405,1.4055,1.4191,1.4486,1.4457,1.4388,1.4419,1.4132,1.3939,1.3985,1.371,1.3492,1.3492,1.3492,1.3492,1.3492,1.3492,1.3492,1.3419,1.3346,1.3119,1.2973,1.29,1.2813,1.2764,1.2757,1.2757,1.2729,1.2757,1.2764,1.2806,1.282,1.2753,1.2746,1.2746,1.2753,1.2826,1.2753,1.2826,1.2826,1.282,1.2973,1.3127,1.32,1.3057,1.2839,1.3084,1.3064,1.12,1.1182,1.1049,1.1034,1.1059,1.0923,1.1042,1.1418,1.1785,1.2079,1.236,1.267,1.2753,1.2753,1.2893,1.29,1.2893,1.2753,1.269,1.2683,1.2543,1.2312,1.2018,1.185,1.1612,1.1339,1.1619,1.1766,1.1815,1.2242,1.2473,1.248,1.2622,1.2466,1.2176,1.2359,1.2188,1.1696,1.1459,1.1373,1.1373,1.129,1.1131,1.0957,1.11,1.1053,1.088,1.1213,1.139,1.139,1.1511,1.1672,1.184,1.1952,1.2056,1.2223,1.2334,1.2483,1.2697,1.3057,1.3339,1.3494,1.3511,1.3536,1.3579,1.3725,1.399,1.4375,1.4581,1.4857,1.5194,1.5035,1.4961,1.4903,1.4569,1.4274,1.4129,1.3985,1.3783,1.3564,1.3492,1.3492,1.3492,1.3492,1.3492,1.3499,1.3419,1.3346,1.3193,1.2966,1.282,1.2893,1.29,1.29,1.29,1.29,1.29,1.29,1.29,1.29,1.29,1.29,1.29,1.29,1.29,1.2973,1.3053,1.3046,1.32,1.3346,1.3346,1.3288,1.314,1.314,1.3162,1.1169,1.096,1.1026,1.0948,1.0884,1.1073,1.1326,1.1509,1.1882,1.2178,1.2431,1.2804,1.2966,1.298,1.3046,1.3046,1.3046,1.3039,1.3046,1.3046,1.3039,1.2891,1.2586,1.2331,1.202,1.1737,1.2041,1.2183,1.2197,1.2742,1.3046,1.3046,1.3193,1.3107,1.2805,1.2938,1.2687,1.213,1.1921,1.1766,1.163,1.1685,1.1628,1.139,1.1661,1.1657,1.1468,1.1741,1.1922,1.1914,1.1971,1.2134,1.2305,1.2305,1.2419,1.2646,1.2646,1.2774,1.3074,1.3348,1.3511,1.3511,1.3596,1.3768,1.4059,1.4264,1.4461,1.4778,1.5035,1.5352,1.5624,1.5497,1.5355,1.5275,1.4991,1.4633,1.4418,1.4274,1.4057,1.371,1.363,1.363,1.3564,1.3492,1.3492,1.3492,1.3492,1.3492,1.3419,1.3046,1.29,1.2973,1.2973,1.29,1.2973,1.3046,1.3046,1.3046,1.3046,1.3046,1.3046,1.3046,1.3046,1.3046,1.3046,1.3127,1.3273,1.3273,1.3346,1.3499,1.3492,1.3411,1.3214,1.3155,1.3199,1.0876,1.0848,1.0982,1.1094,1.1087,1.1339,1.1382,1.139,1.1909,1.233,1.2499,1.2999,1.3185,1.3193,1.3346,1.3419,1.3419,1.3419,1.3426,1.3419,1.3419,1.3251,1.2968,1.2895,1.2567,1.2123,1.2596,1.2727,1.2524,1.3113,1.3419,1.3426,1.3492,1.3338,1.3053,1.3016,1.2831,1.2447,1.2459,1.2172,1.1645,1.1872,1.2042,1.202,1.2251,1.2427,1.2348,1.2708,1.2874,1.2882,1.3151,1.3339,1.3331,1.3339,1.3339,1.3391,1.3391,1.3434,1.3451,1.3494,1.3511,1.3528,1.3836,1.405,1.4153,1.4718,1.5112,1.518,1.5197,1.5411,1.5745,1.5735,1.5735,1.5655,1.5355,1.5125,1.4982,1.4776,1.4418,1.4129,1.4065,1.392,1.3637,1.3564,1.3564,1.3564,1.3564,1.3564,1.3492,1.3346,1.3273,1.3273,1.2973,1.29,1.3273,1.3419,1.3419,1.3419,1.3419,1.3419,1.3346,1.3419,1.3426,1.3339,1.3419,1.3419,1.3419,1.3492,1.3492,1.3492,1.3492,1.3477,1.3448,1.3418,1.344,1.0996,1.0996,1.1059,1.1122,1.1269,1.1453,1.1551,1.1486,1.1913,1.2269,1.2495,1.2938,1.3165,1.3346,1.3492,1.3492,1.3492,1.3492,1.3492,1.3492,1.3492,1.3418,1.3294,1.3089,1.2855,1.2636,1.2892,1.3013,1.3247,1.3836,1.4137,1.4137,1.4137,1.406,1.3938,1.393,1.3662,1.3204,1.3173,1.2786,1.2243,1.2243,1.2367,1.2367,1.2613,1.2805,1.2797,1.3094,1.3277,1.3277,1.345,1.3511,1.3511,1.3511,1.3511,1.3511,1.3511,1.3511,1.3511,1.3511,1.3613,1.3836,1.3999,1.4273,1.4718,1.5043,1.53,1.5523,1.5557,1.5634,1.578,1.5805,1.5805,1.5805,1.5647,1.5434,1.5196,1.5062,1.4784,1.4489,1.4418,1.4346,1.4209,1.4137,1.4065,1.3928,1.3848,1.3775,1.3572,1.32,1.3127,1.3353,1.2973,1.29,1.3339,1.3492,1.3492,1.3492,1.3492,1.3492,1.3492,1.3492,1.3492,1.3492,1.3492,1.3492,1.3492,1.3492,1.3492,1.3492,1.3492,1.3492,1.3492,1.3492,1.3492,1.1122,1.1185,1.1247,1.131,1.1365,1.156,1.1622,1.1645,1.1809,1.2131,1.2533,1.2775,1.3111,1.3455,1.3492,1.3492,1.3492,1.3492,1.3564,1.3637,1.3637,1.371,1.3753,1.3543,1.3371,1.3382,1.3449,1.3628,1.3933,1.4356,1.4569,1.4569,1.4569,1.4569,1.4569,1.4569,1.4339,1.3926,1.3862,1.3639,1.3186,1.3089,1.2929,1.2699,1.2981,1.3164,1.3164,1.3398,1.3511,1.3511,1.3511,1.3511,1.3511,1.3511,1.3511,1.3511,1.3511,1.3511,1.3511,1.3613,1.3785,1.4076,1.4256,1.4624,1.5095,1.5317,1.5506,1.5737,1.5805,1.5797,1.5805,1.5805,1.5805,1.5805,1.5805,1.5655,1.5417,1.5355,1.5204,1.4856,1.4776,1.4705,1.4633,1.4569,1.4425,1.4281,1.4201,1.4129,1.3855,1.3484,1.3404,1.3702,1.3404,1.3266,1.3492,1.3492,1.3492,1.3492,1.3492,1.3492,1.3492,1.3492,1.3492,1.3492,1.3492,1.3492,1.3492,1.3492,1.3564,1.3492,1.3492,1.3564,1.3492,1.3492,1.3492,1.1303,1.1303,1.1498,1.1567,1.156,1.1622,1.1622,1.1622,1.1652,1.1941,1.2482,1.2548,1.2899,1.3557,1.3564,1.3492,1.3492,1.3564,1.3783,1.4065,1.4057,1.4281,1.4569,1.4545,1.4371,1.4073,1.4301,1.4434,1.4522,1.4625,1.4569,1.4649,1.4641,1.4641,1.4641,1.4713,1.46,1.4514,1.4542,1.4504,1.4518,1.4533,1.3983,1.3182,1.3294,1.3484,1.3467,1.345,1.3511,1.3511,1.3511,1.3511,1.3511,1.3511,1.3511,1.3511,1.3519,1.3528,1.3579,1.387,1.4101,1.4204,1.4735,1.5163,1.5266,1.554,1.5737,1.5805,1.5805,1.5805,1.5805,1.5805,1.5805,1.5805,1.5805,1.5805,1.5735,1.5726,1.5576,1.5284,1.5204,1.5062,1.4713,1.4569,1.4641,1.4633,1.4561,1.4569,1.4425,1.4418,1.4418,1.4418,1.4353,1.4289,1.371,1.3637,1.3637,1.363,1.3702,1.3557,1.3492,1.3492,1.3492,1.3564,1.3637,1.3637,1.3564,1.3564,1.3637,1.3637,1.371,1.3637,1.3783,1.3564,1.3637,1.149,1.149,1.156,1.1622,1.1622,1.1622,1.1622,1.1622,1.1817,1.2304,1.284,1.3117,1.3569,1.4217,1.4209,1.4065,1.392,1.4137,1.4281,1.4418,1.4425,1.4497,1.4569,1.4569,1.4585,1.4498,1.4577,1.4705,1.4999,1.5221,1.5363,1.5363,1.5363,1.5363,1.5363,1.5371,1.5258,1.4984,1.4942,1.4909,1.4735,1.4684,1.4473,1.4089,1.3953,1.3887,1.3879,1.3648,1.3511,1.3511,1.3511,1.3511,1.3511,1.3511,1.3511,1.3536,1.3742,1.3887,1.393,1.4256,1.4572,1.4804,1.5043,1.5334,1.5548,1.572,1.5805,1.5805,1.5805,1.5805,1.5805,1.5805,1.5805,1.5805,1.5805,1.5805,1.5805,1.5805,1.5735,1.5647,1.5576,1.5505,1.5363,1.5363,1.5284,1.5054,1.4982,1.4848,1.4641,1.4569,1.4641,1.4569,1.4569,1.4497,1.4281,1.4209,1.4209,1.4209,1.4209,1.4209,1.4137,1.4137,1.4137,1.4065,1.4065,1.4065,1.4065,1.4065,1.4065,1.4065,1.4072,1.4072,1.4217,1.4065,1.4065,1.1714,1.1699,1.1667,1.1622,1.1622,1.1685,1.1747,1.1809,1.2065,1.2561,1.3099,1.3462,1.3918,1.4426,1.4728,1.4705,1.4489,1.4561,1.4641,1.4776,1.4776,1.4856,1.4999,1.4999,1.4999,1.4999,1.5007,1.515,1.5363,1.5655,1.5805,1.5805,1.5805,1.5805,1.5805,1.5805,1.5651,1.5446,1.5472,1.5411,1.5186,1.5236,1.5236,1.5184,1.4854,1.4521,1.429,1.4024,1.3881,1.3778,1.376,1.3761,1.3657,1.3813,1.3874,1.3909,1.4256,1.4473,1.4516,1.4837,1.5158,1.5392,1.5471,1.567,1.5912,1.5938,1.5929,1.5929,1.5929,1.5938,1.5867,1.5867,1.5867,1.5805,1.5805,1.5805,1.5805,1.5805,1.5805,1.5805,1.5805,1.5805,1.5805,1.5805,1.5655,1.5426,1.5355,1.5284,1.5078,1.5007,1.4999,1.5007,1.507,1.5078,1.5007,1.5007,1.4649,1.4569,1.4569,1.4641,1.4713,1.4641,1.4641,1.4641,1.4641,1.4569,1.4569,1.4569,1.4641,1.4641,1.4497,1.4353,1.4497,1.4569,1.4569,1.2043,1.1999,1.1762,1.1737,1.1799,1.2041,1.2143,1.2127,1.2359,1.2711,1.3155,1.3418,1.3878,1.4263,1.4849,1.5171,1.5084,1.4832,1.4919,1.5204,1.5196,1.5355,1.5655,1.5664,1.5664,1.5655,1.5735,1.5735,1.5735,1.5805,1.5805,1.5805,1.5805,1.5876,1.5805,1.5876,1.5797,1.5824,1.5939,1.6079,1.6123,1.6114,1.6166,1.6166,1.5907,1.5428,1.4792,1.4724,1.4564,1.4334,1.4282,1.4223,1.4153,1.4409,1.4577,1.4639,1.4959,1.5171,1.5225,1.5544,1.5765,1.5795,1.612,1.6167,1.6123,1.6211,1.6202,1.6132,1.6202,1.6202,1.6132,1.6061,1.6,1.5805,1.5805,1.5805,1.5805,1.5805,1.5805,1.5805,1.5805,1.5805,1.5805,1.5805,1.5735,1.5735,1.5735,1.5726,1.5593,1.5593,1.5726,1.5735,1.5584,1.5513,1.5664,1.5735,1.53,1.4864,1.4856,1.4856,1.4927,1.4927,1.4927,1.4927,1.4999,1.4927,1.4999,1.4999,1.4927,1.4927,1.4784,1.4784,1.4856,1.4935,1.4856,1.2498,1.2749,1.2651,1.2592,1.2663,1.2775,1.2649,1.2436,1.2736,1.3062,1.3435,1.3766,1.4154,1.453,1.5018,1.5187,1.5204,1.53,1.5505,1.5576,1.5584,1.5655,1.5805,1.5805,1.5805,1.5805,1.5805,1.5805,1.5805,1.5805,1.5867,1.6,1.6,1.607,1.614,1.614,1.614,1.614,1.6211,1.6202,1.6281,1.6281,1.6272,1.6263,1.6218,1.6033,1.5764,1.5349,1.5015,1.4947,1.4939,1.4877,1.4861,1.4932,1.4994,1.5038,1.5366,1.5646,1.569,1.5925,1.6138,1.6173,1.628,1.6263,1.6272,1.6281,1.6272,1.6281,1.6281,1.6272,1.6272,1.6272,1.614,1.5876,1.5805,1.5805,1.5805,1.5805,1.5805,1.5805,1.5805,1.5805,1.5805,1.5805,1.5831,1.5831,1.5831,1.5831,1.5831,1.584,1.5805,1.5805,1.5805,1.5814,1.5805,1.5805,1.5593,1.53,1.5221,1.515,1.5221,1.5221,1.5292,1.5292,1.5292,1.5292,1.5363,1.5363,1.5292,1.5363,1.5371,1.5371,1.5443,1.5371,1.5221,1.3059,1.3489,1.3372,1.3325,1.3308,1.3316,1.3131,1.2921,1.3091,1.335,1.3613,1.3907,1.4307,1.4701,1.5052,1.53,1.5446,1.5773,1.5938,1.5867,1.5797,1.5805,1.5805,1.5805,1.5805,1.5805,1.5867,1.5938,1.5938,1.5938,1.607,1.614,1.6202,1.6202,1.6272,1.6272,1.6272,1.6272,1.6412,1.6403,1.6403,1.6482,1.6551,1.656,1.6551,1.6482,1.6515,1.6057,1.5752,1.5534,1.5465,1.5375,1.5384,1.5501,1.5599,1.568,1.5941,1.6251,1.621,1.6399,1.6551,1.6551,1.6551,1.6482,1.6482,1.6482,1.6482,1.6403,1.6482,1.6491,1.6412,1.6403,1.6272,1.6008,1.6008,1.6008,1.6008,1.5938,1.5938,1.5938,1.5867,1.5805,1.5805,1.5951,1.5977,1.6002,1.6011,1.6105,1.6088,1.5977,1.5925,1.5874,1.5874,1.5857,1.5814,1.5805,1.5805,1.5735,1.5664,1.5664,1.5584,1.5584,1.5593,1.5593,1.5584,1.5584,1.5584,1.5655,1.5655,1.5805,1.5805,1.5735,1.5664,1.5664,1.5584,1.3551,1.4162,1.3918,1.3749,1.3735,1.3712,1.3633,1.3517,1.3481,1.3493,1.3665,1.3956,1.4307,1.4692,1.5119,1.5446,1.5773,1.5974,1.6061,1.607,1.5938,1.5867,1.5867,1.5876,1.5876,1.5867,1.6,1.607,1.614,1.6211,1.6272,1.6351,1.6342,1.6342,1.6412,1.6342,1.6342,1.6412,1.6542,1.6612,1.6612,1.676,1.6899,1.6839,1.6839,1.6839,1.6811,1.6748,1.6524,1.6129,1.5896,1.5816,1.5863,1.6138,1.6282,1.63,1.6707,1.6766,1.689,1.6811,1.683,1.6839,1.683,1.683,1.6682,1.676,1.676,1.6612,1.676,1.676,1.6682,1.6612,1.6542,1.6412,1.6281,1.6272,1.6272,1.6132,1.614,1.607,1.5938,1.5876,1.5885,1.6117,1.6237,1.6208,1.628,1.6375,1.6379,1.6156,1.6045,1.5968,1.5891,1.5928,1.5867,1.5805,1.5805,1.5867,1.5876,1.5805,1.5805,1.5805,1.5805,1.5805,1.5805,1.5805,1.5805,1.5805,1.5805,1.5805,1.5805,1.5805,1.5805,1.5805,1.5805,1.4242,1.4874,1.4547,1.4379,1.4429,1.4416,1.4069,1.3576,1.3518,1.3716,1.3922,1.405,1.4388,1.4872,1.5262,1.5565,1.5859,1.6087,1.6272,1.6202,1.6211,1.614,1.614,1.607,1.607,1.6132,1.6202,1.6281,1.6272,1.6342,1.6403,1.6542,1.6542,1.6612,1.67,1.67,1.6769,1.676,1.676,1.683,1.683,1.683,1.6908,1.6908,1.6908,1.6908,1.6908,1.6908,1.6872,1.6693,1.6592,1.6587,1.6551,1.6661,1.6716,1.6743,1.6826,1.6908,1.6908,1.6908,1.6908,1.6908,1.6908,1.6899,1.683,1.6839,1.6908,1.683,1.6908,1.6908,1.683,1.683,1.6769,1.6691,1.6482,1.6342,1.6342,1.6272,1.6272,1.6272,1.6202,1.614,1.6167,1.6254,1.627,1.6208,1.6234,1.6286,1.6396,1.6177,1.5979,1.5882,1.5831,1.5947,1.5929,1.5867,1.5867,1.5929,1.5938,1.5805,1.5805,1.5805,1.5805,1.5805,1.5805,1.5805,1.5805,1.5805,1.5805,1.5805,1.5805,1.5805,1.5805,1.5805,1.5805,1.4805,1.5409,1.5208,1.5145,1.5137,1.4975,1.4706,1.4383,1.4176,1.4299,1.4499,1.4597,1.4798,1.5287,1.5534,1.5795,1.6023,1.6305,1.6403,1.6403,1.6403,1.6412,1.6272,1.6202,1.6211,1.6272,1.6412,1.6412,1.6482,1.6482,1.6621,1.6682,1.6751,1.6751,1.6839,1.6908,1.6908,1.6908,1.6908,1.6908,1.6908,1.6908,1.6908,1.6908,1.6908,1.6908,1.6908,1.6908,1.6908,1.6899,1.6899,1.6908,1.6908,1.6908,1.6908,1.6908,1.6908,1.6908,1.6908,1.6908,1.6908,1.6908,1.6908,1.6908,1.6908,1.6908,1.6908,1.6908,1.6908,1.6908,1.6908,1.6908,1.6908,1.683,1.6691,1.656,1.6551,1.6482,1.6412,1.6412,1.6342,1.6272,1.6281,1.6466,1.6484,1.6465,1.6518,1.656,1.6593,1.6217,1.6052,1.6016,1.5964,1.6,1.607,1.6,1.6,1.607,1.607,1.5938,1.5876,1.5876,1.5805,1.5805,1.5805,1.5805,1.5805,1.5805,1.5805,1.5805,1.5805,1.5805,1.5805,1.5805,1.5805,1.5118,1.5797,1.5762,1.5745,1.5643,1.536,1.5247,1.5321,1.4972,1.5024,1.5177,1.5242,1.5464,1.5877,1.594,1.6082,1.6394,1.6533,1.6594,1.6612,1.6612,1.6551,1.6412,1.6333,1.6421,1.6412,1.6542,1.6603,1.6682,1.683,1.6908,1.6908,1.6899,1.6908,1.6908,1.6908,1.6908,1.6908,1.6908,1.6908,1.6908,1.6908,1.6908,1.6908,1.6908,1.6908,1.6908,1.6908,1.6908,1.6908,1.6908,1.6908,1.6908,1.6908,1.6908,1.6908,1.6908,1.6908,1.6908,1.6908,1.6908,1.6908,1.6908,1.6908,1.6908,1.6908,1.6908,1.6908,1.6908,1.6908,1.6908,1.6908,1.6908,1.6908,1.6908,1.6908,1.6839,1.676,1.6603,1.6603,1.6482,1.6342,1.6431,1.6608,1.6821,1.6617,1.6608,1.6599,1.6571,1.6404,1.6369,1.6474,1.636,1.6202,1.6202,1.6211,1.6202,1.6202,1.6202,1.614,1.6008,1.5938,1.5867,1.5867,1.5938,1.5876,1.5805,1.5805,1.5805,1.5805,1.5805,1.5805,1.5805,1.5805,1.5805,1.5121,1.578,1.5471,1.5412,1.5549,1.5462,1.5414,1.5283,1.5186,1.5402,1.5588,1.5632,1.599,1.6399,1.6381,1.6549,1.676,1.6839,1.683,1.683,1.683,1.683,1.67,1.6621,1.6621,1.6691,1.6769,1.683,1.6839,1.6839,1.6908,1.6908,1.6908,1.6908,1.6908,1.6908,1.6908,1.6908,1.6908,1.6908,1.6908,1.6908,1.6908,1.6908,1.6908,1.6908,1.6908,1.6908,1.6908,1.6908,1.6908,1.6908,1.6908,1.6908,1.6908,1.6908,1.6908,1.6908,1.6908,1.6908,1.6908,1.6908,1.6908,1.6908,1.6908,1.6908,1.6908,1.6908,1.6908,1.6908,1.6908,1.6908,1.6908,1.6908,1.6908,1.6908,1.6908,1.683,1.683,1.683,1.676,1.676,1.6769,1.6754,1.6854,1.6756,1.6713,1.666,1.6634,1.6598,1.6783,1.7076,1.6985,1.6881,1.6941,1.7019,1.695,1.695,1.6881,1.6821,1.6682,1.6482,1.6551,1.6342,1.607,1.6008,1.6008,1.5805,1.5867,1.5805,1.5805,1.5805,1.5805,1.5805,1.5947,1.5402,1.5974,1.5765,1.5765,1.5834,1.5834,1.5848,1.5882,1.5856,1.604,1.6269,1.6305,1.6501,1.6742,1.6751,1.6821,1.6908,1.6908,1.6908,1.6908,1.6908,1.6908,1.6908,1.683,1.683,1.6908,1.6908,1.6908,1.6908,1.6908,1.6908,1.6908,1.6908,1.6908,1.6908,1.6908,1.6908,1.6908,1.6908,1.6908,1.6908,1.6908,1.6908,1.6908,1.6908,1.6908,1.6908,1.6908,1.6908,1.6908,1.6908,1.6908,1.6908,1.6908,1.6908,1.6908,1.6908,1.6908,1.6908,1.6908,1.6908,1.6908,1.6908,1.6908,1.6908,1.6908,1.6908,1.6908,1.6908,1.6908,1.6908,1.6908,1.6908,1.6908,1.6908,1.6908,1.6908,1.6908,1.6908,1.6908,1.6908,1.6908,1.6908,1.6908,1.6917,1.6833,1.6894,1.6912,1.7379,1.7411,1.7598,1.7773,1.7676,1.7687,1.7823,1.7891,1.7891,1.7959,1.8037,1.7959,1.7891,1.7628,1.7364,1.6959,1.6473,1.6342,1.6342,1.614,1.5929,1.5938,1.5938,1.5876,1.5876,1.5938,1.614,1.5771,1.6184,1.6245,1.6351,1.6342,1.6333,1.6446,1.6585,1.6682,1.6669,1.6899,1.6908,1.6802,1.6908,1.6908,1.6908,1.6908,1.6908,1.6908,1.6908,1.6908,1.6908,1.6908,1.6899,1.6899,1.6908,1.6908,1.6908,1.6908,1.6908,1.6908,1.6908,1.6908,1.6908,1.6908,1.6908,1.6908,1.6908,1.6908,1.6908,1.6908,1.6908,1.6908,1.6908,1.6908,1.6908,1.6908,1.6908,1.6908,1.6908,1.6908,1.6908,1.6908,1.6908,1.6908,1.6908,1.6908,1.6908,1.6908,1.6908,1.6908,1.6908,1.6908,1.6908,1.6908,1.6908,1.6908,1.6908,1.6908,1.6908,1.6908,1.6908,1.6908,1.6908,1.6908,1.6908,1.6908,1.6908,1.6908,1.6908,1.6908,1.6908,1.6908,1.6908,1.6908,1.6908,1.7038,1.7235,1.7765,1.8172,1.8375,1.8365,1.8297,1.8297,1.8365,1.8499,1.8566,1.8633,1.8844,1.8834,1.89,1.8767,1.8297,1.7354,1.695,1.695,1.6742,1.6542,1.6342,1.6202,1.6272,1.6403,1.6342,1.6211,1.6482,1.5499,1.5804,1.6131,1.6403,1.6533,1.6542,1.6682,1.683,1.683,1.6839,1.6908,1.6908,1.6908,1.6908,1.6908,1.6908,1.6908,1.6908,1.6908,1.6908,1.6908,1.6908,1.6908,1.6908,1.6908,1.6908,1.6908,1.6908,1.6908,1.6908,1.6908,1.6908,1.6908,1.6908,1.6908,1.6908,1.6908,1.6908,1.6908,1.6908,1.6908,1.6908,1.6908,1.6908,1.6908,1.6908,1.6908,1.6908,1.6908,1.6908,1.6908,1.6908,1.6908,1.6908,1.6908,1.6908,1.6908,1.6908,1.6908,1.6908,1.6908,1.6908,1.6908,1.6908,1.6908,1.6908,1.6908,1.6908,1.6908,1.6978,1.6908,1.7038,1.6978,1.6908,1.6968,1.6978,1.6978,1.6908,1.6968,1.7038,1.6968,1.6908,1.6908,1.6978,1.7038,1.7166,1.7432,1.7765,1.8307,1.871,1.8911,1.89,1.89,1.8834,1.89,1.8967,1.9034,1.9166,1.9309,1.9309,1.9431,1.9704,1.9299,1.8355,1.7891,1.7823,1.755,1.7148,1.695,1.6881,1.701,1.7139,1.7139,1.7139,1.7628,1.5599,1.6062,1.6459,1.6691,1.676,1.6751,1.683,1.6908,1.6908,1.6908,1.6908,1.6908,1.6908,1.6908,1.6908,1.6908,1.6908,1.6908,1.6908,1.6908,1.6908,1.6908,1.6908,1.6908,1.6908,1.6908,1.6908,1.6908,1.6908,1.6908,1.6908,1.6908,1.6908,1.6908,1.6908,1.6908,1.6908,1.6908,1.6908,1.6908,1.6908,1.6908,1.6908,1.6908,1.6908,1.6908,1.6908,1.6908,1.6908,1.6908,1.6908,1.6908,1.6908,1.6908,1.6908,1.6908,1.6908,1.6908,1.6908,1.6908,1.6908,1.6908,1.6908,1.6908,1.6908,1.6908,1.6908,1.6968,1.7304,1.7304,1.6968,1.751,1.7569,1.7107,1.7235,1.7432,1.7373,1.7166,1.7235,1.7364,1.7166,1.7038,1.6908,1.6978,1.7107,1.7432,1.7833,1.8297,1.89,1.9233,1.9639,1.9835,1.9835,1.9835,1.9835,1.977,1.977,1.9835,1.9846,1.9901,2.0031,2.0366,2.0031,1.9365,1.91,1.889,1.8489,1.8094,1.7891,1.7628,1.7823,1.8017,1.8075,1.8277,1.869,1.5816,1.623,1.6707,1.6908,1.6908,1.6908,1.6908,1.6908,1.6908,1.6908,1.6908,1.6908,1.6908,1.6908,1.6908,1.6908,1.6908,1.6908,1.6908,1.6978,1.7107,1.7176,1.7176,1.7235,1.7382,1.7245,1.7245,1.7047,1.6908,1.6908,1.6908,1.6908,1.6908,1.6908,1.6908,1.6908,1.6908,1.6908,1.6908,1.6908,1.6908,1.6908,1.6908,1.6908,1.6908,1.6908,1.6908,1.6908,1.6908,1.6908,1.6908,1.6908,1.6908,1.6908,1.6908,1.6908,1.6908,1.6908,1.6908,1.6908,1.6908,1.6908,1.6908,1.6908,1.6908,1.6908,1.6968,1.7166,1.7569,1.7901,1.7706,1.8317,1.8307,1.791,1.791,1.8172,1.8037,1.7901,1.791,1.7774,1.7501,1.7364,1.7373,1.7373,1.7569,1.8172,1.8633,1.9034,1.9562,2.0031,2.0431,2.0775,2.0903,2.0903,2.0903,2.0775,2.07,2.0635,2.0635,2.0635,2.0839,2.1042,2.0571,2.0107,2.0172,1.9966,1.9507,1.9034,1.8767,1.8633,1.8767,1.89,1.8957,1.9288,1.9694,1.5716,1.5835,1.6587,1.6908,1.6908,1.6908,1.6908,1.6908,1.6908,1.6908,1.6908,1.6908,1.6908,1.6908,1.6908,1.6908,1.6908,1.6908,1.6908,1.6978,1.7364,1.7706,1.791,1.8509,1.823,1.7969,1.7901,1.751,1.7235,1.7107,1.6908,1.6908,1.6908,1.6908,1.6908,1.6908,1.6908,1.6908,1.6908,1.6908,1.6908,1.6908,1.6908,1.6908,1.6908,1.6908,1.6908,1.6908,1.6908,1.6908,1.6908,1.6908,1.6908,1.6908,1.6908,1.6908,1.6908,1.6908,1.6908,1.6908,1.6978,1.7047,1.7047,1.6908,1.7107,1.7176,1.7373,1.7842,1.8027,1.823,1.8509,1.8911,1.8911,1.8777,1.871,1.8844,1.8844,1.8499,1.8442,1.8576,1.8365,1.823,1.8162,1.8104,1.8172,1.8767,1.9365,1.9759,2.0161,2.056,2.0828,2.1106,2.1233,2.1233,2.1233,2.1233,2.1233,2.1233,2.1233,2.1233,2.1233,2.1233,2.1233,2.0903,2.0967,2.0635,1.9977,1.9573,1.9507,1.9573,1.9628,1.977,1.9901,2.0237,2.0495,1.5698,1.6092,1.667,1.6908,1.6908,1.6908,1.6908,1.6908,1.6908,1.6908,1.6908,1.6908,1.6908,1.6908,1.6908,1.6908,1.6908,1.6908,1.6908,1.6908,1.7304,1.7687,1.8085,1.8422,1.8479,1.888,1.8813,1.8813,1.8152,1.7373,1.6908,1.6978,1.6908,1.6908,1.6908,1.6908,1.6908,1.6908,1.6908,1.6908,1.6908,1.6908,1.6908,1.6908,1.6908,1.6908,1.6908,1.6908,1.6908,1.6908,1.6908,1.6908,1.6908,1.6908,1.6968,1.7107,1.6978,1.6908,1.6908,1.6908,1.7107,1.7442,1.7569,1.7706,1.7978,1.8046,1.8104,1.8509,1.8967,1.9166,1.9299,1.977,1.9573,1.9441,1.9441,1.9573,1.9507,1.911,1.8967,1.9166,1.9299,1.9166,1.8967,1.89,1.8967,1.9497,1.9901,2.0161,2.056,2.0892,2.1094,2.1169,2.1233,2.1233,2.1233,2.1233,2.1233,2.1233,2.1233,2.1233,2.1233,2.1233,2.1233,2.1233,2.1106,2.0711,2.0237,2.0237,2.0377,2.0431,2.0495,2.0482,2.0415,2.0677,2.088,1.5761,1.6464,1.6668,1.6784,1.6959,1.6858,1.6817,1.6908,1.6908,1.6908,1.6908,1.6968,1.6968,1.6968,1.6978,1.7047,1.7047,1.6978,1.7047,1.7047,1.7314,1.7891,1.8489,1.8813,1.9278,1.9792,1.9738,1.953,1.9013,1.8355,1.7628,1.7235,1.7304,1.7107,1.6908,1.6908,1.6908,1.6908,1.6908,1.6908,1.6908,1.6908,1.6908,1.6908,1.6908,1.6908,1.6908,1.6908,1.6908,1.6908,1.6908,1.6908,1.6968,1.7038,1.7235,1.7432,1.7501,1.7569,1.7569,1.7569,1.7569,1.7833,1.824,1.8442,1.8777,1.9044,1.9177,1.9243,1.9639,1.9704,1.9901,2.0624,2.0431,2.0237,2.0107,2.0237,2.0302,1.9966,1.9835,2.0096,2.0226,2.0096,1.9966,1.9759,1.9901,2.0237,2.0495,2.0635,2.0903,2.1158,2.1169,2.1233,2.1233,2.1233,2.1233,2.1233,2.1233,2.1233,2.1233,2.1233,2.1233,2.1233,2.1233,2.1233,2.1233,2.1042,2.0711,2.0967,2.1169,2.0985,2.0778,2.0757,2.0785,2.0997,2.1032,1.6069,1.6741,1.6402,1.6637,1.7148,1.6689,1.6696,1.6968,1.6908,1.6978,1.6978,1.7107,1.7176,1.7176,1.7176,1.7245,1.7392,1.7235,1.7254,1.7598,1.8124,1.8566,1.9222,1.9748,2.0291,2.0526,2.059,2.0257,1.9727,1.9672,1.887,1.821,1.8085,1.7569,1.7245,1.7176,1.6968,1.6968,1.6978,1.7038,1.7038,1.7038,1.7107,1.7038,1.6978,1.6908,1.6908,1.7038,1.7107,1.7107,1.7107,1.7304,1.7501,1.7501,1.7833,1.823,1.8365,1.8489,1.868,1.8355,1.8027,1.8162,1.8633,1.9243,1.9507,1.9177,1.9375,1.9977,2.0366,2.0495,2.0764,2.1106,2.1031,2.0903,2.07,2.0764,2.0892,2.0903,2.0828,2.1031,2.0955,2.0764,2.07,2.0495,2.0431,2.0764,2.0839,2.0967,2.0967,2.1169,2.1233,2.1233,2.1233,2.1233,2.1233,2.1233,2.1233,2.1233,2.1233,2.1233,2.1233,2.1233,2.1233,2.1233,2.1233,2.1233,2.1233,2.1233,2.121,2.1106,2.0951,2.0894,2.0791,2.0825,2.0791,1.5731,1.6345,1.6201,1.6651,1.7373,1.7222,1.7173,1.7245,1.7254,1.7254,1.7254,1.7314,1.7392,1.7382,1.7382,1.7392,1.7461,1.7392,1.747,1.7539,1.7862,1.8643,1.9354,2.0074,2.0526,2.1325,2.1526,2.1526,2.1262,2.0858,2.0515,1.9922,1.9278,1.8824,1.8365,1.7774,1.7442,1.7166,1.7373,1.7569,1.7638,1.8037,1.8172,1.8172,1.8182,1.7978,1.7774,1.7628,1.7696,1.7765,1.7765,1.8027,1.8345,1.8489,1.8757,1.9212,1.9212,1.941,1.9596,1.9278,1.9135,1.9672,2.0215,2.056,2.0431,2.0571,2.0711,2.1031,2.1031,2.1169,2.121,2.1423,2.1434,2.1296,2.1233,2.1285,2.1285,2.1296,2.1233,2.1221,2.1221,2.1106,2.1106,2.1106,2.1106,2.1169,2.1169,2.1233,2.1244,2.1244,2.1308,2.1296,2.1296,2.1233,2.1221,2.1233,2.1233,2.1233,2.1233,2.1233,2.1233,2.1221,2.1221,2.1233,2.1175,2.1043,2.1043,2.1198,2.1164,2.0974,2.0986,2.1032,2.0894,2.063,2.063,1.5555,1.6105,1.6125,1.6612,1.735,1.7417,1.7425,1.7461,1.7461,1.7461,1.7461,1.7529,1.7529,1.7529,1.7529,1.7598,1.7598,1.7598,1.7598,1.7666,1.7872,1.8576,1.942,2.0139,2.073,2.1862,2.2197,2.2061,2.1999,2.2011,2.1663,2.1112,2.0655,2.0139,1.9145,1.8757,1.8172,1.7901,1.8094,1.8432,1.8499,1.8834,1.91,1.909,1.9034,1.89,1.8633,1.8556,1.8556,1.869,1.8747,1.8936,1.9333,1.9661,1.9792,1.9987,2.0117,2.0128,2.0322,2.0128,2.0193,2.0741,2.1158,2.1509,2.171,2.171,2.1509,2.1572,2.1635,2.1635,2.1474,2.1561,2.1635,2.1498,2.1498,2.1486,2.1423,2.1434,2.136,2.1285,2.1285,2.1296,2.1221,2.1285,2.1285,2.136,2.1423,2.1434,2.1434,2.1446,2.1446,2.1423,2.1348,2.1285,2.1273,2.1221,2.1233,2.1233,2.1233,2.1221,2.1221,2.1175,2.1026,2.095,2.0904,2.0887,2.0756,2.0715,2.0756,2.0871,2.0802,2.0641,2.0308,2.0067,2.0458,1.5654,1.6105,1.6115,1.649,1.7033,1.711,1.7274,1.7453,1.752,1.7539,1.7529,1.7657,1.7716,1.7716,1.7725,1.7794,1.7872,1.7794,1.7794,1.7881,1.794,1.8787,1.9573,2.0226,2.0805,2.1862,2.2197,2.2197,2.2197,2.2135,2.2061,2.2061,2.1651,2.1049,1.9672,1.9475,1.9354,1.9299,1.9344,1.9344,1.9354,1.9552,1.9748,1.9748,1.9814,1.9748,1.9552,1.941,1.9475,1.9541,1.953,1.9727,2.0063,2.0128,2.0386,2.0985,2.0996,2.1325,2.1925,2.106,2.1071,2.1474,2.1761,2.1761,2.1761,2.1761,2.1761,2.1824,2.1773,2.1761,2.1698,2.1698,2.1698,2.1635,2.1624,2.1624,2.1624,2.1561,2.1498,2.1423,2.1411,2.14,2.1336,2.1336,2.14,2.1474,2.1612,2.1624,2.1635,2.1635,2.1572,2.1572,2.1486,2.1423,2.1423,2.1285,2.1233,2.1233,2.1296,2.136,2.1197,2.1012,2.085,2.0737,2.0586,2.0468,2.0292,2.0056,2.0174,2.0257,2.0208,1.9987,1.9643,1.97,2.0251,1.5488,1.5654,1.6007,1.623,1.6471,1.6689,1.7067,1.7407,1.7668,1.7803,1.7803,1.7872,1.7862,1.7862,1.793,1.8008,1.8008,1.8008,1.8008,1.8008,1.8076,1.8921,1.9704,2.0355,2.0892,2.1862,2.2197,2.2197,2.2197,2.2197,2.2197,2.2197,2.2123,2.1526,2.0719,2.0257,1.9998,1.9607,1.9868,2.0204,2.0215,2.0613,2.088,2.088,2.088,2.0677,2.0409,2.0333,2.0333,2.0462,2.0462,2.0655,2.1123,2.125,2.1388,2.1788,2.1788,2.1925,2.2123,2.1788,2.18,2.1949,2.2011,2.2011,2.2011,2.2011,2.2011,2.1999,2.2011,2.1949,2.1874,2.1999,2.1937,2.1749,2.1686,2.1749,2.1686,2.1698,2.1635,2.1635,2.1624,2.1561,2.1549,2.1537,2.16,2.1663,2.1749,2.1749,2.1698,2.1698,2.1635,2.1635,2.1635,2.1624,2.1561,2.1498,2.1434,2.1434,2.1509,2.1572,2.135,2.0927,2.0766,2.0651,2.0322,2.0006,1.9843,1.9738,1.9633,1.9598,1.968,1.984,1.9851,2.0035,2.0446,1.542,1.5449,1.5713,1.584,1.5957,1.6631,1.7207,1.7598,1.7891,1.8008,1.8076,1.8202,1.8327,1.8395,1.8596,1.8462,1.8395,1.8664,1.8462,1.8462,1.8664,1.9507,2.0161,2.0462,2.1198,2.1925,2.2185,2.2197,2.2197,2.2197,2.2197,2.2197,2.2197,2.1862,2.1388,2.1187,2.0996,2.073,2.0933,2.1123,2.121,2.1474,2.1812,2.1812,2.1749,2.1675,2.1411,2.1262,2.1187,2.1388,2.1463,2.1588,2.2061,2.2197,2.2197,2.2197,2.2197,2.2197,2.2185,2.2123,2.2061,2.2135,2.2197,2.2197,2.2197,2.2135,2.2135,2.2197,2.2197,2.2123,2.2061,2.2185,2.2061,2.1874,2.1874,2.1874,2.1874,2.1886,2.1824,2.1824,2.1761,2.1761,2.1761,2.1812,2.1862,2.1874,2.1937,2.1886,2.1824,2.1824,2.1812,2.1824,2.1824,2.1749,2.1749,2.1698,2.1635,2.171,2.1698,2.1749,2.1228,2.084,2.07,2.0405,1.9887,1.9521,1.95,1.9418,1.9427,1.9453,1.9494,1.9738,1.9968,2.0326,2.0684,1.541,1.54,1.541,1.5488,1.5694,1.6815,1.7527,1.7881,1.792,1.791,1.792,1.8435,1.8573,1.892,1.9532,1.9413,1.8979,1.9468,1.924,1.9055,1.9026,1.9995,2.0486,2.0785,2.1151,2.1768,2.2161,2.2197,2.2197,2.2197,2.2197,2.2197,2.2197,2.2061,2.1987,2.1913,2.1788,2.1663,2.1663,2.1788,2.18,2.1999,2.2073,2.2073,2.2073,2.2061,2.1937,2.1925,2.1999,2.2061,2.2123,2.2123,2.2197,2.2197,2.2197,2.2197,2.2197,2.2197,2.2197,2.2197,2.2197,2.2197,2.2197,2.2197,2.2197,2.2197,2.2197,2.2197,2.2197,2.2197,2.2197,2.2197,2.2197,2.2135,2.2135,2.2135,2.2135,2.2123,2.2061,2.1999,2.1937,2.1937,2.1937,2.1999,2.1999,2.2061,2.2073,2.2073,2.2073,2.2073,2.2073,2.2073,2.1999,2.1937,2.1874,2.1886,2.1824,2.1886,2.18,2.1779,2.1209,2.0854,2.0764,2.0431,1.9395,1.9108,1.9558,1.9588,1.9383,1.9459,1.9737,1.9559,1.9807,2.0451,2.0848,1.6026,1.6083,1.6472,1.6415,1.6185,1.6799,1.6938,1.6713,1.6934,1.71,1.71,1.7283,1.7866,1.8029,1.8207,1.8553,1.874,1.8843,1.876,1.8814,1.8858,1.9258,1.9655,2.0177,2.0673,2.1448,2.1957,2.2149,2.2197,2.2197,2.2197,2.2197,2.2197,2.2197,2.2197,2.2197,2.2123,2.2123,2.2185,2.2123,2.2135,2.2123,2.2197,2.2197,2.2197,2.2197,2.2197,2.2197,2.2197,2.2197,2.2197,2.2197,2.2197,2.2197,2.2197,2.2197,2.2197,2.2197,2.2197,2.2197,2.2197,2.2197,2.2197,2.2197,2.2197,2.2197,2.2197,2.2197,2.2197,2.2197,2.2197,2.2197,2.2197,2.2197,2.2197,2.2197,2.2197,2.2197,2.2123,2.2123,2.2061,2.2061,2.2061,2.2061,2.2123,2.2197,2.2197,2.2197,2.2197,2.2197,2.2197,2.2197,2.2197,2.2061,2.2123,2.2123,2.2061,2.2061,2.2149,2.2128,2.1795,2.144,2.1088,2.0594,1.9902,1.9874,2.0169,2.0053,1.9812,2.0097,2.0313,1.9855,1.9725,2.038,2.0878,1.6708,1.6698,1.7034,1.6978,1.674,1.6948,1.6842,1.6614,1.6878,1.7034,1.7096,1.7429,1.7822,1.8466,1.878,1.8961,1.8961,1.9377,1.9377,1.9006,1.8671,1.9463,1.9803,1.9918,2.0567,2.1248,2.1704,2.1945,2.2113,2.2197,2.2197,2.2197,2.2197,2.2197,2.2197,2.2197,2.2197,2.2197,2.2197,2.2197,2.2197,2.2197,2.2197,2.2197,2.2197,2.2197,2.2197,2.2197,2.2197,2.2197,2.2197,2.2197,2.2197,2.2197,2.2197,2.2197,2.2197,2.2197,2.2197,2.2197,2.2197,2.2197,2.2197,2.2197,2.2197,2.2197,2.2197,2.2197,2.2197,2.2197,2.2197,2.2197,2.2197,2.2197,2.2197,2.2197,2.2197,2.2197,2.2197,2.2197,2.2197,2.2197,2.2197,2.2197,2.2197,2.2197,2.2197,2.2197,2.2197,2.2197,2.2197,2.2197,2.2197,2.2135,2.2247,2.242,2.2531,2.2702,2.298,2.2858,2.2471,2.1941,2.1514,2.1133,2.0693,2.0651,2.061,2.056,2.0436,2.0718,2.0758,2.0384,2.0163,2.0342,2.0696,1.7379,1.7257,1.7257,1.7302,1.7268,1.7279,1.7234,1.7244,1.7469,1.7564,1.7655,1.8223,1.8625,1.8857,1.9345,1.9425,1.9437,1.9678,1.9597,1.9423,1.9414,1.9747,1.9977,2.0469,2.0463,2.1009,2.15,2.1777,2.2101,2.2197,2.2197,2.2197,2.2197,2.2197,2.2197,2.2197,2.2197,2.2197,2.2197,2.2197,2.2197,2.2197,2.2197,2.2197,2.2197,2.2197,2.2197,2.2197,2.2197,2.2197,2.2197,2.2197,2.2197,2.2197,2.2197,2.2197,2.2197,2.2197,2.2197,2.2197,2.2197,2.2197,2.2197,2.2197,2.2197,2.2197,2.2197,2.2197,2.2197,2.2197,2.2197,2.2197,2.2197,2.2197,2.2197,2.2197,2.2197,2.2197,2.2197,2.2197,2.2197,2.2197,2.2197,2.2197,2.2197,2.2197,2.2197,2.2197,2.2197,2.2197,2.2185,2.2185,2.2197,2.2247,2.2531,2.2702,2.298,2.3267,2.3598,2.3327,2.2711,2.2284,2.1917,2.1568,2.1247,2.1073,2.0957,2.1099,2.1255,2.1286,2.1276,2.093,2.0772,2.0824,2.081,1.805,1.805,1.7929,1.7875,1.7875,1.7875,1.7644,1.7268,1.7757,1.7765,1.7391,1.7527,1.7946,1.8642,1.8832,1.8943,1.925,1.9436,1.9299,1.9061,1.9097,1.9392,1.9364,1.9574,1.9966,2.0626,2.1175,2.1596,2.1993,2.2137,2.2185,2.2197,2.2197,2.2197,2.2197,2.2197,2.2197,2.2197,2.2197,2.2197,2.2197,2.2197,2.2197,2.2197,2.2197,2.2197,2.2197,2.2197,2.2197,2.2197,2.2197,2.2197,2.2197,2.2197,2.2197,2.2197,2.2197,2.2197,2.2197,2.2197,2.2197,2.2197,2.2197,2.2197,2.2197,2.2197,2.2197,2.2197,2.2197,2.2197,2.2197,2.2197,2.2197,2.2197,2.2197,2.2197,2.2197,2.2197,2.2197,2.2197,2.2197,2.2197,2.2197,2.2197,2.2197,2.2197,2.2197,2.2197,2.2197,2.2197,2.2309,2.2309,2.2185,2.2297,2.2641,2.304,2.3327,2.3618,2.3929,2.35,2.3004,2.245,2.2043,2.2028,2.1888,2.1636,2.1677,2.2249,2.2346,2.2027,2.1839,2.152,2.1479,2.1511,2.1354,1.8815,1.8774,1.8655,1.8548,1.8494,1.8494,1.8309,1.8104,1.8375,1.8321,1.7984,1.7765,1.7929,1.8429,1.8483,1.8602,1.8987,1.9011,1.9095,1.8863,1.8709,1.8822,1.8875,1.8975,1.9543,2.0225,2.0767,2.1247,2.1753,2.1861,2.1861,2.2089,2.2161,2.2149,2.2161,2.2185,2.2173,2.2197,2.2197,2.2197,2.2197,2.2197,2.2197,2.2197,2.2197,2.2197,2.2197,2.2197,2.2197,2.2197,2.2197,2.2197,2.2197,2.2197,2.2197,2.2197,2.2197,2.2197,2.2197,2.2197,2.2197,2.2197,2.2197,2.2197,2.2197,2.2197,2.2197,2.2197,2.2197,2.2197,2.2197,2.2197,2.2197,2.2197,2.2197,2.2197,2.2197,2.2197,2.2197,2.2197,2.2197,2.2197,2.2197,2.2197,2.2197,2.2197,2.2197,2.2197,2.2197,2.2247,2.2309,2.242,2.242,2.2309,2.242,2.3053,2.3682,2.3955,2.4292,2.3852,2.3348,2.2658,2.2184,2.2194,2.2208,2.2123,2.2334,2.2676,2.2634,2.2219,2.2145,2.2131,2.2136,2.207,2.1893,1.9512,1.9368,1.9275,1.917,1.9052,1.904,1.8999,1.8999,1.8987,1.8987,1.8881,1.8363,1.859,1.8815,1.8987,1.8987,1.8987,1.8987,1.8987,1.8987,1.8987,1.8934,1.8934,1.9059,1.9444,1.9889,2.0418,2.0851,2.1296,2.1332,2.1512,2.1921,2.2017,2.2005,2.2077,2.2089,2.2041,2.2161,2.2197,2.2197,2.2197,2.2197,2.2197,2.2197,2.2197,2.2197,2.2197,2.2197,2.2197,2.2197,2.2197,2.2197,2.2197,2.2197,2.2197,2.2197,2.2197,2.2197,2.2197,2.2197,2.2197,2.2197,2.2197,2.2197,2.2197,2.2197,2.2197,2.2197,2.2197,2.2197,2.2197,2.2197,2.2197,2.2197,2.2197,2.2197,2.2197,2.2197,2.2197,2.2197,2.2197,2.2197,2.2197,2.2197,2.2197,2.2197,2.2197,2.2197,2.2185,2.2309,2.2359,2.2592,2.2702,2.258,2.2714,2.3233,2.415,2.4614,2.4873,2.426,2.373,2.3266,2.2817,2.2423,2.2395,2.2381,2.2325,2.2507,2.2442,2.2414,2.2544,2.2582,2.2526,2.2443,2.2309,1.9512,1.942,1.9368,1.9368,1.9316,1.9316,1.9275,1.917,1.917,1.9105,1.8987,1.8934,1.8934,1.8987,1.8987,1.8987,1.8987,1.8987,1.8987,1.8987,1.8987,1.8987,1.8987,1.9011,1.9324,1.9732,2.0153,2.0586,2.0754,2.0767,2.0827,2.1019,2.0995,2.1175,2.1572,2.1644,2.1813,2.2029,2.2197,2.2197,2.2197,2.2197,2.2197,2.2197,2.2197,2.2197,2.2197,2.2197,2.2197,2.2197,2.2197,2.2197,2.2197,2.2197,2.2197,2.2197,2.2197,2.2197,2.2197,2.2197,2.2197,2.2197,2.2197,2.2197,2.2197,2.2197,2.2197,2.2197,2.2197,2.2197,2.2197,2.2197,2.2197,2.2197,2.2197,2.2197,2.2197,2.2197,2.2197,2.2197,2.2197,2.2197,2.2197,2.2197,2.2247,2.2247,2.2309,2.2359,2.2543,2.2469,2.2531,2.2871,2.31,2.3754,2.4234,2.4176,2.4751,2.5217,2.5382,2.4826,2.4357,2.4174,2.3752,2.316,2.285,2.2718,2.2662,2.2507,2.2639,2.2648,2.2873,2.2999,2.2859,2.2724,2.2517]},{"header":{"parameterUnit":"m.s-1","parameterCategory":1,"la1":31.0,"la2":29.5877,"lo1":-88.7671,"lo2":-86.6584,"dy":0.0162,"dx":0.0185,"nx":115,"ny":88,"refTime":"2024-06-27T06:00:00:Z","depth":0,"parameterNumber":3,"parameterNumberName":"V-component_of_WINDS"},"data":[0.0,0.0,0.0,0.0,0.0,0.0,0.0,0.0,0.0,0.0,0.0,0.0,0.0,0.0,0.0,0.0,0.0,0.0,0.0,0.0,0.0,0.0,0.0,0.0,0.0,0.0,0.0,0.0,0.0,0.0,0.0,0.0,0.0,0.0,0.0,0.0,0.0,0.0,0.0,0.0,0.0,0.0,0.0,0.0,0.0,0.0,0.0,0.0,0.0,0.0,0.0,0.0,0.0,0.0,0.0,0.0,0.0,0.0,0.0,0.0,0.0,0.0,0.0,0.0,0.0,0.0,0.0,0.0,0.0,0.0,0.0,0.0,0.0,0.0,0.0,0.0,0.0,0.0,0.0,0.0,0.0,0.0,0.0,0.0,0.0,0.0,0.0,0.0,0.0,0.0,0.0,0.0,0.0,0.0,0.0,0.0,0.0,0.0,0.0,0.0,0.0,0.0,0.0,0.0,0.0,0.0,0.0,0.0,0.0,0.0,0.0,0.0,0.0,0.0,0.0,0.0,0.0,0.0,0.0,0.0,0.0,0.0,0.0,0.0,0.0,0.0,0.0,0.0,0.0,0.0,0.0,0.0,0.0,0.0,0.0,0.0,0.0,0.0,0.0,0.0,0.0,0.0,0.0,0.0,0.0,0.0,0.0,0.0,0.0,0.0,0.0,0.0,0.0,0.0,0.0,0.0,0.0,0.0,0.0,0.0,0.0,0.0,0.0,0.0,0.0,0.0,0.0,0.0,0.0,0.0,0.0,0.0,0.0,0.0,0.0,0.0,0.0,0.0,0.0,0.0,0.0,0.0,0.0,0.0,0.0,0.0,0.0,0.0,0.0,0.0,0.0,0.0,0.0,0.0,0.0,0.0,0.0,0.0,0.0,0.0,0.0,0.0,0.0,0.0,0.0,0.0,0.0,0.0,0.0,0.0,0.0,0.0,0.0,0.0,0.0,0.0,0.0,0.0,0.0,0.0,0.0,0.0,0.0,0.0,0.0,0.0,0.0,0.0,0.0,0.0,0.0,0.0,0.0,0.0,0.0,0.0,0.0,0.0,0.0,0.0,0.0,0.0,0.0,0.0,0.0,0.0,0.0,0.0,0.0,0.0,0.0,0.0,0.0,0.0,0.0,0.0,0.0,0.0,0.0,0.0,0.0,0.0,0.0,0.0,0.0,0.0,0.0,0.0,0.0,0.0,0.0,0.0,0.0,0.0,0.0,0.0,0.0,0.0,0.0,0.0,0.0,0.0,0.0,0.0,0.0,0.0,0.0,0.0,0.0,0.0,0.0,0.0,0.0,0.0,0.0,0.0,0.0,0.0,0.0,0.0,0.0,0.0,0.0,0.0,0.0,0.0,0.0,0.0,0.0,0.0,0.0,0.0,0.0,0.0,0.0,0.0,0.0,0.0,0.0,0.0,0.0,0.0,0.0,0.0,0.0,0.0,0.0,0.0,0.0,0.0,0.0,0.0,0.0,0.0,0.0,0.0,0.0,0.0,0.0,0.0,0.0,0.0,0.0,0.0,0.0,0.0,0.0,0.0,0.0,0.0,0.0,0.0,0.0,0.0,0.0,0.0,0.0,0.0,0.0,0.0,0.0,0.0,0.0,0.0,0.0,0.0,0.0,0.0,0.0,0.0,0.0,0.0,0.0,0.0,0.0,0.0,0.0,0.0,0.0,0.0,0.0,0.0,0.0,0.0,0.0,0.0,0.0,0.0,0.0,0.0,0.0,0.0,0.0,0.0,0.0,0.0,0.0,0.0,0.0,0.0,0.0,0.0,0.0,0.0,0.0,0.0,0.0,0.0,0.0,0.0,0.0,0.0,0.0,0.0,0.0,0.0,0.0,0.0,0.0,0.0,0.0,0.0,0.0,0.0,0.0,0.0,0.0,0.0,0.0,0.0,0.0,0.0,0.0,0.0,0.0,0.0,0.0,0.0,0.0,0.0,0.0,0.0,0.0,0.0,0.0,0.0,0.0,0.0,0.0,0.0,0.0,0.0,0.0,0.0,0.0,0.0,0.0,0.0,0.0,0.0,0.0,0.0,0.0,0.0,0.0,0.0,0.0,0.0,0.0,0.0,0.0,0.0,0.0,0.0,0.0,0.0,0.0,0.0,0.0,0.0,0.0,0.0,0.0,0.0,0.0,0.0,0.0,0.0,0.0,0.0,0.0,0.0,0.0,0.0,0.0,0.0,0.0,0.0,0.0,0.0,0.0,0.0,0.0,0.0,0.0,0.0,0.0,0.0,0.0,0.0,0.0,0.0,0.0,0.0,0.0,0.0,0.0,0.0,0.0,0.0,0.0,0.0,0.0,0.0,0.0,0.0,0.0,0.0,0.0,0.0,0.0,0.0,0.0,0.0,0.0,0.0,0.0,0.0,0.0,0.0,0.0,0.0,0.0,0.0,0.0,0.0,0.0,0.0,0.0,0.0,0.0,0.0,0.0,0.0,0.0,0.0,0.0,0.0,0.0,0.0,0.0,0.0,0.0,0.0,0.0,0.0,0.0,0.0,0.0,0.0,0.0,0.0,0.0,0.0,0.0,0.0,0.0,0.0,0.0,0.0,0.0,0.0,0.0,0.0,0.0,0.0,0.0,0.0,0.0,0.0,0.0,0.0,0.0,0.0,0.0,0.0,0.0,0.0,0.0,0.0,0.0,0.0,0.0,0.0,0.0,0.0,0.0,0.0,0.0,0.0,0.0,0.0,0.0,0.0,0.0,0.0,0.0,0.0,0.0,0.0,0.0,0.0,0.0,0.0,0.0,0.0,0.0,0.0,0.0,0.0,0.0,0.0,0.0,0.0,0.0,0.0,0.0,0.0,0.0,0.0,0.0,0.0,0.0,0.0,0.0,0.0,0.0,0.0,0.0,0.0,0.0,0.0,0.0,0.0,0.0,0.0,0.0,0.0,0.0,0.0,0.0,0.0,0.0,0.0,0.0,0.0,0.0,0.0,0.0,0.0,0.0,0.0,0.0,0.0,0.0,0.0,0.0,0.0,0.0,0.0,0.0,0.0,0.0,0.0,0.0,0.0,0.0,0.0,0.0,0.0,0.0,0.0,0.0,0.0,0.0,0.0,0.0,0.0,0.0,0.0,0.0,0.0,0.0,0.0,0.0,0.0,0.0,0.0,0.0,0.0,0.0,0.0,0.0,0.0,0.0,0.0,0.0,0.0,0.0,0.0,0.0,0.0,0.0,0.0,0.0,0.0,0.0,0.0,0.0,0.0,0.0,0.0,0.0,0.0,0.0,0.0,0.0,0.0,0.0,0.0,0.0,0.0,0.0,0.0,0.0,0.0,0.0,0.0,0.0,0.0,0.0,0.0,0.0,0.0,0.0,0.0,0.0,0.0,0.0,0.0,0.0,0.0,0.0,0.0,0.0,0.0,0.0,0.0,0.0,0.0,0.0,0.0,0.0,0.0,0.0,0.0,0.0,0.0,0.0,0.0,0.0,0.0,0.0,0.0,0.0,0.0,0.0,0.0,0.0,0.0,0.0,0.0,0.0,0.0,0.0,0.0,0.0,0.0,0.0,0.0,0.0,0.0,0.0,0.0,0.0,0.0,0.0,0.0,0.0,0.0,0.0,0.0,0.0,0.0,0.0,0.0,0.0,0.0,0.0,0.0,0.0,0.0,0.0,0.0,0.0,0.0,0.0,0.0,0.0,0.0,0.0,0.0,0.0,0.0,0.0,0.0,0.0,0.0,0.0,0.0,0.0,0.0,0.0,0.0,0.0,0.0,0.0,0.0,0.0,0.0,0.0,0.0,0.0,0.0,0.0,0.0,0.0,0.0,0.0,0.0,0.0,0.0,0.0,0.0,0.0,0.0,0.0,0.0,0.0,0.0,0.0,0.0,0.0,0.0,0.0,0.0,0.0,0.0,0.0,0.0,0.0,0.0,0.0,0.0,0.0,0.0,0.0,0.0,0.0,0.0,0.0,0.0,0.0,0.0,0.0,0.0,0.0,0.0,0.0,0.0,0.0,0.0,0.0,0.0,0.0,0.0,0.0,0.0,0.0,0.0,0.0,0.0,0.0,0.0,0.0,0.0,0.0,0.0,0.0,0.0,0.0,0.0,0.0,0.0,0.0,0.0,0.0,0.0,0.0,0.0,0.0,0.0,0.0,0.0,0.0,0.0,0.0,0.0,0.0,0.0,0.0,0.0,0.0,0.0,0.0,0.0,0.0,0.0,0.0,0.0,0.0,0.0,0.0,0.0,0.0,0.0,0.0,0.0,0.0,0.0,0.0,0.0,0.0,0.0,0.0,0.0,-1.8913,0.0,0.0,0.0,0.0,0.0,0.0,0.0,0.0,0.0,0.0,0.0,0.0,0.0,0.0,0.0,0.0,0.0,0.0,0.0,0.0,0.0,0.0,0.0,0.0,0.0,0.0,0.0,0.0,0.0,0.0,0.0,0.0,0.0,0.0,0.0,0.0,0.0,0.0,0.0,0.0,0.0,0.0,0.0,0.0,0.0,0.0,0.0,0.0,0.0,0.0,0.0,0.0,0.0,0.0,0.0,0.0,0.0,0.0,0.0,0.0,0.0,0.0,0.0,0.0,0.0,0.0,0.0,0.0,0.0,0.0,0.0,0.0,0.0,0.0,0.0,0.0,0.0,0.0,0.0,0.0,0.0,0.0,0.0,0.0,0.0,0.0,0.0,0.0,0.0,0.0,0.0,0.0,0.0,0.0,0.0,0.0,0.0,0.0,0.0,0.0,0.0,0.0,0.0,0.0,0.0,0.0,0.0,0.0,0.0,0.0,-2.0974,-2.0568,-2.0551,-1.9858,-1.8369,0.0,0.0,0.0,0.0,0.0,0.0,0.0,0.0,0.0,0.0,0.0,0.0,0.0,0.0,0.0,0.0,0.0,0.0,0.0,0.0,0.0,0.0,0.0,0.0,0.0,0.0,0.0,0.0,0.0,0.0,0.0,0.0,0.0,0.0,0.0,0.0,0.0,0.0,0.0,0.0,0.0,0.0,0.0,0.0,0.0,0.0,0.0,0.0,0.0,0.0,0.0,0.0,0.0,0.0,0.0,0.0,0.0,0.0,0.0,0.0,0.0,0.0,0.0,0.0,0.0,0.0,0.0,0.0,0.0,0.0,0.0,0.0,0.0,0.0,0.0,0.0,0.0,0.0,0.0,0.0,0.0,0.0,0.0,0.0,0.0,0.0,0.0,0.0,0.0,0.0,0.0,0.0,0.0,0.0,0.0,0.0,0.0,0.0,0.0,0.0,0.0,0.0,0.0,0.0,0.0,0.0,0.0,0.0,0.0,0.0,0.0,0.0,-2.0281,-1.957,-1.8109,0.0,0.0,0.0,0.0,0.0,0.0,0.0,0.0,0.0,0.0,0.0,0.0,0.0,0.0,0.0,0.0,0.0,0.0,0.0,0.0,0.0,0.0,0.0,0.0,0.0,0.0,0.0,0.0,0.0,0.0,0.0,0.0,0.0,0.0,0.0,0.0,0.0,0.0,0.0,0.0,0.0,0.0,0.0,0.0,0.0,0.0,0.0,0.0,0.0,0.0,0.0,0.0,0.0,0.0,0.0,0.0,0.0,0.0,0.0,0.0,0.0,0.0,0.0,0.0,0.0,0.0,0.0,0.0,0.0,0.0,0.0,0.0,0.0,0.0,0.0,0.0,0.0,0.0,0.0,0.0,0.0,0.0,0.0,0.0,0.0,0.0,0.0,0.0,0.0,0.0,0.0,0.0,0.0,0.0,0.0,0.0,0.0,0.0,0.0,0.0,0.0,0.0,0.0,0.0,0.0,0.0,0.0,0.0,0.0,0.0,-2.0416,-2.1059,-2.1059,0.0,-1.8927,0.0,0.0,0.0,0.0,0.0,0.0,0.0,0.0,0.0,0.0,0.0,0.0,0.0,0.0,0.0,0.0,0.0,0.0,0.0,0.0,0.0,0.0,0.0,0.0,0.0,0.0,0.0,0.0,0.0,0.0,0.0,0.0,0.0,0.0,0.0,0.0,0.0,0.0,0.0,0.0,0.0,0.0,0.0,0.0,0.0,0.0,0.0,0.0,0.0,0.0,0.0,0.0,0.0,0.0,0.0,0.0,0.0,0.0,0.0,0.0,0.0,0.0,0.0,0.0,0.0,0.0,0.0,0.0,0.0,0.0,0.0,0.0,0.0,0.0,0.0,0.0,0.0,0.0,0.0,0.0,0.0,0.0,0.0,0.0,0.0,0.0,0.0,0.0,0.0,0.0,0.0,0.0,0.0,0.0,0.0,0.0,0.0,0.0,0.0,0.0,0.0,0.0,0.0,0.0,0.0,0.0,0.0,0.0,0.0,0.0,-2.0196,-2.0594,-2.0153,-1.961,0.0,0.0,0.0,0.0,0.0,0.0,0.0,0.0,0.0,0.0,0.0,0.0,0.0,0.0,0.0,0.0,0.0,0.0,0.0,0.0,0.0,0.0,0.0,0.0,0.0,0.0,0.0,0.0,0.0,0.0,0.0,0.0,0.0,0.0,0.0,0.0,0.0,0.0,0.0,0.0,0.0,0.0,0.0,0.0,0.0,0.0,0.0,0.0,0.0,0.0,0.0,0.0,0.0,0.0,0.0,0.0,0.0,0.0,0.0,0.0,0.0,0.0,0.0,0.0,0.0,0.0,0.0,0.0,0.0,0.0,0.0,0.0,0.0,0.0,0.0,0.0,0.0,0.0,0.0,0.0,0.0,0.0,0.0,0.0,0.0,0.0,0.0,0.0,0.0,0.0,0.0,0.0,0.0,0.0,0.0,0.0,0.0,0.0,0.0,0.0,0.0,0.0,0.0,0.0,0.0,0.0,0.0,0.0,0.0,0.0,-1.9925,0.0,-2.0237,-1.9529,-1.9048,-1.8894,0.0,0.0,0.0,0.0,0.0,0.0,0.0,0.0,0.0,0.0,0.0,0.0,0.0,0.0,0.0,0.0,0.0,0.0,0.0,0.0,0.0,0.0,0.0,0.0,0.0,0.0,0.0,0.0,0.0,0.0,0.0,0.0,0.0,0.0,0.0,0.0,0.0,0.0,0.0,0.0,0.0,0.0,0.0,0.0,0.0,0.0,0.0,0.0,0.0,0.0,0.0,0.0,0.0,0.0,0.0,0.0,0.0,0.0,0.0,0.0,0.0,0.0,0.0,0.0,0.0,0.0,0.0,0.0,0.0,0.0,0.0,0.0,0.0,0.0,0.0,0.0,0.0,0.0,0.0,0.0,0.0,0.0,0.0,0.0,0.0,0.0,0.0,0.0,0.0,0.0,0.0,0.0,0.0,0.0,0.0,0.0,0.0,0.0,0.0,0.0,0.0,0.0,0.0,0.0,0.0,0.0,0.0,0.0,0.0,-1.9701,-1.9953,-2.043,-1.9761,-1.9151,0.0,0.0,0.0,0.0,0.0,0.0,0.0,0.0,0.0,0.0,0.0,0.0,0.0,0.0,0.0,0.0,0.0,0.0,0.0,0.0,0.0,0.0,0.0,0.0,0.0,0.0,0.0,0.0,0.0,0.0,0.0,0.0,0.0,0.0,0.0,0.0,0.0,0.0,0.0,0.0,0.0,0.0,0.0,0.0,0.0,0.0,0.0,0.0,0.0,0.0,0.0,0.0,0.0,0.0,0.0,0.0,0.0,0.0,0.0,0.0,0.0,0.0,0.0,0.0,0.0,0.0,0.0,0.0,0.0,0.0,0.0,0.0,0.0,0.0,0.0,0.0,0.0,0.0,0.0,0.0,0.0,0.0,0.0,0.0,0.0,0.0,0.0,0.0,0.0,0.0,0.0,0.0,0.0,0.0,0.0,0.0,0.0,0.0,0.0,0.0,0.0,0.0,0.0,0.0,0.0,0.0,0.0,0.0,0.0,-1.8285,-1.8701,-1.9452,-2.0459,-1.9421,-1.8732,0.0,0.0,0.0,0.0,0.0,0.0,0.0,0.0,0.0,0.0,0.0,0.0,0.0,0.0,0.0,0.0,0.0,0.0,0.0,0.0,0.0,0.0,0.0,0.0,0.0,0.0,0.0,0.0,0.0,0.0,0.0,0.0,0.0,0.0,0.0,0.0,0.0,0.0,0.0,0.0,0.0,0.0,0.0,0.0,0.0,0.0,0.0,0.0,0.0,0.0,0.0,0.0,0.0,0.0,0.0,0.0,0.0,0.0,0.0,0.0,0.0,0.0,0.0,0.0,0.0,0.0,0.0,0.0,0.0,0.0,0.0,0.0,0.0,0.0,0.0,0.0,0.0,0.0,0.0,0.0,0.0,0.0,0.0,0.0,0.0,0.0,0.0,0.0,0.0,0.0,0.0,0.0,0.0,0.0,0.0,0.0,0.0,0.0,0.0,0.0,0.0,0.0,0.0,0.0,0.0,0.0,0.0,0.0,0.0,-1.8267,0.0,-1.9524,0.0,-1.9246,-1.848,0.0,0.0,0.0,0.0,0.0,0.0,0.0,0.0,0.0,0.0,0.0,0.0,0.0,0.0,0.0,0.0,0.0,0.0,0.0,0.0,0.0,0.0,0.0,0.0,0.0,0.0,0.0,0.0,0.0,0.0,0.0,0.0,0.0,0.0,0.0,0.0,0.0,0.0,0.0,0.0,0.0,0.0,0.0,0.0,0.0,0.0,0.0,0.0,0.0,0.0,0.0,0.0,0.0,0.0,0.0,0.0,0.0,0.0,0.0,0.0,0.0,0.0,0.0,0.0,0.0,0.0,0.0,0.0,0.0,0.0,0.0,0.0,0.0,0.0,0.0,0.0,0.0,0.0,0.0,0.0,0.0,0.0,0.0,0.0,0.0,0.0,0.0,0.0,0.0,0.0,0.0,0.0,0.0,0.0,0.0,0.0,0.0,0.0,0.0,0.0,0.0,0.0,0.0,0.0,0.0,0.0,0.0,0.0,-1.8562,-1.979,-2.0213,-2.0146,-1.9628,-1.9207,-1.8475,0.0,0.0,0.0,0.0,0.0,0.0,0.0,0.0,0.0,0.0,0.0,0.0,0.0,0.0,0.0,0.0,0.0,0.0,0.0,0.0,0.0,0.0,0.0,0.0,0.0,0.0,0.0,0.0,0.0,0.0,0.0,0.0,0.0,0.0,0.0,0.0,0.0,0.0,0.0,0.0,0.0,0.0,0.0,0.0,0.0,0.0,0.0,0.0,0.0,0.0,0.0,0.0,0.0,0.0,0.0,0.0,0.0,0.0,0.0,0.0,0.0,0.0,0.0,0.0,0.0,0.0,0.0,0.0,0.0,0.0,0.0,0.0,0.0,0.0,0.0,0.0,0.0,0.0,0.0,0.0,0.0,0.0,0.0,0.0,0.0,0.0,0.0,0.0,0.0,0.0,0.0,0.0,0.0,0.0,0.0,0.0,0.0,0.0,0.0,0.0,0.0,0.0,0.0,0.0,0.0,0.0,0.0,0.0,0.0,-1.8647,-1.9443,-1.9948,-2.0033,-1.9067,-1.8349,0.0,0.0,0.0,0.0,0.0,0.0,0.0,0.0,0.0,0.0,0.0,0.0,0.0,0.0,0.0,0.0,0.0,0.0,0.0,0.0,0.0,0.0,0.0,0.0,0.0,0.0,0.0,0.0,0.0,0.0,0.0,0.0,0.0,0.0,0.0,0.0,0.0,0.0,0.0,0.0,0.0,0.0,0.0,0.0,0.0,0.0,0.0,0.0,0.0,0.0,0.0,0.0,0.0,0.0,0.0,0.0,0.0,0.0,0.0,0.0,0.0,0.0,0.0,0.0,0.0,0.0,0.0,0.0,0.0,0.0,0.0,0.0,0.0,0.0,0.0,0.0,0.0,0.0,0.0,0.0,0.0,0.0,0.0,0.0,0.0,0.0,0.0,0.0,0.0,0.0,0.0,0.0,0.0,0.0,0.0,0.0,0.0,0.0,0.0,0.0,0.0,0.0,0.0,0.0,0.0,0.0,0.0,0.0,0.0,-1.9203,-2.0113,-2.06,-2.0593,-1.9602,-1.8816,-1.8303,0.0,0.0,0.0,0.0,0.0,0.0,0.0,0.0,0.0,0.0,0.0,0.0,0.0,0.0,0.0,0.0,0.0,0.0,0.0,0.0,0.0,0.0,0.0,0.0,0.0,0.0,0.0,0.0,0.0,0.0,0.0,0.0,0.0,0.0,0.0,0.0,0.0,0.0,0.0,0.0,0.0,0.0,0.0,0.0,0.0,0.0,0.0,0.0,0.0,0.0,0.0,0.0,0.0,0.0,0.0,0.0,0.0,0.0,0.0,0.0,0.0,0.0,0.0,0.0,0.0,0.0,0.0,0.0,0.0,0.0,0.0,0.0,0.0,0.0,0.0,0.0,0.0,0.0,0.0,0.0,0.0,0.0,0.0,0.0,0.0,0.0,0.0,0.0,0.0,0.0,0.0,0.0,0.0,0.0,0.0,0.0,0.0,0.0,0.0,0.0,0.0,0.0,0.0,0.0,0.0,0.0,0.0,0.0,-2.1042,-2.1932,-2.1993,-2.1167,-2.0591,-1.974,0.0,0.0,0.0,0.0,0.0,0.0,0.0,0.0,0.0,0.0,0.0,0.0,0.0,0.0,0.0,0.0,0.0,0.0,0.0,0.0,0.0,0.0,0.0,0.0,0.0,0.0,0.0,0.0,0.0,0.0,0.0,0.0,0.0,0.0,0.0,0.0,0.0,0.0,0.0,0.0,0.0,0.0,0.0,0.0,0.0,0.0,0.0,0.0,0.0,0.0,0.0,0.0,0.0,0.0,0.0,0.0,0.0,0.0,0.0,0.0,0.0,0.0,0.0,0.0,0.0,0.0,0.0,0.0,0.0,0.0,0.0,0.0,0.0,0.0,0.0,0.0,0.0,0.0,0.0,0.0,0.0,0.0,0.0,0.0,0.0,0.0,0.0,0.0,0.0,0.0,0.0,0.0,0.0,0.0,0.0,0.0,0.0,0.0,0.0,0.0,0.0,0.0,0.0,0.0,0.0,0.0,0.0,0.0,0.0,-2.1737,-2.213,-2.2119,-2.1685,-2.101,-2.0505,0.0,0.0,0.0,0.0,0.0,0.0,0.0,0.0,0.0,0.0,0.0,0.0,0.0,0.0,0.0,0.0,0.0,0.0,0.0,0.0,0.0,0.0,0.0,0.0,0.0,0.0,0.0,0.0,0.0,0.0,0.0,0.0,0.0,0.0,0.0,0.0,0.0,0.0,0.0,0.0,0.0,0.0,0.0,0.0,0.0,0.0,0.0,0.0,0.0,0.0,0.0,0.0,0.0,0.0,0.0,0.0,0.0,0.0,0.0,0.0,0.0,0.0,0.0,0.0,0.0,0.0,0.0,0.0,0.0,0.0,0.0,0.0,0.0,0.0,0.0,0.0,0.0,0.0,0.0,0.0,0.0,0.0,0.0,0.0,0.0,0.0,0.0,0.0,0.0,0.0,0.0,0.0,0.0,0.0,0.0,0.0,0.0,0.0,0.0,0.0,0.0,0.0,0.0,0.0,0.0,0.0,0.0,0.0,-2.1946,-2.2158,-2.2175,-2.2101,-2.194,-2.1454,-2.1043,0.0,0.0,0.0,0.0,0.0,0.0,0.0,0.0,0.0,0.0,0.0,0.0,0.0,0.0,0.0,0.0,0.0,0.0,0.0,0.0,0.0,0.0,0.0,0.0,0.0,0.0,0.0,0.0,0.0,0.0,0.0,0.0,0.0,0.0,0.0,0.0,0.0,0.0,0.0,0.0,0.0,0.0,0.0,0.0,0.0,0.0,0.0,0.0,0.0,0.0,0.0,0.0,0.0,0.0,0.0,0.0,0.0,0.0,0.0,0.0,0.0,0.0,0.0,0.0,0.0,0.0,0.0,0.0,0.0,0.0,0.0,0.0,0.0,0.0,0.0,0.0,0.0,0.0,0.0,0.0,0.0,0.0,0.0,0.0,0.0,0.0,0.0,0.0,0.0,0.0,0.0,0.0,0.0,0.0,0.0,0.0,0.0,0.0,0.0,0.0,0.0,0.0,0.0,0.0,0.0,0.0,0.0,0.0,-2.2265,-2.2332,-2.213,-2.2027,-2.1998,-2.1827,-2.1483,0.0,0.0,0.0,0.0,0.0,0.0,0.0,0.0,0.0,0.0,0.0,0.0,0.0,0.0,0.0,0.0,0.0,0.0,0.0,0.0,0.0,0.0,0.0,0.0,0.0,0.0,0.0,0.0,0.0,0.0,0.0,0.0,0.0,0.0,0.0,0.0,0.0,0.0,0.0,0.0,0.0,0.0,0.0,0.0,0.0,0.0,0.0,0.0,0.0,0.0,0.0,0.0,0.0,0.0,0.0,0.0,0.0,0.0,0.0,0.0,0.0,0.0,0.0,0.0,0.0,0.0,0.0,0.0,0.0,0.0,0.0,0.0,0.0,0.0,0.0,0.0,0.0,0.0,0.0,0.0,0.0,0.0,0.0,0.0,0.0,0.0,0.0,0.0,0.0,0.0,0.0,0.0,0.0,0.0,0.0,0.0,0.0,0.0,0.0,0.0,0.0,0.0,0.0,0.0,0.0,0.0,0.0,0.0,-2.226,-2.2101,-2.2135,-2.2106,-2.1998,-2.1969,-2.1845,0.0,0.0,0.0,0.0,0.0,0.0,0.0,0.0,0.0,0.0,0.0,0.0,0.0,0.0,0.0,0.0,0.0,0.0,0.0,0.0,0.0,0.0,0.0,0.0,0.0,0.0,0.0,0.0,0.0,0.0,0.0,0.0,0.0,0.0,0.0,0.0,0.0,0.0,0.0,0.0,0.0,0.0,0.0,0.0,0.0,0.0,0.0,0.0,-2.0185,0.0,0.0,0.0,0.0,0.0,0.0,0.0,0.0,0.0,0.0,0.0,0.0,0.0,0.0,0.0,0.0,0.0,0.0,0.0,0.0,0.0,0.0,0.0,0.0,0.0,0.0,0.0,0.0,0.0,0.0,0.0,0.0,0.0,0.0,0.0,0.0,0.0,0.0,0.0,0.0,0.0,0.0,0.0,0.0,0.0,0.0,0.0,0.0,0.0,0.0,0.0,0.0,0.0,0.0,0.0,0.0,0.0,0.0,0.0,-2.2265,-2.2147,-2.2225,-2.2209,-2.2147,-2.2147,-2.2147,0.0,0.0,0.0,0.0,0.0,0.0,0.0,0.0,0.0,0.0,0.0,0.0,0.0,0.0,0.0,0.0,0.0,0.0,0.0,0.0,0.0,0.0,0.0,0.0,0.0,0.0,0.0,0.0,0.0,0.0,0.0,0.0,0.0,0.0,0.0,0.0,0.0,0.0,0.0,0.0,0.0,0.0,0.0,0.0,0.0,0.0,0.0,0.0,0.0,0.0,0.0,0.0,0.0,0.0,0.0,0.0,0.0,0.0,0.0,0.0,0.0,0.0,0.0,0.0,0.0,0.0,0.0,0.0,0.0,0.0,0.0,0.0,0.0,0.0,0.0,0.0,0.0,0.0,0.0,0.0,0.0,0.0,0.0,0.0,0.0,0.0,0.0,0.0,0.0,0.0,0.0,0.0,0.0,0.0,0.0,0.0,0.0,0.0,0.0,0.0,0.0,0.0,0.0,0.0,0.0,0.0,0.0,-2.2119,-2.2242,-2.2327,-2.2327,-2.2327,-2.2327,-2.2327,-2.2338,-2.2377,0.0,0.0,0.0,0.0,0.0,0.0,0.0,0.0,0.0,0.0,0.0,0.0,0.0,0.0,0.0,0.0,0.0,0.0,0.0,0.0,0.0,0.0,0.0,0.0,0.0,0.0,0.0,0.0,0.0,0.0,0.0,0.0,0.0,0.0,0.0,0.0,0.0,0.0,-1.972,-2.086,0.0,0.0,0.0,0.0,0.0,0.0,0.0,0.0,-2.2614,0.0,0.0,0.0,0.0,0.0,0.0,0.0,0.0,0.0,0.0,0.0,0.0,0.0,0.0,0.0,0.0,0.0,0.0,0.0,0.0,0.0,0.0,0.0,0.0,0.0,0.0,0.0,0.0,0.0,0.0,0.0,0.0,0.0,0.0,0.0,0.0,0.0,0.0,0.0,0.0,0.0,0.0,0.0,0.0,0.0,0.0,0.0,0.0,0.0,0.0,0.0,0.0,0.0,0.0,0.0,0.0,-2.2849,-2.2483,-2.2282,-2.2327,-2.2327,-2.2327,-2.2327,-2.2327,-2.231,-2.226,0.0,0.0,0.0,0.0,0.0,0.0,0.0,0.0,0.0,0.0,0.0,0.0,0.0,0.0,0.0,0.0,0.0,0.0,0.0,0.0,0.0,0.0,0.0,0.0,0.0,0.0,0.0,0.0,0.0,0.0,0.0,0.0,0.0,0.0,0.0,0.0,0.0,0.0,0.0,-2.1249,-2.1535,0.0,0.0,0.0,0.0,0.0,0.0,0.0,0.0,-2.3312,0.0,0.0,0.0,0.0,0.0,0.0,0.0,0.0,0.0,0.0,0.0,0.0,0.0,0.0,0.0,0.0,0.0,0.0,0.0,0.0,0.0,0.0,0.0,0.0,0.0,0.0,0.0,0.0,0.0,0.0,0.0,0.0,0.0,0.0,0.0,0.0,0.0,0.0,0.0,0.0,0.0,0.0,0.0,0.0,0.0,0.0,0.0,0.0,0.0,0.0,0.0,0.0,0.0,0.0,0.0,-2.2979,-2.2694,-2.246,-2.2366,-2.2349,-2.2349,-2.2338,-2.2366,-2.2338,0.0,0.0,0.0,0.0,0.0,0.0,0.0,0.0,0.0,0.0,0.0,0.0,0.0,0.0,0.0,0.0,0.0,0.0,0.0,0.0,0.0,0.0,0.0,0.0,0.0,0.0,0.0,0.0,0.0,0.0,0.0,0.0,0.0,0.0,0.0,0.0,0.0,0.0,0.0,0.0,-2.1901,-2.2297,-2.2764,0.0,0.0,0.0,0.0,0.0,0.0,-2.3491,-2.3804,0.0,0.0,0.0,0.0,0.0,0.0,0.0,0.0,0.0,0.0,0.0,0.0,0.0,0.0,0.0,0.0,0.0,0.0,0.0,0.0,0.0,0.0,0.0,0.0,0.0,0.0,0.0,0.0,0.0,0.0,0.0,0.0,0.0,0.0,0.0,0.0,0.0,0.0,0.0,0.0,0.0,0.0,0.0,0.0,0.0,0.0,0.0,0.0,0.0,0.0,0.0,0.0,0.0,0.0,0.0,-2.3038,-2.2876,-2.2659,-2.2497,-2.2497,-2.2497,-2.2497,-2.2432,-2.2326,0.0,0.0,0.0,0.0,0.0,0.0,0.0,0.0,0.0,0.0,0.0,0.0,0.0,0.0,0.0,0.0,0.0,0.0,0.0,0.0,0.0,0.0,0.0,0.0,0.0,0.0,0.0,0.0,0.0,0.0,0.0,0.0,0.0,0.0,0.0,0.0,0.0,0.0,0.0,0.0,0.0,-2.3028,-2.3126,-2.3206,0.0,0.0,0.0,0.0,-2.3735,-2.3816,0.0,0.0,0.0,0.0,0.0,0.0,0.0,0.0,0.0,0.0,0.0,0.0,0.0,0.0,0.0,0.0,0.0,0.0,0.0,0.0,0.0,0.0,0.0,0.0,0.0,0.0,0.0,0.0,0.0,0.0,0.0,0.0,0.0,0.0,0.0,0.0,0.0,0.0,0.0,0.0,0.0,0.0,0.0,0.0,0.0,0.0,0.0,0.0,0.0,0.0,0.0,0.0,0.0,0.0,0.0,0.0,-2.3105,-2.2985,-2.2859,-2.2859,-2.2841,-2.2841,-2.2816,-2.2552,-2.2099,0.0,0.0,0.0,0.0,0.0,0.0,0.0,0.0,0.0,0.0,0.0,0.0,0.0,0.0,0.0,0.0,0.0,0.0,0.0,0.0,0.0,0.0,0.0,0.0,0.0,0.0,0.0,0.0,0.0,0.0,0.0,0.0,0.0,0.0,0.0,0.0,0.0,0.0,0.0,0.0,0.0,-2.3168,-2.3567,-2.3491,-2.35,0.0,0.0,-2.3692,-2.3917,-2.3795,0.0,0.0,0.0,0.0,0.0,0.0,0.0,0.0,0.0,0.0,0.0,0.0,0.0,0.0,0.0,0.0,0.0,0.0,0.0,0.0,0.0,0.0,0.0,0.0,0.0,0.0,0.0,0.0,0.0,0.0,0.0,0.0,0.0,0.0,0.0,0.0,0.0,0.0,0.0,0.0,0.0,0.0,0.0,0.0,0.0,0.0,0.0,0.0,0.0,0.0,0.0,0.0,0.0,0.0,0.0,-2.1811,-2.32,-2.3182,-2.3084,-2.2952,-2.2799,-2.2721,-2.2738,-2.2623,-2.2129,0.0,0.0,0.0,0.0,0.0,0.0,0.0,0.0,0.0,0.0,0.0,0.0,0.0,0.0,0.0,0.0,0.0,0.0,0.0,0.0,0.0,0.0,0.0,0.0,0.0,0.0,0.0,0.0,0.0,0.0,0.0,0.0,0.0,0.0,0.0,0.0,0.0,0.0,0.0,0.0,0.0,0.0,-2.3646,-2.3689,0.0,0.0,0.0,-2.3896,-2.4036,0.0,0.0,0.0,0.0,0.0,0.0,0.0,0.0,0.0,0.0,0.0,0.0,0.0,0.0,0.0,0.0,0.0,0.0,0.0,0.0,0.0,0.0,0.0,0.0,0.0,0.0,0.0,0.0,0.0,0.0,0.0,0.0,0.0,0.0,0.0,0.0,0.0,0.0,0.0,0.0,0.0,0.0,0.0,0.0,0.0,0.0,0.0,0.0,0.0,0.0,0.0,0.0,0.0,0.0,0.0,0.0,0.0,-2.3289,-2.333,-2.323,-2.3045,-2.2842,-2.2729,-2.2712,-2.2649,0.0,0.0,0.0,0.0,0.0,0.0,0.0,0.0,0.0,0.0,0.0,0.0,0.0,0.0,0.0,0.0,0.0,0.0,0.0,0.0,0.0,0.0,0.0,0.0,0.0,0.0,0.0,-1.5818,0.0,0.0,0.0,0.0,0.0,0.0,0.0,0.0,0.0,0.0,0.0,0.0,0.0,0.0,-2.3707,-2.3753,-2.3876,-2.3958,0.0,0.0,-2.4074,-2.4113,-2.4113,-2.4353,0.0,0.0,0.0,0.0,0.0,0.0,0.0,0.0,0.0,0.0,0.0,0.0,0.0,0.0,0.0,0.0,0.0,0.0,0.0,0.0,0.0,0.0,0.0,0.0,0.0,0.0,0.0,0.0,0.0,0.0,0.0,0.0,0.0,0.0,0.0,0.0,0.0,0.0,0.0,0.0,0.0,0.0,0.0,0.0,0.0,0.0,0.0,0.0,0.0,0.0,0.0,0.0,0.0,0.0,0.0,-2.3323,-2.3405,-2.3289,-2.3119,-2.3095,-2.307,-2.307,-2.2764,-2.1979,0.0,0.0,0.0,0.0,0.0,0.0,0.0,0.0,0.0,0.0,0.0,0.0,0.0,0.0,0.0,0.0,0.0,0.0,0.0,0.0,0.0,0.0,0.0,0.0,0.0,0.0,0.0,0.0,0.0,0.0,0.0,0.0,0.0,0.0,0.0,0.0,0.0,0.0,0.0,0.0,0.0,-2.3753,-2.3858,-2.3996,-2.4112,0.0,0.0,-2.419,-2.4208,-2.4208,-2.4208,-2.4281,0.0,0.0,0.0,0.0,0.0,0.0,0.0,0.0,0.0,0.0,0.0,0.0,0.0,0.0,0.0,0.0,0.0,0.0,0.0,0.0,0.0,0.0,0.0,0.0,0.0,0.0,0.0,0.0,0.0,0.0,0.0,0.0,0.0,0.0,0.0,0.0,0.0,0.0,0.0,0.0,0.0,0.0,0.0,0.0,0.0,0.0,0.0,0.0,0.0,0.0,0.0,0.0,0.0,-2.2102,-2.3437,-2.3414,-2.3294,-2.3119,-2.2927,-2.2868,-2.2842,-2.2738,-2.1962,0.0,0.0,0.0,0.0,0.0,0.0,0.0,0.0,0.0,0.0,0.0,0.0,0.0,0.0,0.0,0.0,0.0,0.0,0.0,0.0,0.0,0.0,0.0,0.0,0.0,0.0,0.0,0.0,-1.8506,-1.8766,-1.9205,0.0,0.0,0.0,0.0,0.0,0.0,0.0,0.0,0.0,0.0,-2.3876,-2.3996,-2.4074,0.0,0.0,-2.4924,-2.4944,-2.5001,-2.5001,-2.4983,-2.5003,-2.5261,0.0,0.0,0.0,0.0,0.0,0.0,0.0,0.0,0.0,0.0,0.0,0.0,0.0,0.0,0.0,0.0,0.0,0.0,0.0,0.0,0.0,0.0,0.0,0.0,0.0,0.0,0.0,0.0,0.0,0.0,0.0,0.0,0.0,0.0,0.0,0.0,0.0,0.0,0.0,0.0,0.0,0.0,0.0,0.0,0.0,0.0,0.0,0.0,0.0,0.0,0.0,0.0,-2.222,-2.3526,-2.3427,-2.3259,-2.3028,-2.2944,-2.2825,-2.2738,-2.2859,-2.2275,0.0,0.0,0.0,0.0,0.0,0.0,0.0,0.0,0.0,0.0,0.0,0.0,0.0,0.0,0.0,0.0,0.0,0.0,0.0,0.0,0.0,0.0,0.0,0.0,0.0,0.0,0.0,0.0,-1.9425,-1.9573,-1.972,0.0,0.0,0.0,0.0,0.0,0.0,0.0,0.0,0.0,0.0,-2.4249,-2.413,-2.4113,-2.4426,-2.5293,-2.5423,-2.5553,-2.5832,-2.6091,-2.6147,-2.5928,0.0,0.0,0.0,0.0,0.0,0.0,0.0,0.0,0.0,0.0,0.0,0.0,0.0,0.0,0.0,0.0,0.0,0.0,0.0,0.0,0.0,0.0,0.0,0.0,0.0,0.0,0.0,0.0,0.0,0.0,-1.8842,0.0,0.0,0.0,0.0,0.0,0.0,0.0,0.0,0.0,0.0,0.0,0.0,0.0,0.0,0.0,0.0,0.0,0.0,0.0,0.0,0.0,0.0,-2.21,-2.3552,-2.3417,-2.3193,-2.2944,-2.3157,-2.3133,-2.2842,-2.3242,-2.2967,-2.1879,0.0,0.0,0.0,0.0,0.0,0.0,0.0,0.0,0.0,0.0,0.0,0.0,0.0,0.0,0.0,0.0,0.0,0.0,0.0,0.0,0.0,0.0,0.0,0.0,0.0,0.0,-1.9798,-1.9714,-1.9756,0.0,0.0,0.0,0.0,0.0,0.0,0.0,0.0,0.0,0.0,-2.4647,-2.4928,-2.424,-2.4169,-2.4595,-2.5425,-2.5518,-2.5814,-2.6667,-2.7405,-2.7664,0.0,0.0,0.0,0.0,0.0,0.0,0.0,0.0,0.0,0.0,0.0,0.0,0.0,0.0,0.0,0.0,0.0,0.0,0.0,0.0,0.0,0.0,0.0,0.0,0.0,0.0,0.0,-2.0886,-2.0122,0.0,0.0,0.0,0.0,0.0,0.0,0.0,0.0,0.0,0.0,0.0,-2.2428,-2.3033,0.0,0.0,0.0,0.0,0.0,0.0,0.0,0.0,0.0,0.0,0.0,0.0,-2.2903,-2.3808,-2.3795,-2.3642,-2.3382,-2.345,-2.3341,-2.3025,-2.3159,-2.2735,-2.1732,0.0,0.0,0.0,0.0,0.0,0.0,0.0,0.0,0.0,0.0,0.0,0.0,0.0,0.0,0.0,0.0,0.0,0.0,0.0,0.0,0.0,0.0,0.0,0.0,0.0,-2.151,0.0,0.0,0.0,0.0,0.0,0.0,0.0,0.0,0.0,0.0,0.0,-2.5161,-2.5524,-2.5841,-2.5996,-2.5782,-2.5766,-2.6101,0.0,0.0,0.0,0.0,0.0,0.0,0.0,0.0,0.0,0.0,0.0,0.0,0.0,0.0,-3.0265,-2.9219,-2.8796,-2.8429,-2.7879,0.0,0.0,0.0,0.0,0.0,0.0,0.0,0.0,0.0,0.0,0.0,0.0,0.0,0.0,-2.1893,0.0,-2.1073,0.0,0.0,0.0,0.0,0.0,0.0,0.0,0.0,-2.3253,-2.3582,-2.3344,-2.4189,-2.4152,0.0,-2.34,-2.3125,0.0,0.0,0.0,0.0,0.0,0.0,0.0,0.0,-2.3309,-2.4002,-2.3978,-2.3855,-2.3692,-2.3735,-2.3588,-2.32,-2.3032,-2.2551,-2.1715,-2.1181,-2.0534,0.0,0.0,0.0,0.0,0.0,0.0,0.0,0.0,0.0,0.0,0.0,0.0,0.0,0.0,0.0,0.0,0.0,0.0,0.0,0.0,0.0,0.0,0.0,-2.2002,0.0,0.0,0.0,0.0,0.0,0.0,0.0,0.0,0.0,-2.4996,-2.552,-2.6045,-2.6388,-2.6706,-2.686,-2.6628,0.0,0.0,0.0,0.0,0.0,0.0,0.0,-2.901,-2.933,-2.9386,-2.9418,-2.9632,-3.0245,-3.0617,-3.0294,0.0,0.0,-3.0044,-2.9604,-2.9255,-2.8741,-2.8833,-2.8682,-2.7658,-2.786,-2.8062,0.0,0.0,0.0,0.0,0.0,0.0,0.0,0.0,-2.316,-2.3106,0.0,-2.2243,0.0,0.0,0.0,0.0,0.0,-2.2667,0.0,0.0,-2.4685,-2.5035,-2.4355,-2.5052,-2.5034,-2.43,-2.4301,-2.4283,-2.419,-2.2738,0.0,0.0,0.0,0.0,0.0,0.0,-2.3326,-2.415,-2.3955,-2.3816,-2.3837,-2.4019,-2.386,-2.333,-2.2952,-2.2503,-2.1972,-2.1641,-2.1295,-2.1021,-1.9926,0.0,0.0,0.0,0.0,0.0,0.0,0.0,0.0,0.0,0.0,0.0,0.0,0.0,0.0,0.0,0.0,0.0,0.0,0.0,0.0,-2.2019,0.0,0.0,0.0,0.0,0.0,0.0,0.0,0.0,0.0,0.0,-2.531,-2.6513,-2.7268,-2.667,0.0,0.0,0.0,0.0,-2.7087,-2.7922,-2.8075,-2.8452,-2.9312,-3.0076,-3.0281,-2.9574,0.0,0.0,-3.0531,-3.102,-3.1249,-3.0488,-3.0901,-3.1347,-3.1311,-3.0687,-3.0228,-3.0136,-2.9567,-2.9049,-2.8957,-2.887,-2.892,-2.6301,0.0,0.0,0.0,0.0,-2.6173,-2.6005,-2.5726,-2.5708,-2.5041,-2.3916,-2.3695,0.0,0.0,0.0,0.0,0.0,0.0,-2.5546,-2.5564,-2.6043,-2.6135,-2.5933,-2.6153,-2.6135,-2.5933,-2.5897,-2.5937,-2.5978,-2.552,-2.4395,-2.2718,0.0,0.0,0.0,0.0,-2.4321,-2.5096,-2.4504,-2.4154,-2.4172,-2.4229,-2.4096,-2.3732,-2.3382,-2.3141,-2.2975,-2.266,-2.2181,-2.154,-2.1266,0.0,0.0,0.0,0.0,0.0,0.0,0.0,0.0,0.0,0.0,0.0,0.0,0.0,0.0,0.0,0.0,0.0,0.0,0.0,-2.1855,-2.2036,-2.2528,0.0,0.0,0.0,0.0,0.0,0.0,0.0,0.0,0.0,-2.6904,-2.7273,-2.7716,0.0,0.0,-2.8572,-2.8333,-2.8364,-2.8504,-2.8809,-2.8929,0.0,0.0,-2.9965,-2.985,-3.0142,-3.052,-3.0655,-3.0388,-3.0991,-3.1421,-3.1121,-3.0785,-3.054,-3.0558,-3.0834,-3.0815,-3.0338,-3.0008,-2.9659,-2.9145,-2.8975,-2.8975,-2.794,-2.7903,-2.7195,-2.6897,-2.6897,-2.6897,-2.6859,-2.6782,-2.6782,-2.6391,-2.5703,-2.539,-2.4873,-2.419,-2.4355,0.0,0.0,0.0,-2.6612,-2.6631,-2.6924,-2.6924,-2.6649,-2.6924,-2.6906,-2.6631,-2.6633,-2.6654,-2.6675,-2.6682,-2.5945,-2.4524,0.0,0.0,-2.5338,-2.5338,-2.556,-2.5985,-2.5226,-2.4801,-2.4764,-2.4376,-2.4075,-2.3896,-2.3566,-2.341,-2.3405,-2.317,-2.288,-2.2476,-2.2217,-2.1538,0.0,0.0,0.0,0.0,0.0,0.0,0.0,0.0,0.0,0.0,0.0,-1.9423,-1.9012,0.0,0.0,0.0,-2.0463,-2.1507,-2.2441,-2.3159,0.0,0.0,0.0,0.0,0.0,0.0,0.0,-2.8214,-2.863,-2.8855,-2.8955,-2.9004,-2.9126,-2.9386,-2.9727,-2.9953,-2.9953,0.0,-2.9936,-2.9691,-2.9699,-2.9798,-3.0009,-2.9659,-2.9561,-3.029,-3.0397,-3.0457,-3.0722,-3.114,-3.1434,-3.1372,-3.0999,-3.0668,-3.0687,-3.1072,-3.1017,-2.9971,-2.9732,-2.9549,-2.9067,-2.8975,-2.8975,-2.9444,-2.937,-2.7677,-2.7046,-2.7102,-2.7102,-2.7082,-2.7005,-2.7005,-2.7352,-2.7837,-2.714,-2.7135,-2.764,-2.6998,0.0,-2.6704,-2.6738,-2.6814,-2.6833,-2.7548,-2.7512,-2.6851,-2.7548,-2.7512,-2.6814,-2.6857,-2.6838,-2.6835,-2.6864,-2.6907,-2.6907,-2.7006,-2.7045,-2.6894,-2.6877,-2.6858,-2.6796,-2.6059,-2.5634,-2.5484,-2.4478,-2.3935,-2.3917,-2.361,-2.3473,-2.3463,-2.3371,-2.3394,-2.3535,-2.2825,-2.2117,-2.1565,0.0,0.0,0.0,0.0,0.0,0.0,0.0,0.0,0.0,0.0,0.0,0.0,0.0,0.0,0.0,-2.2364,0.0,-2.3389,-2.4866,0.0,0.0,0.0,-2.6555,-2.7501,-2.825,-2.9011,-2.9789,0.0,0.0,-3.1102,-3.1219,-3.1042,-3.0461,-3.0962,-3.1403,-3.1403,-3.1397,-3.1225,-3.047,-3.0369,-3.012,-2.9588,-2.9403,-2.9584,-3.018,-3.0396,-3.0796,-3.1372,-3.1641,-3.1604,-3.1678,-3.1549,-3.1476,-3.1494,-3.1458,-3.0925,-2.9567,-2.9214,-2.914,-2.914,-2.909,-2.8994,-2.976,-3.0148,-2.8509,-2.8176,-2.8812,-2.8812,-2.8792,-2.8771,-2.873,-2.8426,-2.7957,-2.773,-2.7356,-2.6906,-2.7328,-2.7512,-2.753,-2.8154,-2.8425,-2.8425,-2.8608,-2.8631,-2.8448,-2.8631,-2.8608,-2.8425,-2.8448,-2.847,-2.8496,-2.8519,-2.8562,-2.8609,-2.8648,-2.8357,-2.7787,-2.7098,-2.7076,-2.7664,-2.6827,-2.6048,-2.5423,-2.4574,-2.4132,-2.4113,-2.3996,-2.3935,-2.3935,-2.3606,-2.3455,-2.35,-2.333,-2.2879,-2.2153,-2.1506,0.0,0.0,0.0,0.0,0.0,0.0,0.0,0.0,0.0,-2.0898,-1.9784,0.0,-2.1527,0.0,-2.2682,-2.3549,-2.4176,-2.4784,0.0,0.0,-2.7031,-2.7664,-2.9065,-2.9391,-2.9826,-3.0622,-3.0876,-3.103,-3.1084,-3.1674,-3.2082,-3.196,-3.1634,-3.1403,-3.1403,-3.1452,-3.1464,-3.1225,-3.0757,-3.036,-3.0157,-3.0074,-3.0088,-3.0272,-3.125,-3.21,-3.2284,-3.2834,-3.322,-3.3183,-3.2706,-3.2375,-3.232,-3.1825,-3.1329,-3.087,-3.0338,-2.9916,-2.9916,-2.9457,-2.8994,-3.0185,-3.0457,-2.9545,-2.9228,-2.9286,-2.8934,-2.8971,-2.9304,-2.9262,-2.896,-2.8507,-2.8791,-2.8856,-2.8778,-2.9182,-2.9402,-2.9402,-2.9494,-2.9549,-2.9512,-2.9182,-2.8975,-2.8975,-2.8975,-2.8975,-2.8975,-2.8975,-2.9017,-2.9062,-2.9067,-2.9112,-2.9156,-2.9178,-2.9,-2.86,-2.8075,-2.8052,-2.847,-2.7592,-2.6557,-2.5458,-2.498,-2.4557,-2.4208,-2.4151,-2.4074,-2.4036,-2.3816,-2.3671,-2.3649,-2.3624,-2.3279,-2.2542,-2.2195,-2.1676,0.0,0.0,0.0,0.0,0.0,0.0,0.0,0.0,0.0,0.0,0.0,-2.2628,0.0,-2.418,-2.5138,-2.5582,-2.6164,-2.7037,-2.8222,-2.8442,-2.9083,-3.0695,-3.0858,-3.1166,-3.1962,-3.2071,-3.2071,-3.2145,-3.2592,-3.2903,-3.3004,-3.2637,-3.2441,-3.2449,-3.2493,-3.2408,-3.204,-3.133,-3.0691,-3.0378,-3.0281,-3.0515,-3.1232,-3.2052,-3.2706,-3.3054,-3.3495,-3.3807,-3.377,-3.344,-3.3146,-3.3109,-3.2797,-3.2467,-3.2357,-3.1825,-3.1201,-3.0797,-3.0099,-2.9549,-3.0754,-3.0761,-3.0446,-3.0054,-2.9547,-2.8458,-2.8513,-2.9366,-2.9455,-2.9447,-2.9439,-3.0068,-3.0723,-3.1384,-3.1403,-3.1403,-3.1329,-3.0558,-3.021,-3.0155,-2.936,-2.8975,-2.8975,-2.8975,-2.8975,-2.8975,-2.8975,-2.8975,-2.8975,-2.9044,-2.9085,-2.9089,-2.9134,-2.9156,-2.9178,-2.9178,-2.9134,-2.9089,-2.8231,-2.7129,-2.5752,-2.5493,-2.5052,-2.4392,-2.4168,-2.4054,-2.3996,-2.3917,-2.3876,-2.3795,-2.3795,-2.3506,-2.289,-2.2743,-2.2361,0.0,-2.1281,0.0,0.0,0.0,0.0,0.0,0.0,0.0,0.0,-2.3014,-2.3804,-2.4383,-2.6091,-2.7157,-2.7139,-2.8108,-2.9057,-2.9844,-3.0069,-3.0659,-3.2017,-3.2288,-3.2614,-3.3321,-3.3393,-3.3393,-3.3339,-3.3452,-3.352,-3.3522,-3.3552,-3.3579,-3.3725,-3.3697,-3.344,-3.2852,-3.2082,-3.1336,-3.0632,-3.0503,-3.1035,-3.2284,-3.2706,-3.2999,-3.3642,-3.3788,-3.3807,-3.3807,-3.377,-3.377,-3.3788,-3.3788,-3.3752,-3.3652,-3.3101,-3.2386,-3.1549,-3.0827,-3.0314,-3.1834,-3.2151,-3.0208,-3.0383,-3.1796,-2.9048,-2.8721,-3.0231,-3.0807,-3.1017,-3.0968,-3.1115,-3.1256,-3.1403,-3.1403,-3.1403,-3.1347,-3.0558,-3.021,-3.0173,-2.9384,-2.8975,-2.8975,-2.8975,-2.8975,-2.8975,-2.8975,-2.8975,-2.8975,-2.9017,-2.9017,-2.9017,-2.904,-2.9021,-2.9021,0.0,0.0,0.0,-2.8227,-2.7658,-2.731,-2.6023,-2.525,-2.5065,-2.4344,0.0,-2.3917,-2.3855,-2.3798,-2.3795,-2.3795,0.0,0.0,0.0,0.0,0.0,0.0,0.0,0.0,0.0,0.0,0.0,-2.458,-2.4335,-2.3084,-2.4769,-2.5735,-2.5279,-2.679,-2.785,-2.7959,-2.8838,-2.9773,-3.0677,-3.1329,-3.1872,-3.2198,-3.2759,-3.3248,-3.3357,-3.3393,-3.3393,-3.3393,-3.3452,-3.3509,-3.3538,-3.3615,-3.3698,-3.3726,-3.378,-3.3733,-3.3532,-3.2797,-3.2082,-3.1292,-3.1696,-3.21,-3.2651,-3.3201,-3.3587,-3.377,-3.3807,-3.3807,-3.3807,-3.3807,-3.3807,-3.3807,-3.3807,-3.378,-3.3726,-3.3579,-3.3066,-3.1715,-3.1224,-3.0924,-3.2188,0.0,-3.0807,-3.052,0.0,-2.9536,-2.9462,-3.0341,-3.0698,-3.1299,-3.199,-3.199,-3.2192,-3.2596,-3.2577,-3.2577,-3.254,-3.1751,-3.1384,-3.1347,-3.0558,-2.9971,-2.9604,-2.9604,-2.936,-2.9012,-2.942,-2.9604,-2.9622,-3.0008,-3.0191,-3.0191,-3.0173,-3.0167,-3.0125,-2.9692,-2.9308,-2.8952,-2.8544,-2.81,-2.7698,-2.6871,-2.6045,-2.5278,0.0,0.0,0.0,0.0,0.0,0.0,0.0,0.0,0.0,0.0,0.0,-2.2976,-2.2491,-2.2549,-2.3294,-2.3673,-2.4155,-2.4892,-2.5667,-2.5737,-2.4892,-2.5946,-2.6771,-2.7104,-2.8006,-2.8723,-2.9218,-2.9794,-3.0502,-3.1361,-3.187,-3.2343,-3.2741,-3.3158,-3.3393,-3.3393,-3.3393,-3.3393,-3.3393,-3.3422,-3.3481,-3.3509,-3.3549,-3.3633,-3.3643,-3.3726,-3.3697,-3.3293,-3.2926,-3.2485,-3.2137,-3.2302,-3.2779,-3.3146,-3.3532,-3.377,-3.3807,-3.3807,-3.3807,-3.3807,-3.3807,-3.3807,-3.3734,-3.3734,-3.3726,-3.3671,-3.3643,-3.3095,-3.1704,-3.1605,-3.1616,-3.214,-3.1464,-3.1354,-3.0551,-2.9452,-2.9843,-3.0081,-3.0204,0.0,0.0,0.0,-3.279,-3.3156,-3.3762,-3.378,-3.3762,-3.3725,-3.2928,-3.2562,-3.2525,-3.1744,-3.0937,-3.018,-3.0143,-2.974,-2.9025,-2.9758,-3.0186,-3.0204,-3.0992,-3.1359,-3.1378,-3.1359,-3.1261,-3.102,-3.0348,-2.9612,-2.8876,-2.881,-2.85,-2.7825,-2.7656,-2.6964,-2.5634,-2.5408,-2.4965,-2.433,-2.423,-2.4208,-2.4169,-2.4147,-2.4122,-2.4069,-2.4046,-2.3978,-2.388,-2.3744,-2.3954,-2.4615,-2.4689,-2.5015,-2.577,-2.642,-2.6753,-2.663,-2.6718,-2.7385,-2.8772,-2.9017,-2.9478,-3.0411,-3.0695,-3.1159,-3.1978,-3.2234,-3.2629,-3.3225,-3.3364,-3.3393,-3.3393,-3.3393,-3.3393,-3.3393,-3.3393,-3.3441,-3.3481,-3.3491,-3.352,-3.3605,-3.3671,-3.357,-3.3038,-3.2883,-3.28,-3.2763,-3.28,-3.3038,-3.357,-3.3698,-3.378,-3.378,-3.378,-3.378,-3.3753,-3.378,-3.3753,-3.3716,-3.3671,-3.3643,-3.3605,-3.3577,-3.3158,-3.1856,-3.2019,-3.2238,-3.155,-3.1372,-3.0674,-3.0632,-3.0962,-2.9714,-2.9525,-3.0229,-3.1634,-3.2779,-3.3623,-3.3588,-3.3588,-3.3698,-3.3661,-3.3633,-3.356,-3.2794,-3.242,0.0,-3.1608,-3.0805,-3.0038,-3.002,-2.96,-2.8943,-2.9655,-3.002,-3.0111,-3.0859,-3.1243,-3.1261,-3.1243,-3.0914,-3.0239,-3.0017,-2.9537,-2.8737,-2.8785,-2.8749,-2.8646,-2.7906,-2.7427,-2.7172,-2.6431,-2.6005,-2.5878,-2.5726,-2.5691,-2.5673,-2.5571,-2.5497,-2.5497,-2.5379,-2.5339,-2.5295,-2.5165,-2.5165,-2.527,-2.5893,-2.6595,-2.728,-2.7473,-2.728,-2.6683,-2.7192,-2.7929,-2.8807,-2.8978,-2.9585,-3.1066,-3.1359,-3.1756,-3.2577,-3.2893,-3.3039,-3.3147,-3.3304,-3.3393,-3.3393,-3.3393,-3.3393,-3.3393,-3.3393,-3.3393,-3.3422,-3.3452,-3.352,-3.3577,-3.3605,-3.3597,-3.3469,-3.3451,-3.3451,-3.3378,-3.3451,-3.3469,-3.3578,-3.3615,-3.3661,-3.3643,-3.3643,-3.3661,-3.3633,-3.3661,-3.3633,-3.3633,-3.3615,-3.3577,-3.3538,-3.3509,-3.3146,-3.2182,-3.2589,-3.2744,-3.1195,-3.0723,-3.0356,-3.0112,-2.9978,-2.9216,-2.9338,-3.0136,-3.1313,-3.2308,-3.3058,-3.3442,-3.3661,-3.3661,-3.3587,-3.3605,-3.3587,-3.3222,-3.3058,-3.304,-3.2675,-3.2074,-3.1308,-3.087,-3.025,-2.9539,-3.0268,-3.0651,-3.0779,-3.1891,-3.2493,-3.2511,-3.2456,-3.2056,-3.131,-3.1175,-3.0549,-2.9315,-2.8905,-2.8687,-2.8687,-2.83,-2.7901,-2.7465,-2.6965,-2.6519,-2.6105,-2.5942,-2.5886,-2.5886,-2.5854,-2.576,-2.5683,-2.5631,-2.5561,-2.5482,-2.5428,-2.5595,-2.6033,-2.6771,-2.735,-2.7666,-2.7701,-2.7754,-2.7841,-2.814,-2.8684,-2.9474,-2.9895,-3.063,-3.1855,-3.206,-3.2267,-3.2702,-3.2916,-3.3024,-3.3086,-3.3147,-3.3274,-3.3364,-3.3393,-3.3393,-3.3393,-3.3393,-3.3393,-3.3411,-3.3422,-3.3452,-3.3491,-3.3559,-3.3615,-3.3587,-3.3605,-3.3605,-3.3605,-3.3605,-3.3605,-3.3605,-3.3605,-3.3605,-3.3605,-3.3605,-3.3605,-3.3605,-3.3605,-3.3577,-3.3567,-3.3549,-3.3509,-3.3452,-3.3452,-3.3096,-3.2524,-3.2524,-3.2578,-3.0479,-2.991,-2.9886,-2.9478,-2.8918,-2.9034,-2.9314,-2.9787,-3.0753,-3.1518,-3.2174,-3.314,-3.3559,-3.3595,-3.3549,-3.3549,-3.3549,-3.353,-3.3549,-3.3549,-3.353,-3.3148,-3.2365,-3.171,-3.0909,-3.0181,-3.0964,-3.1328,-3.1364,-3.2766,-3.3549,-3.3549,-3.3491,-3.3063,-3.23,-3.2226,-3.1401,-2.9835,-2.914,-2.876,-2.8605,-2.8562,-2.8247,-2.7669,-2.7471,-2.7133,-2.6534,-2.6371,-2.6312,-2.6294,-2.6268,-2.6171,-2.6091,-2.6091,-2.6037,-2.5928,-2.5928,-2.6191,-2.6806,-2.7368,-2.7701,-2.7701,-2.7877,-2.8228,-2.8825,-2.9246,-2.965,-3.0299,-3.0826,-3.1475,-3.2212,-3.2489,-3.2557,-3.2573,-3.2705,-3.2866,-3.2961,-3.3024,-3.3117,-3.3304,-3.3316,-3.3316,-3.3364,-3.3393,-3.3393,-3.3393,-3.3393,-3.3393,-3.3422,-3.3549,-3.3605,-3.3577,-3.3577,-3.3605,-3.3577,-3.3549,-3.3549,-3.3549,-3.3549,-3.3549,-3.3549,-3.3549,-3.3549,-3.3549,-3.3549,-3.3538,-3.3481,-3.3481,-3.3452,-3.3411,-3.3393,-3.3194,-3.2705,-3.256,-3.2669,-2.9088,-2.9015,-2.8985,-2.8901,-2.8883,-2.9539,-2.946,-2.91,-3.0428,-3.1102,-3.1329,-3.2791,-3.3473,-3.3491,-3.3452,-3.3422,-3.3422,-3.3422,-3.3441,-3.3422,-3.3422,-3.3006,-3.2299,-3.2117,-3.1302,-3.0196,-3.1374,-3.1701,-3.1193,-3.2661,-3.3422,-3.3441,-3.3393,-3.3013,-3.2306,-3.2216,-3.1363,-2.9683,-2.953,-2.9206,-2.8641,-2.8484,-2.837,-2.8316,-2.8174,-2.8076,-2.7897,-2.7885,-2.7766,-2.7784,-2.7571,-2.7502,-2.7484,-2.7502,-2.7502,-2.7455,-2.7455,-2.7543,-2.7578,-2.7666,-2.7701,-2.7736,-2.8368,-2.8807,-2.9018,-3.0176,-3.0984,-3.1124,-3.1159,-3.1598,-3.2283,-3.244,-3.244,-3.2457,-3.2557,-3.2621,-3.2687,-3.2802,-3.2961,-3.3086,-3.3135,-3.3196,-3.3334,-3.3364,-3.3364,-3.3364,-3.3364,-3.3364,-3.3393,-3.3452,-3.3481,-3.3481,-3.3577,-3.3605,-3.3481,-3.3422,-3.3422,-3.3422,-3.3422,-3.3422,-3.3452,-3.3422,-3.3441,-3.3433,-3.3422,-3.3422,-3.3422,-3.3393,-3.3393,-3.3393,-3.3393,-3.3357,-3.3284,-3.3212,-3.3266,-2.8834,-2.8834,-2.881,-2.8785,-2.8791,-2.9075,-2.8953,-2.8789,-2.986,-3.0559,-3.1121,-3.2226,-3.2998,-3.3452,-3.3393,-3.3393,-3.3393,-3.3393,-3.3393,-3.3393,-3.3393,-3.3212,-3.2904,-3.2397,-3.1818,-3.1274,-3.1908,-3.2007,-3.1784,-3.2595,-3.3104,-3.3104,-3.3104,-3.2924,-3.2637,-3.2619,-3.1799,-3.0188,-3.0116,-2.9582,-2.8497,-2.8327,-2.8273,-2.8273,-2.8164,-2.8099,-2.8081,-2.7922,-2.7836,-2.7836,-2.773,-2.7701,-2.7701,-2.7701,-2.7701,-2.7701,-2.7701,-2.7701,-2.7701,-2.7701,-2.7912,-2.8368,-2.8702,-2.9263,-3.0176,-3.0843,-3.137,-3.1826,-3.1897,-3.2055,-3.2353,-3.2406,-3.2406,-3.2406,-3.2439,-3.2541,-3.2588,-3.2672,-3.282,-3.293,-3.2961,-3.2993,-3.3073,-3.3104,-3.3135,-3.3214,-3.3226,-3.3256,-3.3382,-3.3509,-3.3538,-3.347,-3.3577,-3.3605,-3.3433,-3.3393,-3.3393,-3.3393,-3.3393,-3.3393,-3.3393,-3.3393,-3.3393,-3.3393,-3.3393,-3.3393,-3.3393,-3.3393,-3.3393,-3.3393,-3.3393,-3.3393,-3.3393,-3.3393,-3.3393,-2.8785,-2.8761,-2.8737,-2.8712,-2.8669,-2.8612,-2.8587,-2.8641,-2.9228,-3.0025,-3.1021,-3.1618,-3.2451,-3.3302,-3.3393,-3.3393,-3.3393,-3.3393,-3.3364,-3.3334,-3.3334,-3.3304,-3.3202,-3.2697,-3.2282,-3.2108,-3.227,-3.2301,-3.2235,-3.2626,-3.2916,-3.2916,-3.2916,-3.2916,-3.2916,-3.2916,-3.2206,-3.0914,-3.0772,-3.0101,-2.8934,-2.8721,-2.8536,-2.819,-2.7996,-2.7911,-2.7911,-2.7777,-2.7701,-2.7701,-2.7701,-2.7701,-2.7701,-2.7701,-2.7701,-2.7701,-2.7701,-2.7701,-2.7701,-2.7912,-2.8263,-2.886,-2.9228,-2.9983,-3.0949,-3.1405,-3.1791,-3.2265,-3.2406,-3.2388,-3.2406,-3.2406,-3.2406,-3.2406,-3.2406,-3.2457,-3.2506,-3.2557,-3.2606,-3.2787,-3.2802,-3.2834,-3.2866,-3.2916,-3.2979,-3.3042,-3.3055,-3.3086,-3.3244,-3.3375,-3.3386,-3.3286,-3.3386,-3.3462,-3.3393,-3.3393,-3.3393,-3.3393,-3.3393,-3.3393,-3.3393,-3.3393,-3.3393,-3.3393,-3.3393,-3.3393,-3.3393,-3.3393,-3.3364,-3.3393,-3.3393,-3.3364,-3.3393,-3.3393,-3.3393,-2.8694,-2.8694,-2.8637,-2.863,-2.8612,-2.8587,-2.8587,-2.8587,-2.8659,-2.9554,-3.0894,-3.1057,-3.1926,-3.3345,-3.3364,-3.3393,-3.3393,-3.3364,-3.3274,-3.3135,-3.3117,-3.3042,-3.2916,-3.2862,-3.2469,-3.1982,-3.2501,-3.2805,-3.2809,-3.2848,-3.2916,-3.2902,-3.2884,-3.2884,-3.2884,-3.2852,-3.241,-3.1483,-3.1363,-3.0928,-3.0099,-2.9962,-2.9316,-2.8269,-2.7871,-2.7801,-2.7766,-2.773,-2.7701,-2.7701,-2.7701,-2.7701,-2.7701,-2.7701,-2.7701,-2.7701,-2.7719,-2.7736,-2.7841,-2.8438,-2.8912,-2.9123,-3.0211,-3.1089,-3.13,-3.1861,-3.2265,-3.2406,-3.2406,-3.2406,-3.2406,-3.2406,-3.2406,-3.2406,-3.2406,-3.2406,-3.244,-3.2422,-3.2473,-3.259,-3.2606,-3.2672,-3.2852,-3.2916,-3.2884,-3.2866,-3.2898,-3.2916,-3.2979,-3.2961,-3.2961,-3.2961,-3.3011,-3.306,-3.3304,-3.3334,-3.3334,-3.3316,-3.3286,-3.3345,-3.3393,-3.3393,-3.3393,-3.3364,-3.3334,-3.3334,-3.3364,-3.3364,-3.3334,-3.3334,-3.3304,-3.3334,-3.3274,-3.3364,-3.3334,-2.8619,-2.8619,-2.8612,-2.8587,-2.8587,-2.8587,-2.8587,-2.8587,-2.8528,-2.9341,-3.062,-3.0715,-3.1583,-3.3091,-3.3073,-3.3135,-3.3196,-3.3104,-3.3042,-3.2961,-3.2979,-3.2948,-3.2916,-3.2916,-3.2759,-3.2563,-3.2741,-3.2834,-3.2722,-3.2641,-3.2574,-3.2574,-3.2574,-3.2574,-3.2574,-3.2592,-3.217,-3.1414,-3.1326,-3.0909,-3.0211,-3.0106,-2.9839,-2.9374,-2.8767,-2.8473,-2.8456,-2.7982,-2.7701,-2.7701,-2.7701,-2.7701,-2.7701,-2.7701,-2.7701,-2.7754,-2.8175,-2.8473,-2.8561,-2.9228,-2.9878,-3.0352,-3.0843,-3.144,-3.1879,-3.223,-3.2406,-3.2406,-3.2406,-3.2406,-3.2406,-3.2406,-3.2406,-3.2406,-3.2406,-3.2406,-3.2406,-3.2406,-3.244,-3.2439,-3.2473,-3.2507,-3.2574,-3.2574,-3.259,-3.2654,-3.2687,-3.277,-3.2884,-3.2916,-3.2884,-3.2916,-3.2916,-3.2948,-3.3042,-3.3073,-3.3073,-3.3073,-3.3073,-3.3073,-3.3104,-3.3104,-3.3104,-3.3135,-3.3135,-3.3135,-3.3135,-3.3135,-3.3135,-3.3135,-3.3152,-3.3152,-3.3091,-3.3135,-3.3135,-2.8993,-2.8956,-2.8696,-2.8587,-2.8587,-2.8562,-2.8536,-2.851,-2.8424,-2.9062,-3.0127,-3.0415,-3.126,-3.2402,-3.2695,-3.2834,-3.293,-3.2898,-3.2884,-3.2802,-3.2802,-3.2787,-3.2722,-3.2722,-3.2722,-3.2722,-3.274,-3.2674,-3.2574,-3.2457,-3.2406,-3.2406,-3.2406,-3.2406,-3.2406,-3.2406,-3.209,-3.1668,-3.1547,-3.125,-3.0795,-3.0727,-3.0727,-3.0622,-2.9957,-2.9446,-2.9299,-2.8754,-2.8303,-2.8092,-2.8057,-2.7905,-2.7694,-2.7857,-2.7979,-2.8049,-2.8749,-2.9187,-2.9274,-2.9922,-3.0569,-3.1042,-3.1373,-3.1776,-3.2266,-3.2319,-3.2301,-3.2301,-3.2301,-3.2319,-3.2354,-3.2354,-3.2354,-3.2406,-3.2406,-3.2406,-3.2406,-3.2406,-3.2406,-3.2406,-3.2406,-3.2406,-3.2406,-3.2406,-3.2457,-3.2523,-3.2557,-3.259,-3.2707,-3.274,-3.2722,-3.274,-3.269,-3.2707,-3.274,-3.274,-3.2902,-3.2916,-3.2916,-3.2884,-3.2852,-3.2884,-3.2884,-3.2884,-3.2884,-3.2916,-3.2916,-3.2916,-3.2884,-3.2884,-3.2948,-3.3011,-3.2948,-3.2916,-3.2916,-2.9807,-2.9699,-2.8931,-2.8688,-2.8662,-2.854,-2.8434,-2.8398,-2.8255,-2.8719,-2.9547,-3.0136,-3.0808,-3.1662,-3.2211,-3.2535,-3.2533,-3.2734,-3.2737,-3.2606,-3.2588,-3.2557,-3.2457,-3.2474,-3.2474,-3.2457,-3.244,-3.244,-3.244,-3.2406,-3.2406,-3.2406,-3.2406,-3.2371,-3.2406,-3.2371,-3.2388,-3.2266,-3.2144,-3.2074,-3.2161,-3.1969,-3.1899,-3.1899,-3.122,-3.0609,-3.0162,-3.0021,-2.9534,-2.8907,-2.8802,-2.8373,-2.7927,-2.8279,-2.861,-2.8731,-2.9358,-2.9776,-2.988,-3.0506,-3.0942,-3.1167,-3.1638,-3.2074,-3.2161,-3.2161,-3.2144,-3.2179,-3.2144,-3.2144,-3.2179,-3.2214,-3.2267,-3.2406,-3.2406,-3.2406,-3.2406,-3.2406,-3.2406,-3.2406,-3.2406,-3.2406,-3.2406,-3.2406,-3.244,-3.244,-3.244,-3.2422,-3.2508,-3.2508,-3.2422,-3.244,-3.2491,-3.2525,-3.2474,-3.244,-3.2626,-3.2805,-3.2787,-3.2787,-3.2755,-3.2755,-3.2755,-3.2755,-3.2722,-3.2755,-3.2722,-3.2722,-3.2755,-3.2755,-3.282,-3.282,-3.2787,-3.2773,-3.2787,-3.055,-3.0404,-3.017,-2.9665,-2.9124,-2.9032,-2.8746,-2.8264,-2.8109,-2.8497,-2.9142,-2.9354,-2.9841,-3.0635,-3.1311,-3.1663,-3.1698,-3.2258,-3.2507,-3.2473,-3.2491,-3.2457,-3.2406,-3.2406,-3.2406,-3.2406,-3.2406,-3.2406,-3.2406,-3.2406,-3.2354,-3.2267,-3.2267,-3.2232,-3.2196,-3.2196,-3.2196,-3.2196,-3.2161,-3.2144,-3.2126,-3.2126,-3.2108,-3.2091,-3.1829,-3.1638,-3.1446,-3.0452,-2.9789,-2.9495,-2.9478,-2.9356,-2.9166,-2.9306,-2.9428,-2.9515,-3.0158,-3.0542,-3.0629,-3.1255,-3.1672,-3.1742,-3.1951,-3.2091,-3.2108,-3.2126,-3.2108,-3.2126,-3.2126,-3.2108,-3.2108,-3.2108,-3.2196,-3.2371,-3.2406,-3.2406,-3.2406,-3.2406,-3.2406,-3.2406,-3.2406,-3.2406,-3.2406,-3.2406,-3.2458,-3.2458,-3.2458,-3.2458,-3.2458,-3.2476,-3.2406,-3.2406,-3.2406,-3.2423,-3.2406,-3.2406,-3.2508,-3.2626,-3.2641,-3.2674,-3.2641,-3.2641,-3.2608,-3.2608,-3.2608,-3.2608,-3.2574,-3.2574,-3.2608,-3.2574,-3.2592,-3.2592,-3.2558,-3.2592,-3.2641,-3.0952,-3.1022,-3.0754,-3.0284,-2.9715,-2.939,-2.898,-2.8518,-2.8074,-2.8147,-2.8541,-2.8833,-2.9334,-3.0141,-3.0861,-3.137,-3.1668,-3.2161,-3.2319,-3.2354,-3.2388,-3.2406,-3.2406,-3.2406,-3.2406,-3.2406,-3.2354,-3.2319,-3.2319,-3.2319,-3.2232,-3.2196,-3.2144,-3.2144,-3.2108,-3.2108,-3.2108,-3.2108,-3.2037,-3.202,-3.202,-3.2001,-3.1965,-3.1982,-3.1965,-3.2001,-3.1896,-3.1011,-3.0421,-3.0161,-2.9866,-2.9693,-2.971,-2.9936,-3.0127,-3.0283,-3.0786,-3.1219,-3.1306,-3.167,-3.1965,-3.1965,-3.1965,-3.2001,-3.2001,-3.2001,-3.2001,-3.202,-3.2001,-3.2018,-3.2037,-3.202,-3.2108,-3.2284,-3.2284,-3.2284,-3.2284,-3.2319,-3.2319,-3.2319,-3.2354,-3.2406,-3.2406,-3.2704,-3.2757,-3.2809,-3.2827,-3.302,-3.2985,-3.2757,-3.2651,-3.2546,-3.2546,-3.2511,-3.2423,-3.2406,-3.2406,-3.244,-3.2474,-3.2474,-3.2491,-3.2491,-3.2508,-3.2508,-3.2491,-3.2491,-3.2491,-3.2457,-3.2457,-3.2406,-3.2406,-3.244,-3.2474,-3.2474,-3.2491,-3.1166,-3.1622,-3.0897,-3.0523,-3.0315,-2.9573,-2.9071,-2.8824,-2.8106,-2.7818,-2.8017,-2.8614,-2.9334,-3.0124,-3.0828,-3.1494,-3.2161,-3.2214,-3.2214,-3.2232,-3.2319,-3.2354,-3.2354,-3.2371,-3.2371,-3.2354,-3.2267,-3.2232,-3.2196,-3.2161,-3.2108,-3.209,-3.2073,-3.2073,-3.2037,-3.2073,-3.2073,-3.2037,-3.1948,-3.1912,-3.1912,-3.1856,-3.1783,-3.1837,-3.1837,-3.1837,-3.1785,-3.1664,-3.1407,-3.082,-3.0214,-2.9903,-2.9834,-3.0351,-3.0783,-3.0818,-3.142,-3.1699,-3.1765,-3.1785,-3.1819,-3.1837,-3.1819,-3.1819,-3.1875,-3.1856,-3.1856,-3.1912,-3.1856,-3.1856,-3.1875,-3.1912,-3.1948,-3.2037,-3.2126,-3.2108,-3.2108,-3.2179,-3.2196,-3.2232,-3.2319,-3.2371,-3.2389,-3.2862,-3.3108,-3.3231,-3.3195,-3.3388,-3.3582,-3.3125,-3.2897,-3.2739,-3.2581,-3.2476,-3.2354,-3.2406,-3.2406,-3.2354,-3.2371,-3.2406,-3.2406,-3.2406,-3.2406,-3.2406,-3.2406,-3.2406,-3.2406,-3.2406,-3.2406,-3.2406,-3.2406,-3.2406,-3.2406,-3.2406,-3.2406,-3.18,-3.2264,-3.1554,-3.0836,-3.0251,-2.9888,-2.9167,-2.8147,-2.7871,-2.8122,-2.8544,-2.8807,-2.9337,-2.9992,-3.0779,-3.1218,-3.1463,-3.1917,-3.2108,-3.2144,-3.2161,-3.2196,-3.2196,-3.2232,-3.2232,-3.2179,-3.2144,-3.2126,-3.2108,-3.2073,-3.202,-3.1948,-3.1948,-3.1912,-3.191,-3.191,-3.1873,-3.1856,-3.1856,-3.1819,-3.1819,-3.1819,-3.18,-3.18,-3.18,-3.18,-3.18,-3.18,-3.1731,-3.156,-3.137,-3.1196,-3.1127,-3.1334,-3.1438,-3.1489,-3.1645,-3.18,-3.18,-3.18,-3.18,-3.18,-3.18,-3.1783,-3.1819,-3.1837,-3.18,-3.1819,-3.18,-3.18,-3.1819,-3.1819,-3.1873,-3.1893,-3.2001,-3.2073,-3.2073,-3.2108,-3.2108,-3.2108,-3.2144,-3.2196,-3.2249,-3.2423,-3.2634,-3.2686,-3.2739,-3.2844,-3.3247,-3.2985,-3.2582,-3.2564,-3.2458,-3.2336,-3.2301,-3.2354,-3.2354,-3.2301,-3.2319,-3.2406,-3.2406,-3.2406,-3.2406,-3.2406,-3.2406,-3.2406,-3.2406,-3.2406,-3.2406,-3.2406,-3.2406,-3.2406,-3.2406,-3.2406,-3.2406,-3.193,-3.2488,-3.2064,-3.1575,-3.1036,-3.0703,-2.9986,-2.9166,-2.8745,-2.8837,-2.9239,-2.9278,-2.968,-3.033,-3.0818,-3.1167,-3.1446,-3.1828,-3.202,-3.202,-3.202,-3.2037,-3.2108,-3.2144,-3.2161,-3.2108,-3.2037,-3.2037,-3.2001,-3.2001,-3.1929,-3.1875,-3.1839,-3.1839,-3.1837,-3.18,-3.18,-3.18,-3.18,-3.18,-3.18,-3.18,-3.18,-3.18,-3.18,-3.18,-3.18,-3.18,-3.18,-3.1783,-3.1783,-3.18,-3.18,-3.18,-3.18,-3.18,-3.18,-3.18,-3.18,-3.18,-3.18,-3.18,-3.18,-3.18,-3.18,-3.18,-3.18,-3.18,-3.18,-3.18,-3.18,-3.18,-3.18,-3.1819,-3.1893,-3.1982,-3.1965,-3.2001,-3.2037,-3.2037,-3.2073,-3.2108,-3.2126,-3.2316,-3.2526,-3.2667,-3.2772,-3.3034,-3.328,-3.2704,-3.2372,-3.2477,-3.2371,-3.2267,-3.2232,-3.2267,-3.2267,-3.2232,-3.2232,-3.2319,-3.2371,-3.2371,-3.2406,-3.2406,-3.2406,-3.2406,-3.2406,-3.2406,-3.2406,-3.2406,-3.2406,-3.2406,-3.2406,-3.2406,-3.2406,-3.1696,-3.2388,-3.2318,-3.2283,-3.2072,-3.1493,-3.0918,-3.0728,-3.0029,-2.9807,-2.9948,-2.9915,-3.035,-3.0994,-3.1116,-3.1394,-3.2002,-3.193,-3.1877,-3.1912,-3.1912,-3.1965,-3.2037,-3.2055,-3.2054,-3.2037,-3.1948,-3.1894,-3.1875,-3.1819,-3.18,-3.18,-3.1783,-3.18,-3.18,-3.18,-3.18,-3.18,-3.18,-3.18,-3.18,-3.18,-3.18,-3.18,-3.18,-3.18,-3.18,-3.18,-3.18,-3.18,-3.18,-3.18,-3.18,-3.18,-3.18,-3.18,-3.18,-3.18,-3.18,-3.18,-3.18,-3.18,-3.18,-3.18,-3.18,-3.18,-3.18,-3.18,-3.18,-3.18,-3.18,-3.18,-3.18,-3.18,-3.18,-3.18,-3.1837,-3.1856,-3.1894,-3.1894,-3.2001,-3.2073,-3.2247,-3.2595,-3.3012,-3.2437,-3.2595,-3.2753,-3.2876,-3.2545,-3.2475,-3.2684,-3.2458,-3.2144,-3.2144,-3.2161,-3.2144,-3.2144,-3.2144,-3.2196,-3.2284,-3.2319,-3.2354,-3.2354,-3.2319,-3.2371,-3.2406,-3.2406,-3.2406,-3.2406,-3.2406,-3.2406,-3.2406,-3.2406,-3.2406,-3.1175,-3.2353,-3.1721,-3.1424,-3.1357,-3.1182,-3.0747,-3.0157,-2.9965,-3.0228,-3.0593,-3.068,-3.1046,-3.167,-3.1636,-3.179,-3.1856,-3.1837,-3.1819,-3.1819,-3.1819,-3.1819,-3.191,-3.1929,-3.1929,-3.1893,-3.1873,-3.1819,-3.1837,-3.1837,-3.18,-3.18,-3.18,-3.18,-3.18,-3.18,-3.18,-3.18,-3.18,-3.18,-3.18,-3.18,-3.18,-3.18,-3.18,-3.18,-3.18,-3.18,-3.18,-3.18,-3.18,-3.18,-3.18,-3.18,-3.18,-3.18,-3.18,-3.18,-3.18,-3.18,-3.18,-3.18,-3.18,-3.18,-3.18,-3.18,-3.18,-3.18,-3.18,-3.18,-3.18,-3.18,-3.18,-3.18,-3.18,-3.18,-3.18,-3.1819,-3.1819,-3.1819,-3.1856,-3.1856,-3.1873,-3.2014,-3.2204,-3.2189,-3.2277,-3.2348,-3.2296,-3.2227,-3.2241,-3.2286,-3.2113,-3.1748,-3.1694,-3.1674,-3.1711,-3.1711,-3.1748,-3.1802,-3.1875,-3.2001,-3.1965,-3.2073,-3.2232,-3.2284,-3.2284,-3.2406,-3.2354,-3.2406,-3.2406,-3.2406,-3.2406,-3.2406,-3.2336,-3.1233,-3.2214,-3.1794,-3.162,-3.1585,-3.1585,-3.1272,-3.0838,-3.0786,-3.0976,-3.1253,-3.1322,-3.1529,-3.1821,-3.1839,-3.1802,-3.18,-3.18,-3.18,-3.18,-3.18,-3.18,-3.18,-3.1819,-3.1819,-3.18,-3.18,-3.18,-3.18,-3.18,-3.18,-3.18,-3.18,-3.18,-3.18,-3.18,-3.18,-3.18,-3.18,-3.18,-3.18,-3.18,-3.18,-3.18,-3.18,-3.18,-3.18,-3.18,-3.18,-3.18,-3.18,-3.18,-3.18,-3.18,-3.18,-3.18,-3.18,-3.18,-3.18,-3.18,-3.18,-3.18,-3.18,-3.18,-3.18,-3.18,-3.18,-3.18,-3.18,-3.18,-3.18,-3.18,-3.18,-3.18,-3.18,-3.18,-3.18,-3.18,-3.18,-3.18,-3.18,-3.18,-3.18,-3.18,-3.1817,-3.1994,-3.194,-3.1975,-3.1679,-3.1572,-3.1423,-3.1414,-3.1402,-3.1261,-3.1184,-3.1145,-3.1145,-3.1106,-3.1083,-3.1106,-3.1145,-3.1317,-3.1487,-3.1728,-3.1984,-3.2073,-3.2073,-3.2196,-3.2301,-3.2319,-3.2319,-3.2371,-3.2371,-3.2319,-3.2196,-3.1289,-3.1934,-3.2056,-3.209,-3.2073,-3.2055,-3.1932,-3.186,-3.1875,-3.1683,-3.1783,-3.18,-3.1768,-3.18,-3.18,-3.18,-3.18,-3.18,-3.18,-3.18,-3.18,-3.18,-3.18,-3.1783,-3.1783,-3.18,-3.18,-3.18,-3.18,-3.18,-3.18,-3.18,-3.18,-3.18,-3.18,-3.18,-3.18,-3.18,-3.18,-3.18,-3.18,-3.18,-3.18,-3.18,-3.18,-3.18,-3.18,-3.18,-3.18,-3.18,-3.18,-3.18,-3.18,-3.18,-3.18,-3.18,-3.18,-3.18,-3.18,-3.18,-3.18,-3.18,-3.18,-3.18,-3.18,-3.18,-3.18,-3.18,-3.18,-3.18,-3.18,-3.18,-3.18,-3.18,-3.18,-3.18,-3.18,-3.18,-3.18,-3.18,-3.18,-3.18,-3.18,-3.18,-3.18,-3.18,-3.1709,-3.1579,-3.124,-3.1004,-3.0885,-3.0868,-3.0908,-3.0908,-3.0868,-3.0788,-3.0747,-3.0707,-3.0601,-3.0584,-3.0543,-3.0625,-3.0908,-3.147,-3.1711,-3.1711,-3.1821,-3.1948,-3.2073,-3.2144,-3.2108,-3.202,-3.2073,-3.2161,-3.2001,-3.0419,-3.1185,-3.183,-3.202,-3.193,-3.1948,-3.1875,-3.1819,-3.1819,-3.1837,-3.18,-3.18,-3.18,-3.18,-3.18,-3.18,-3.18,-3.18,-3.18,-3.18,-3.18,-3.18,-3.18,-3.18,-3.18,-3.18,-3.18,-3.18,-3.18,-3.18,-3.18,-3.18,-3.18,-3.18,-3.18,-3.18,-3.18,-3.18,-3.18,-3.18,-3.18,-3.18,-3.18,-3.18,-3.18,-3.18,-3.18,-3.18,-3.18,-3.18,-3.18,-3.18,-3.18,-3.18,-3.18,-3.18,-3.18,-3.18,-3.18,-3.18,-3.18,-3.18,-3.18,-3.18,-3.18,-3.18,-3.18,-3.18,-3.18,-3.1763,-3.18,-3.1709,-3.1763,-3.18,-3.1746,-3.1763,-3.1763,-3.18,-3.1746,-3.1709,-3.1746,-3.18,-3.18,-3.1763,-3.1709,-3.1617,-3.1449,-3.124,-3.0925,-3.0683,-3.0559,-3.0543,-3.0543,-3.0584,-3.0543,-3.0502,-3.046,-3.0377,-3.0309,-3.0309,-3.0208,-3.0054,-3.0293,-3.0851,-3.1145,-3.1184,-3.1338,-3.1582,-3.1711,-3.1748,-3.1657,-3.1565,-3.1565,-3.1565,-3.1317,-3.0127,-3.0855,-3.1617,-3.1893,-3.1856,-3.1839,-3.1819,-3.18,-3.18,-3.18,-3.18,-3.18,-3.18,-3.18,-3.18,-3.18,-3.18,-3.18,-3.18,-3.18,-3.18,-3.18,-3.18,-3.18,-3.18,-3.18,-3.18,-3.18,-3.18,-3.18,-3.18,-3.18,-3.18,-3.18,-3.18,-3.18,-3.18,-3.18,-3.18,-3.18,-3.18,-3.18,-3.18,-3.18,-3.18,-3.18,-3.18,-3.18,-3.18,-3.18,-3.18,-3.18,-3.18,-3.18,-3.18,-3.18,-3.18,-3.18,-3.18,-3.18,-3.18,-3.18,-3.18,-3.18,-3.18,-3.18,-3.18,-3.1746,-3.1542,-3.1542,-3.1746,-3.1428,-3.1372,-3.1671,-3.1579,-3.1449,-3.1504,-3.1617,-3.1579,-3.1487,-3.1617,-3.1709,-3.18,-3.1763,-3.1671,-3.1449,-3.1201,-3.0908,-3.0543,-3.0335,-3.0097,-2.9968,-2.9968,-2.9968,-2.9968,-3.0011,-3.0011,-2.9968,-2.9984,-2.9924,-2.9837,-2.9633,-2.9837,-3.0251,-3.0418,-3.0526,-3.0771,-3.1027,-3.1145,-3.1317,-3.1184,-3.105,-3.0993,-3.0874,-3.0649,-2.9903,-3.0524,-3.142,-3.18,-3.18,-3.18,-3.18,-3.18,-3.18,-3.18,-3.18,-3.18,-3.18,-3.18,-3.18,-3.18,-3.18,-3.18,-3.18,-3.1763,-3.1671,-3.1634,-3.1634,-3.1579,-3.1521,-3.1596,-3.1596,-3.1726,-3.18,-3.18,-3.18,-3.18,-3.18,-3.18,-3.18,-3.18,-3.18,-3.18,-3.18,-3.18,-3.18,-3.18,-3.18,-3.18,-3.18,-3.18,-3.18,-3.18,-3.18,-3.18,-3.18,-3.18,-3.18,-3.18,-3.18,-3.18,-3.18,-3.18,-3.18,-3.18,-3.18,-3.18,-3.18,-3.18,-3.18,-3.18,-3.1746,-3.1617,-3.1372,-3.1162,-3.1295,-3.0942,-3.0925,-3.1179,-3.1179,-3.1004,-3.1083,-3.1162,-3.1179,-3.1257,-3.1411,-3.1487,-3.1504,-3.1504,-3.1372,-3.1004,-3.0707,-3.046,-3.0123,-2.9837,-2.9589,-2.9396,-2.9305,-2.9305,-2.9305,-2.9396,-2.9425,-2.947,-2.947,-2.947,-2.935,-2.9229,-2.9515,-2.981,-2.9766,-2.9881,-3.0182,-3.046,-3.0625,-3.0707,-3.0625,-3.0543,-3.0485,-3.0276,-3.0038,-2.9558,-2.9782,-3.1196,-3.18,-3.18,-3.18,-3.18,-3.18,-3.18,-3.18,-3.18,-3.18,-3.18,-3.18,-3.18,-3.18,-3.18,-3.18,-3.18,-3.1763,-3.1487,-3.1295,-3.1179,-3.0804,-3.0948,-3.1123,-3.1162,-3.1428,-3.1579,-3.1671,-3.18,-3.18,-3.18,-3.18,-3.18,-3.18,-3.18,-3.18,-3.18,-3.18,-3.18,-3.18,-3.18,-3.18,-3.18,-3.18,-3.18,-3.18,-3.18,-3.18,-3.18,-3.18,-3.18,-3.18,-3.18,-3.18,-3.18,-3.18,-3.18,-3.18,-3.1763,-3.1726,-3.1726,-3.18,-3.1671,-3.1634,-3.1504,-3.1218,-3.1067,-3.0948,-3.0804,-3.0559,-3.0559,-3.0642,-3.0683,-3.0601,-3.0601,-3.0788,-3.0845,-3.0764,-3.0868,-3.0948,-3.0988,-3.1044,-3.1004,-3.0625,-3.0251,-2.9995,-2.975,-2.9499,-2.9335,-2.9183,-2.9091,-2.9091,-2.9091,-2.9091,-2.9091,-2.9091,-2.9091,-2.9091,-2.9091,-2.9091,-2.9091,-2.9305,-2.9259,-2.947,-2.9897,-3.014,-3.0182,-3.014,-3.0081,-3.0011,-2.9924,-2.9722,-2.9544,-2.9369,-3.0265,-3.1351,-3.18,-3.18,-3.18,-3.18,-3.18,-3.18,-3.18,-3.18,-3.18,-3.18,-3.18,-3.18,-3.18,-3.18,-3.18,-3.18,-3.18,-3.1542,-3.1261,-3.101,-3.0811,-3.0754,-3.051,-3.0551,-3.0551,-3.0971,-3.1504,-3.18,-3.1763,-3.18,-3.18,-3.18,-3.18,-3.18,-3.18,-3.18,-3.18,-3.18,-3.18,-3.18,-3.18,-3.18,-3.18,-3.18,-3.18,-3.18,-3.18,-3.18,-3.18,-3.18,-3.18,-3.1746,-3.1671,-3.1763,-3.18,-3.18,-3.18,-3.1671,-3.1466,-3.1372,-3.1295,-3.114,-3.11,-3.1044,-3.0804,-3.0502,-3.0377,-3.0293,-3.0011,-3.014,-3.0225,-3.0225,-3.014,-3.0182,-3.0435,-3.0502,-3.0377,-3.0293,-3.0377,-3.0502,-3.0543,-3.0502,-3.0166,-2.9924,-2.975,-2.9499,-2.9289,-2.9167,-2.9137,-2.9091,-2.9091,-2.9091,-2.9091,-2.9091,-2.9091,-2.9091,-2.9091,-2.9091,-2.9091,-2.9091,-2.9091,-2.9183,-2.9441,-2.9722,-2.9722,-2.9649,-2.9589,-2.9544,-2.9387,-2.9291,-2.9393,-2.9273,-2.918,-3.0642,-3.102,-3.1401,-3.1728,-3.1539,-3.1627,-3.18,-3.18,-3.18,-3.18,-3.1746,-3.1746,-3.1746,-3.1763,-3.1726,-3.1726,-3.1763,-3.1726,-3.1726,-3.1559,-3.1145,-3.0771,-3.0551,-3.026,-2.9903,-2.9962,-3.0074,-3.0427,-3.0851,-3.1317,-3.1579,-3.1542,-3.1671,-3.18,-3.18,-3.18,-3.18,-3.18,-3.18,-3.18,-3.18,-3.18,-3.18,-3.18,-3.18,-3.18,-3.18,-3.18,-3.18,-3.18,-3.18,-3.1746,-3.1709,-3.1579,-3.1449,-3.1411,-3.1372,-3.1372,-3.1372,-3.1372,-3.1201,-3.0965,-3.0845,-3.0642,-3.0477,-3.0393,-3.0351,-3.0097,-3.0054,-2.9924,-2.9454,-2.9589,-2.9722,-2.981,-2.9722,-2.9677,-2.9881,-2.9968,-2.9793,-2.9705,-2.9793,-2.9881,-2.9995,-2.9924,-2.9722,-2.9544,-2.947,-2.9305,-2.9121,-2.9137,-2.9091,-2.9091,-2.9091,-2.9091,-2.9091,-2.9091,-2.9091,-2.9091,-2.9091,-2.9091,-2.9091,-2.9091,-2.9091,-2.9091,-2.9229,-2.9441,-2.9259,-2.9137,-2.915,-2.913,-2.8833,-2.874,-2.89,-2.8948,-2.8989,-3.0358,-2.9742,-3.0326,-3.1582,-3.0898,-3.1072,-3.1746,-3.18,-3.1763,-3.1763,-3.1671,-3.1634,-3.1634,-3.1634,-3.1596,-3.1538,-3.1579,-3.1614,-3.1423,-3.1078,-3.0747,-3.0318,-2.9978,-2.9661,-2.9451,-2.9406,-2.9613,-2.9946,-3.0005,-3.0493,-3.0914,-3.101,-3.1372,-3.1596,-3.1634,-3.1746,-3.1746,-3.1763,-3.1709,-3.1709,-3.1709,-3.1671,-3.1709,-3.1763,-3.18,-3.18,-3.1709,-3.1671,-3.1671,-3.1671,-3.1542,-3.1411,-3.1411,-3.1201,-3.0948,-3.0868,-3.0771,-3.0633,-3.0851,-3.1067,-3.0988,-3.0707,-3.0351,-3.0182,-3.0393,-3.0267,-2.9897,-2.9633,-2.9544,-2.938,-2.9183,-2.9213,-2.9305,-2.9425,-2.938,-2.9289,-2.9305,-2.9335,-2.9213,-2.9243,-2.938,-2.9425,-2.9544,-2.9589,-2.938,-2.935,-2.9259,-2.9259,-2.9137,-2.9091,-2.9091,-2.9091,-2.9091,-2.9091,-2.9091,-2.9091,-2.9091,-2.9091,-2.9091,-2.9091,-2.9091,-2.9091,-2.9091,-2.9091,-2.9091,-2.9091,-2.9091,-2.9059,-2.8917,-2.8837,-2.8758,-2.8616,-2.8663,-2.8616,-2.7947,-2.8744,-2.8489,-2.9581,-3.1504,-3.123,-3.1302,-3.1596,-3.1614,-3.1614,-3.1614,-3.1559,-3.1538,-3.1521,-3.1521,-3.1538,-3.15,-3.1538,-3.1517,-3.1479,-3.1252,-3.0723,-3.0234,-2.9761,-2.9451,-2.8951,-2.8826,-2.8826,-2.8997,-2.9241,-2.9435,-2.9816,-3.026,-3.0567,-3.0868,-3.1257,-3.1466,-3.1617,-3.1504,-3.1372,-3.1334,-3.1083,-3.1004,-3.1004,-3.1021,-3.114,-3.1257,-3.1317,-3.1278,-3.124,-3.124,-3.1067,-3.0834,-3.0771,-3.0608,-3.0302,-3.0302,-3.0175,-3.0031,-3.026,-3.0327,-3.0005,-2.9689,-2.9499,-2.9589,-2.9515,-2.9441,-2.9213,-2.9213,-2.9137,-2.9059,-2.8951,-2.8967,-2.9045,-2.9091,-2.9029,-2.9029,-2.9045,-2.9091,-2.9075,-2.9075,-2.9183,-2.9183,-2.9183,-2.9183,-2.9137,-2.9137,-2.9091,-2.9107,-2.9107,-2.906,-2.9045,-2.9045,-2.9091,-2.9075,-2.9091,-2.9091,-2.9091,-2.9091,-2.9091,-2.9091,-2.9075,-2.9075,-2.9091,-2.9012,-2.8963,-2.8963,-2.9044,-2.8996,-2.8869,-2.8884,-2.8948,-2.8758,-2.8395,-2.8395,-2.7216,-2.7755,-2.7789,-2.9064,-3.098,-3.11,-3.1274,-3.15,-3.15,-3.15,-3.15,-3.1462,-3.1462,-3.1462,-3.1462,-3.1423,-3.1423,-3.1423,-3.1423,-3.1385,-3.1269,-3.0764,-3.0192,-2.9717,-2.9332,-2.8621,-2.8411,-2.8493,-2.8541,-2.8556,-2.8748,-2.9058,-2.9361,-2.9717,-3.0344,-3.0608,-3.1004,-3.1162,-3.1027,-3.0828,-3.0788,-3.0584,-3.0418,-3.0402,-3.046,-3.0543,-3.0707,-3.073,-3.073,-3.0649,-3.0592,-3.0452,-3.0201,-2.9989,-2.9903,-2.9772,-2.9685,-2.9701,-2.9569,-2.9701,-2.9657,-2.9348,-2.9121,-2.8936,-2.881,-2.881,-2.8936,-2.8889,-2.8842,-2.8842,-2.8889,-2.8873,-2.8842,-2.892,-2.892,-2.8905,-2.8951,-2.8967,-2.8998,-2.9029,-2.9029,-2.9045,-2.9075,-2.9029,-2.9029,-2.8998,-2.8951,-2.8967,-2.8967,-2.8983,-2.8983,-2.8951,-2.8982,-2.9029,-2.9013,-2.9075,-2.9091,-2.9091,-2.9091,-2.9075,-2.9075,-2.9012,-2.8807,-2.8572,-2.8509,-2.8618,-2.8568,-2.8381,-2.8568,-2.8726,-2.8632,-2.841,-2.7952,-2.762,-2.8158,-2.7114,-2.7755,-2.7772,-2.8706,-3.0105,-3.0241,-3.0687,-3.1325,-3.1445,-3.1479,-3.1462,-3.1368,-3.1312,-3.1312,-3.1329,-3.1291,-3.1269,-3.1291,-3.1291,-3.1286,-3.123,-3.0658,-3.014,-2.9705,-2.9303,-2.8621,-2.8411,-2.8411,-2.8411,-2.846,-2.8493,-2.8493,-2.8732,-2.9104,-3.0005,-3.0133,-3.0234,-3.0293,-3.0218,-3.0218,-3.0234,-3.0107,-2.9978,-2.9978,-2.9935,-2.9978,-3.0107,-3.0175,-3.0133,-3.0091,-3.0074,-2.9946,-2.9745,-2.9701,-2.9524,-2.915,-2.9166,-2.8951,-2.8573,-2.912,-2.9136,-2.8889,-2.8747,-2.8747,-2.8747,-2.8747,-2.8747,-2.87,-2.8763,-2.8747,-2.8794,-2.8794,-2.8794,-2.8842,-2.8826,-2.8826,-2.8826,-2.8873,-2.892,-2.8951,-2.8936,-2.892,-2.8967,-2.8967,-2.892,-2.8889,-2.8811,-2.8826,-2.8842,-2.8842,-2.8889,-2.8889,-2.8905,-2.8951,-2.8951,-2.9029,-2.9091,-2.9091,-2.9045,-2.8998,-2.8778,-2.8526,-2.8306,-2.8025,-2.7821,-2.7787,-2.7674,-2.7604,-2.764,-2.7627,-2.7687,-2.751,-2.7036,-2.7115,-2.7873,-2.6826,-2.7114,-2.7587,-2.8112,-2.8672,-2.92,-2.9861,-3.0611,-3.107,-3.1308,-3.1308,-3.1269,-3.1252,-3.1252,-3.1213,-3.119,-3.119,-3.119,-3.119,-3.119,-3.1151,-3.0576,-3.0054,-2.9617,-2.9289,-2.8621,-2.8411,-2.8411,-2.8411,-2.8411,-2.8411,-2.8411,-2.8444,-2.8826,-2.9316,-2.9613,-2.9789,-3.0048,-2.9876,-2.9673,-2.9689,-2.9438,-2.9273,-2.9273,-2.9273,-2.9393,-2.9556,-2.9585,-2.9585,-2.9496,-2.9496,-2.9361,-2.9074,-2.8982,-2.8904,-2.8653,-2.8653,-2.8573,-2.8444,-2.8653,-2.8668,-2.8604,-2.8556,-2.8556,-2.8556,-2.8556,-2.8556,-2.8541,-2.8556,-2.8604,-2.8636,-2.8541,-2.8589,-2.8732,-2.8779,-2.8732,-2.8779,-2.8794,-2.8842,-2.8842,-2.8826,-2.8873,-2.8858,-2.8842,-2.8795,-2.8748,-2.8732,-2.8732,-2.8794,-2.8794,-2.8842,-2.8842,-2.8842,-2.8826,-2.8873,-2.892,-2.8967,-2.8967,-2.8936,-2.8889,-2.8592,-2.8152,-2.7809,-2.7529,-2.7214,-2.6914,-2.6816,-2.6675,-2.6412,-2.6365,-2.6718,-2.7182,-2.7198,-2.745,-2.8142,-2.6708,-2.6759,-2.7215,-2.7435,-2.7638,-2.8805,-2.9803,-3.048,-3.0987,-3.119,-3.1151,-3.1055,-3.0958,-3.0918,-3.0797,-3.0878,-3.0918,-3.0757,-3.0878,-3.0878,-3.0757,-3.0182,-2.975,-2.9496,-2.9044,-2.8573,-2.8396,-2.8411,-2.8411,-2.8411,-2.8411,-2.8411,-2.8411,-2.8621,-2.8904,-2.9028,-2.9166,-2.9332,-2.9212,-2.9074,-2.9059,-2.8889,-2.8684,-2.8684,-2.8732,-2.8763,-2.8936,-2.8997,-2.9028,-2.8904,-2.8873,-2.8779,-2.8493,-2.8411,-2.8411,-2.8411,-2.8411,-2.8411,-2.8396,-2.8444,-2.8493,-2.846,-2.8411,-2.8411,-2.8411,-2.846,-2.846,-2.8411,-2.8411,-2.8444,-2.8493,-2.8396,-2.8493,-2.8636,-2.8636,-2.8636,-2.8636,-2.8652,-2.87,-2.87,-2.8747,-2.8747,-2.8747,-2.8684,-2.8621,-2.8636,-2.8589,-2.8652,-2.87,-2.87,-2.8684,-2.87,-2.87,-2.8732,-2.8732,-2.8794,-2.8842,-2.881,-2.8794,-2.8732,-2.8171,-2.7656,-2.7346,-2.6956,-2.6271,-2.5788,-2.5878,-2.5768,-2.5664,-2.5815,-2.6224,-2.6675,-2.7233,-2.7721,-2.821,-2.6691,-2.6674,-2.6691,-2.6691,-2.7046,-2.8834,-3.0205,-3.097,-3.1038,-3.1021,-3.1038,-3.053,-3.0309,-3.0278,-2.9933,-2.9894,-3.0079,-2.9835,-2.9913,-3.0054,-2.9865,-2.9366,-2.9122,-2.9005,-2.8715,-2.8497,-2.8365,-2.8411,-2.8411,-2.8411,-2.8411,-2.8411,-2.8411,-2.8493,-2.8525,-2.8558,-2.8653,-2.8748,-2.8748,-2.8653,-2.8668,-2.8541,-2.8508,-2.8508,-2.8508,-2.8493,-2.8589,-2.8573,-2.8541,-2.8493,-2.8444,-2.8444,-2.8411,-2.8411,-2.8411,-2.8411,-2.8411,-2.8411,-2.8411,-2.8411,-2.8411,-2.8411,-2.8411,-2.8411,-2.8411,-2.8411,-2.8411,-2.8411,-2.8411,-2.8411,-2.8411,-2.8411,-2.8411,-2.846,-2.846,-2.846,-2.846,-2.8444,-2.8493,-2.8541,-2.8589,-2.8589,-2.8589,-2.8541,-2.8541,-2.8493,-2.8508,-2.8508,-2.8508,-2.8508,-2.8508,-2.8508,-2.8541,-2.8589,-2.8636,-2.8652,-2.87,-2.8652,-2.8668,-2.8512,-2.7891,-2.7056,-2.6458,-2.58,-2.5049,-2.4678,-2.4698,-2.4848,-2.5033,-2.5246,-2.5376,-2.5956,-2.6404,-2.7387,-2.7919,-2.628,-2.6245,-2.598,-2.6016,-2.6412,-2.7548,-2.833,-2.8803,-2.933,-2.9617,-2.9617,-2.9488,-2.9299,-2.8992,-2.8857,-2.8706,-2.8584,-2.8469,-2.8478,-2.8559,-2.8764,-2.8285,-2.8201,-2.8287,-2.8194,-2.8078,-2.8104,-2.835,-2.8411,-2.8411,-2.8411,-2.8411,-2.8411,-2.8411,-2.8411,-2.8411,-2.8444,-2.8444,-2.8396,-2.8444,-2.846,-2.8444,-2.8411,-2.8411,-2.8411,-2.8411,-2.8411,-2.8411,-2.8411,-2.8411,-2.8411,-2.8411,-2.8411,-2.8411,-2.8411,-2.8411,-2.8411,-2.8411,-2.8411,-2.8411,-2.8411,-2.8411,-2.8411,-2.8411,-2.8411,-2.8411,-2.8411,-2.8411,-2.8411,-2.8411,-2.8411,-2.8411,-2.8411,-2.8411,-2.8411,-2.8411,-2.8411,-2.8411,-2.8444,-2.8444,-2.8493,-2.8493,-2.8493,-2.8493,-2.8444,-2.8411,-2.8411,-2.8411,-2.8411,-2.8411,-2.8411,-2.8411,-2.8411,-2.8493,-2.8444,-2.8444,-2.8493,-2.8493,-2.835,-2.7944,-2.7035,-2.6242,-2.5469,-2.4762,-2.4143,-2.3684,-2.3408,-2.3687,-2.4141,-2.4058,-2.4208,-2.4961,-2.5706,-2.6681,-2.7456,-2.5852,-2.5835,-2.5615,-2.5652,-2.5901,-2.6348,-2.6693,-2.7111,-2.823,-2.8774,-2.8736,-2.8581,-2.8246,-2.7899,-2.7712,-2.7589,-2.7589,-2.7418,-2.7418,-2.7653,-2.7551,-2.7286,-2.7257,-2.7415,-2.7543,-2.7566,-2.778,-2.8088,-2.8304,-2.8411,-2.8411,-2.8411,-2.8411,-2.8411,-2.8411,-2.8411,-2.8411,-2.8411,-2.8411,-2.8411,-2.8411,-2.8411,-2.8411,-2.8411,-2.8411,-2.8411,-2.8411,-2.8411,-2.8411,-2.8411,-2.8411,-2.8411,-2.8411,-2.8411,-2.8411,-2.8411,-2.8411,-2.8411,-2.8411,-2.8411,-2.8411,-2.8411,-2.8411,-2.8411,-2.8411,-2.8411,-2.8411,-2.8411,-2.8411,-2.8411,-2.8411,-2.8411,-2.8411,-2.8411,-2.8411,-2.8411,-2.8411,-2.8411,-2.8411,-2.8411,-2.8411,-2.8411,-2.8411,-2.8411,-2.8411,-2.8411,-2.8411,-2.8411,-2.8411,-2.8411,-2.8411,-2.8411,-2.8411,-2.846,-2.8348,-2.8186,-2.8073,-2.791,-2.763,-2.7121,-2.6194,-2.5464,-2.4749,-2.3992,-2.3287,-2.3036,-2.2889,-2.2934,-2.3201,-2.3212,-2.336,-2.3867,-2.4788,-2.592,-2.661,-2.5406,-2.5465,-2.5465,-2.5411,-2.5481,-2.5497,-2.5551,-2.5686,-2.729,-2.8108,-2.7982,-2.7662,-2.7227,-2.6805,-2.6504,-2.6493,-2.6388,-2.6233,-2.6244,-2.6857,-2.6477,-2.6205,-2.6153,-2.6317,-2.6789,-2.7134,-2.7519,-2.7873,-2.8288,-2.8411,-2.8411,-2.8411,-2.8411,-2.8411,-2.8411,-2.8411,-2.8411,-2.8411,-2.8411,-2.8411,-2.8411,-2.8411,-2.8411,-2.8411,-2.8411,-2.8411,-2.8411,-2.8411,-2.8411,-2.8411,-2.8411,-2.8411,-2.8411,-2.8411,-2.8411,-2.8411,-2.8411,-2.8411,-2.8411,-2.8411,-2.8411,-2.8411,-2.8411,-2.8411,-2.8411,-2.8411,-2.8411,-2.8411,-2.8411,-2.8411,-2.8411,-2.8411,-2.8411,-2.8411,-2.8411,-2.8411,-2.8411,-2.8411,-2.8411,-2.8411,-2.8411,-2.8411,-2.8411,-2.8411,-2.8411,-2.8411,-2.8411,-2.8411,-2.8411,-2.8411,-2.8396,-2.8396,-2.8411,-2.8348,-2.8073,-2.791,-2.763,-2.7363,-2.7027,-2.625,-2.5334,-2.4641,-2.4024,-2.323,-2.2488,-2.2598,-2.2572,-2.2626,-2.2694,-2.2826,-2.2916,-2.2942,-2.379,-2.4927,-2.547,-2.4958,-2.4958,-2.502,-2.5059,-2.5059,-2.5059,-2.5198,-2.5481,-2.5596,-2.597,-2.6151,-2.6108,-2.5869,-2.5541,-2.545,-2.5368,-2.5087,-2.5215,-2.4925,-2.5181,-2.5228,-2.5273,-2.5122,-2.5625,-2.6137,-2.6639,-2.7103,-2.7642,-2.815,-2.8334,-2.8396,-2.8411,-2.8411,-2.8411,-2.8411,-2.8411,-2.8411,-2.8411,-2.8411,-2.8411,-2.8411,-2.8411,-2.8411,-2.8411,-2.8411,-2.8411,-2.8411,-2.8411,-2.8411,-2.8411,-2.8411,-2.8411,-2.8411,-2.8411,-2.8411,-2.8411,-2.8411,-2.8411,-2.8411,-2.8411,-2.8411,-2.8411,-2.8411,-2.8411,-2.8411,-2.8411,-2.8411,-2.8411,-2.8411,-2.8411,-2.8411,-2.8411,-2.8411,-2.8411,-2.8411,-2.8411,-2.8411,-2.8411,-2.8411,-2.8411,-2.8411,-2.8411,-2.8411,-2.8411,-2.8411,-2.8411,-2.8411,-2.8411,-2.8411,-2.8411,-2.8299,-2.8299,-2.8396,-2.8284,-2.7959,-2.758,-2.7312,-2.6931,-2.6576,-2.5646,-2.4454,-2.3554,-2.2726,-2.2221,-2.1698,-2.1921,-2.2155,-2.2249,-2.2346,-2.2414,-2.2516,-2.2578,-2.2833,-2.3786,-2.4136,-2.441,-2.4467,-2.4533,-2.4614,-2.4655,-2.4655,-2.4744,-2.4918,-2.4719,-2.4759,-2.4981,-2.5137,-2.502,-2.4679,-2.4639,-2.4574,-2.4302,-2.4333,-2.4441,-2.4472,-2.4492,-2.4529,-2.471,-2.4953,-2.5354,-2.5887,-2.658,-2.7196,-2.7842,-2.798,-2.798,-2.8273,-2.8365,-2.835,-2.8365,-2.8396,-2.8381,-2.8411,-2.8411,-2.8411,-2.8411,-2.8411,-2.8411,-2.8411,-2.8411,-2.8411,-2.8411,-2.8411,-2.8411,-2.8411,-2.8411,-2.8411,-2.8411,-2.8411,-2.8411,-2.8411,-2.8411,-2.8411,-2.8411,-2.8411,-2.8411,-2.8411,-2.8411,-2.8411,-2.8411,-2.8411,-2.8411,-2.8411,-2.8411,-2.8411,-2.8411,-2.8411,-2.8411,-2.8411,-2.8411,-2.8411,-2.8411,-2.8411,-2.8411,-2.8411,-2.8411,-2.8411,-2.8411,-2.8411,-2.8411,-2.8411,-2.8411,-2.8411,-2.8411,-2.8348,-2.8299,-2.8186,-2.8186,-2.8299,-2.8186,-2.7595,-2.7004,-2.6605,-2.6165,-2.4807,-2.3553,-2.2364,-2.1423,-2.1526,-2.1539,-2.1458,-2.1662,-2.1898,-2.1857,-2.1835,-2.2049,-2.2228,-2.2526,-2.2754,-2.287,-2.3882,-2.4024,-2.4124,-2.4208,-2.4276,-2.4261,-2.4317,-2.4317,-2.4302,-2.4302,-2.4385,-2.4704,-2.4558,-2.441,-2.4302,-2.4302,-2.4302,-2.4302,-2.4302,-2.4302,-2.4302,-2.4343,-2.4343,-2.4394,-2.4887,-2.5456,-2.6134,-2.6688,-2.7257,-2.7303,-2.7534,-2.8057,-2.8181,-2.8165,-2.8258,-2.8273,-2.8211,-2.8365,-2.8411,-2.8411,-2.8411,-2.8411,-2.8411,-2.8411,-2.8411,-2.8411,-2.8411,-2.8411,-2.8411,-2.8411,-2.8411,-2.8411,-2.8411,-2.8411,-2.8411,-2.8411,-2.8411,-2.8411,-2.8411,-2.8411,-2.8411,-2.8411,-2.8411,-2.8411,-2.8411,-2.8411,-2.8411,-2.8411,-2.8411,-2.8411,-2.8411,-2.8411,-2.8411,-2.8411,-2.8411,-2.8411,-2.8411,-2.8411,-2.8411,-2.8411,-2.8411,-2.8411,-2.8411,-2.8411,-2.8411,-2.8411,-2.8411,-2.8411,-2.8396,-2.8299,-2.8235,-2.8024,-2.791,-2.8008,-2.7925,-2.7444,-2.6587,-2.6051,-2.5422,-2.4049,-2.2916,-2.2468,-2.2034,-2.1654,-2.1627,-2.1613,-2.1559,-2.1735,-2.1578,-2.1551,-2.1866,-2.2191,-2.2136,-2.2248,-2.1827,-2.3882,-2.3982,-2.4024,-2.4024,-2.4067,-2.4067,-2.4124,-2.4208,-2.4208,-2.4234,-2.4302,-2.4343,-2.4343,-2.4302,-2.4302,-2.4302,-2.4302,-2.4302,-2.4302,-2.4302,-2.4302,-2.4302,-2.4302,-2.4333,-2.4733,-2.5256,-2.5795,-2.6349,-2.6565,-2.658,-2.6657,-2.6903,-2.6872,-2.7103,-2.7611,-2.7703,-2.7919,-2.8196,-2.8411,-2.8411,-2.8411,-2.8411,-2.8411,-2.8411,-2.8411,-2.8411,-2.8411,-2.8411,-2.8411,-2.8411,-2.8411,-2.8411,-2.8411,-2.8411,-2.8411,-2.8411,-2.8411,-2.8411,-2.8411,-2.8411,-2.8411,-2.8411,-2.8411,-2.8411,-2.8411,-2.8411,-2.8411,-2.8411,-2.8411,-2.8411,-2.8411,-2.8411,-2.8411,-2.8411,-2.8411,-2.8411,-2.8411,-2.8411,-2.8411,-2.8411,-2.8411,-2.8411,-2.8411,-2.8411,-2.8348,-2.8348,-2.8299,-2.8235,-2.8088,-2.8122,-2.8073,-2.7745,-2.753,-2.6967,-2.6563,-2.6616,-2.6082,-2.555,-2.4942,-2.3974,-2.3419,-2.3243,-2.2837,-2.2268,-2.197,-2.1939,-2.1884,-2.1735,-2.1767,-2.1871,-2.2088,-2.221,-2.2074,-2.1848,-2.1556]}]]